<?xml version="1.0" encoding="UTF-8" standalone="no" ?>
<gpx xmlns="http://www.topografix.com/GPX/1/1" creator="https://MapMagic.app" xmlns:xsi="http://www.w3.org/2001/XMLSchema-instance" xsi:schemaLocation="http://www.topografix.com/GPX/1/1 http://www.topografix.com/GPX/1/1/gpx.xsd" version="1.1">
	<wpt lat="54.936321" lon="20.511163">
		<name>КП 1</name>
		<type>Generic</type>
	</wpt>
	<wpt lat="54.896349" lon="20.276431">
		<name>КП 2</name>
		<type>Generic</type>
	</wpt>
	<wpt lat="54.842116" lon="20.011026">
		<name>КП 3</name>
		<type>Generic</type>
	</wpt>
	<trk>
		<name>200_Зимний_2026</name>
		<desc>200_Зимний_2026</desc>
		<trkseg>
			<trkpt lat="54.709480" lon="20.537940"><ele>9.6</ele><time>2025-12-08T09:55:57Z</time></trkpt>
			<trkpt lat="54.709480" lon="20.537940"><ele>9.6</ele><time>2025-12-08T09:56:03Z</time></trkpt>
			<trkpt lat="54.709690" lon="20.537820"><ele>9.2</ele><time>2025-12-08T09:56:09Z</time></trkpt>
			<trkpt lat="54.709690" lon="20.537990"><ele>9.0</ele><time>2025-12-08T09:56:15Z</time></trkpt>
			<trkpt lat="54.709700" lon="20.538560"><ele>8.5</ele><time>2025-12-08T09:56:21Z</time></trkpt>
			<trkpt lat="54.709690" lon="20.538670"><ele>8.4</ele><time>2025-12-08T09:56:27Z</time></trkpt>
			<trkpt lat="54.709690" lon="20.538810"><ele>8.2</ele><time>2025-12-08T09:56:33Z</time></trkpt>
			<trkpt lat="54.709750" lon="20.542600"><ele>7.4</ele><time>2025-12-08T09:56:39Z</time></trkpt>
			<trkpt lat="54.709750" lon="20.542600"><ele>7.4</ele><time>2025-12-08T09:56:44Z</time></trkpt>
			<trkpt lat="54.709750" lon="20.542820"><ele>7.5</ele><time>2025-12-08T09:56:50Z</time></trkpt>
			<trkpt lat="54.709760" lon="20.544460"><ele>7.6</ele><time>2025-12-08T09:56:56Z</time></trkpt>
			<trkpt lat="54.709760" lon="20.545000"><ele>7.4</ele><time>2025-12-08T09:57:02Z</time></trkpt>
			<trkpt lat="54.709740" lon="20.546660"><ele>6.9</ele><time>2025-12-08T09:57:08Z</time></trkpt>
			<trkpt lat="54.709700" lon="20.548490"><ele>6.2</ele><time>2025-12-08T09:57:13Z</time></trkpt>
			<trkpt lat="54.709690" lon="20.548680"><ele>6.2</ele><time>2025-12-08T09:57:19Z</time></trkpt>
			<trkpt lat="54.709680" lon="20.548990"><ele>6.0</ele><time>2025-12-08T09:57:25Z</time></trkpt>
			<trkpt lat="54.709620" lon="20.550070"><ele>5.8</ele><time>2025-12-08T09:57:31Z</time></trkpt>
			<trkpt lat="54.709590" lon="20.550560"><ele>6.0</ele><time>2025-12-08T09:57:37Z</time></trkpt>
			<trkpt lat="54.709550" lon="20.551110"><ele>6.2</ele><time>2025-12-08T09:57:43Z</time></trkpt>
			<trkpt lat="54.709390" lon="20.553500"><ele>6.6</ele><time>2025-12-08T09:57:48Z</time></trkpt>
			<trkpt lat="54.709350" lon="20.554330"><ele>6.2</ele><time>2025-12-08T09:57:54Z</time></trkpt>
			<trkpt lat="54.709300" lon="20.555130"><ele>5.8</ele><time>2025-12-08T09:58:00Z</time></trkpt>
			<trkpt lat="54.709270" lon="20.555810"><ele>5.4</ele><time>2025-12-08T09:58:06Z</time></trkpt>
			<trkpt lat="54.709170" lon="20.557250"><ele>6.3</ele><time>2025-12-08T09:58:12Z</time></trkpt>
			<trkpt lat="54.709130" lon="20.558010"><ele>7.0</ele><time>2025-12-08T09:58:18Z</time></trkpt>
			<trkpt lat="54.708950" lon="20.561760"><ele>7.4</ele><time>2025-12-08T09:58:23Z</time></trkpt>
			<trkpt lat="54.708890" lon="20.563240"><ele>7.4</ele><time>2025-12-08T09:58:29Z</time></trkpt>
			<trkpt lat="54.708850" lon="20.563920"><ele>7.6</ele><time>2025-12-08T09:58:35Z</time></trkpt>
			<trkpt lat="54.708770" lon="20.567050"><ele>7.7</ele><time>2025-12-08T09:58:41Z</time></trkpt>
			<trkpt lat="54.708740" lon="20.567880"><ele>7.6</ele><time>2025-12-08T09:58:47Z</time></trkpt>
			<trkpt lat="54.708640" lon="20.569060"><ele>7.5</ele><time>2025-12-08T09:58:52Z</time></trkpt>
			<trkpt lat="54.708590" lon="20.569530"><ele>7.4</ele><time>2025-12-08T09:58:58Z</time></trkpt>
			<trkpt lat="54.708540" lon="20.569940"><ele>7.3</ele><time>2025-12-08T09:59:04Z</time></trkpt>
			<trkpt lat="54.708390" lon="20.571190"><ele>7.1</ele><time>2025-12-08T09:59:10Z</time></trkpt>
			<trkpt lat="54.708270" lon="20.572240"><ele>7.1</ele><time>2025-12-08T09:59:16Z</time></trkpt>
			<trkpt lat="54.708250" lon="20.572440"><ele>7.1</ele><time>2025-12-08T09:59:22Z</time></trkpt>
			<trkpt lat="54.708140" lon="20.573530"><ele>7.2</ele><time>2025-12-08T09:59:27Z</time></trkpt>
			<trkpt lat="54.707950" lon="20.575120"><ele>7.3</ele><time>2025-12-08T09:59:33Z</time></trkpt>
			<trkpt lat="54.707860" lon="20.575920"><ele>7.4</ele><time>2025-12-08T09:59:39Z</time></trkpt>
			<trkpt lat="54.707650" lon="20.577630"><ele>7.7</ele><time>2025-12-08T09:59:45Z</time></trkpt>
			<trkpt lat="54.707610" lon="20.577980"><ele>7.7</ele><time>2025-12-08T09:59:51Z</time></trkpt>
			<trkpt lat="54.707080" lon="20.582170"><ele>8.1</ele><time>2025-12-08T09:59:57Z</time></trkpt>
			<trkpt lat="54.706970" lon="20.583100"><ele>8.1</ele><time>2025-12-08T10:00:02Z</time></trkpt>
			<trkpt lat="54.706940" lon="20.583270"><ele>8.1</ele><time>2025-12-08T10:00:08Z</time></trkpt>
			<trkpt lat="54.706910" lon="20.583490"><ele>8.1</ele><time>2025-12-08T10:00:14Z</time></trkpt>
			<trkpt lat="54.706890" lon="20.583660"><ele>8.1</ele><time>2025-12-08T10:00:20Z</time></trkpt>
			<trkpt lat="54.706840" lon="20.584050"><ele>8.0</ele><time>2025-12-08T10:00:26Z</time></trkpt>
			<trkpt lat="54.706740" lon="20.584680"><ele>7.4</ele><time>2025-12-08T10:00:31Z</time></trkpt>
			<trkpt lat="54.706570" lon="20.585540"><ele>6.6</ele><time>2025-12-08T10:00:37Z</time></trkpt>
			<trkpt lat="54.706460" lon="20.586020"><ele>6.2</ele><time>2025-12-08T10:00:43Z</time></trkpt>
			<trkpt lat="54.706290" lon="20.586670"><ele>5.5</ele><time>2025-12-08T10:00:49Z</time></trkpt>
			<trkpt lat="54.706220" lon="20.586920"><ele>5.4</ele><time>2025-12-08T10:00:55Z</time></trkpt>
			<trkpt lat="54.706180" lon="20.587050"><ele>5.3</ele><time>2025-12-08T10:01:01Z</time></trkpt>
			<trkpt lat="54.705630" lon="20.588830"><ele>4.4</ele><time>2025-12-08T10:01:06Z</time></trkpt>
			<trkpt lat="54.705330" lon="20.589940"><ele>4.0</ele><time>2025-12-08T10:01:12Z</time></trkpt>
			<trkpt lat="54.705260" lon="20.590200"><ele>4.0</ele><time>2025-12-08T10:01:18Z</time></trkpt>
			<trkpt lat="54.704950" lon="20.591690"><ele>4.1</ele><time>2025-12-08T10:01:24Z</time></trkpt>
			<trkpt lat="54.704740" lon="20.592900"><ele>3.8</ele><time>2025-12-08T10:01:30Z</time></trkpt>
			<trkpt lat="54.704650" lon="20.593490"><ele>3.3</ele><time>2025-12-08T10:01:35Z</time></trkpt>
			<trkpt lat="54.704540" lon="20.594360"><ele>2.6</ele><time>2025-12-08T10:01:41Z</time></trkpt>
			<trkpt lat="54.704260" lon="20.596890"><ele>1.8</ele><time>2025-12-08T10:01:47Z</time></trkpt>
			<trkpt lat="54.704080" lon="20.598420"><ele>1.9</ele><time>2025-12-08T10:01:53Z</time></trkpt>
			<trkpt lat="54.704000" lon="20.599250"><ele>1.7</ele><time>2025-12-08T10:01:59Z</time></trkpt>
			<trkpt lat="54.703970" lon="20.599740"><ele>1.5</ele><time>2025-12-08T10:02:05Z</time></trkpt>
			<trkpt lat="54.703920" lon="20.600610"><ele>1.2</ele><time>2025-12-08T10:02:10Z</time></trkpt>
			<trkpt lat="54.703910" lon="20.601480"><ele>0.8</ele><time>2025-12-08T10:02:16Z</time></trkpt>
			<trkpt lat="54.703920" lon="20.602500"><ele>1.9</ele><time>2025-12-08T10:02:22Z</time></trkpt>
			<trkpt lat="54.703970" lon="20.603490"><ele>3.4</ele><time>2025-12-08T10:02:28Z</time></trkpt>
			<trkpt lat="54.704060" lon="20.604470"><ele>4.9</ele><time>2025-12-08T10:02:34Z</time></trkpt>
			<trkpt lat="54.704140" lon="20.605150"><ele>5.3</ele><time>2025-12-08T10:02:40Z</time></trkpt>
			<trkpt lat="54.704230" lon="20.605830"><ele>4.9</ele><time>2025-12-08T10:02:45Z</time></trkpt>
			<trkpt lat="54.704470" lon="20.607170"><ele>4.2</ele><time>2025-12-08T10:02:51Z</time></trkpt>
			<trkpt lat="54.704790" lon="20.608380"><ele>3.4</ele><time>2025-12-08T10:02:57Z</time></trkpt>
			<trkpt lat="54.704870" lon="20.608700"><ele>3.2</ele><time>2025-12-08T10:03:03Z</time></trkpt>
			<trkpt lat="54.704890" lon="20.608740"><ele>3.2</ele><time>2025-12-08T10:03:09Z</time></trkpt>
			<trkpt lat="54.705280" lon="20.610270"><ele>2.2</ele><time>2025-12-08T10:03:14Z</time></trkpt>
			<trkpt lat="54.705680" lon="20.611910"><ele>1.9</ele><time>2025-12-08T10:03:20Z</time></trkpt>
			<trkpt lat="54.705790" lon="20.612410"><ele>1.9</ele><time>2025-12-08T10:03:26Z</time></trkpt>
			<trkpt lat="54.705950" lon="20.613240"><ele>1.9</ele><time>2025-12-08T10:03:32Z</time></trkpt>
			<trkpt lat="54.706110" lon="20.614130"><ele>2.5</ele><time>2025-12-08T10:03:38Z</time></trkpt>
			<trkpt lat="54.706290" lon="20.615460"><ele>4.1</ele><time>2025-12-08T10:03:44Z</time></trkpt>
			<trkpt lat="54.706425" lon="20.616498"><ele>5.3</ele><time>2025-12-08T10:03:49Z</time></trkpt>
			<trkpt lat="54.706425" lon="20.616498"><ele>5.3</ele><time>2025-12-08T10:03:53Z</time></trkpt>
			<trkpt lat="54.706510" lon="20.617150"><ele>4.9</ele><time>2025-12-08T10:03:57Z</time></trkpt>
			<trkpt lat="54.706816" lon="20.617043"><ele>4.3</ele><time>2025-12-08T10:04:40Z</time></trkpt>
			<trkpt lat="54.706820" lon="20.617040"><ele>4.3</ele><time>2025-12-08T10:04:43Z</time></trkpt>
			<trkpt lat="54.706970" lon="20.618250"><ele>3.1</ele><time>2025-12-08T10:04:45Z</time></trkpt>
			<trkpt lat="54.706990" lon="20.618380"><ele>3.0</ele><time>2025-12-08T10:04:47Z</time></trkpt>
			<trkpt lat="54.707230" lon="20.619580"><ele>2.8</ele><time>2025-12-08T10:04:49Z</time></trkpt>
			<trkpt lat="54.707320" lon="20.619810"><ele>3.0</ele><time>2025-12-08T10:04:52Z</time></trkpt>
			<trkpt lat="54.707320" lon="20.619810"><ele>3.0</ele><time>2025-12-08T10:05:02Z</time></trkpt>
			<trkpt lat="54.707340" lon="20.619880"><ele>3.0</ele><time>2025-12-08T10:05:13Z</time></trkpt>
			<trkpt lat="54.707570" lon="20.620270"><ele>3.4</ele><time>2025-12-08T10:05:24Z</time></trkpt>
			<trkpt lat="54.708040" lon="20.620640"><ele>3.9</ele><time>2025-12-08T10:05:35Z</time></trkpt>
			<trkpt lat="54.708310" lon="20.620780"><ele>4.2</ele><time>2025-12-08T10:05:46Z</time></trkpt>
			<trkpt lat="54.708510" lon="20.621010"><ele>4.6</ele><time>2025-12-08T10:05:57Z</time></trkpt>
			<trkpt lat="54.708600" lon="20.621280"><ele>5.0</ele><time>2025-12-08T10:06:08Z</time></trkpt>
			<trkpt lat="54.708730" lon="20.622280"><ele>6.4</ele><time>2025-12-08T10:06:18Z</time></trkpt>
			<trkpt lat="54.708810" lon="20.622560"><ele>6.8</ele><time>2025-12-08T10:06:29Z</time></trkpt>
			<trkpt lat="54.710180" lon="20.622530"><ele>8.6</ele><time>2025-12-08T10:06:40Z</time></trkpt>
			<trkpt lat="54.710350" lon="20.622510"><ele>8.7</ele><time>2025-12-08T10:06:51Z</time></trkpt>
			<trkpt lat="54.710760" lon="20.622500"><ele>8.8</ele><time>2025-12-08T10:07:02Z</time></trkpt>
			<trkpt lat="54.711040" lon="20.622560"><ele>8.8</ele><time>2025-12-08T10:07:13Z</time></trkpt>
			<trkpt lat="54.711620" lon="20.622750"><ele>8.9</ele><time>2025-12-08T10:07:24Z</time></trkpt>
			<trkpt lat="54.711770" lon="20.622830"><ele>8.9</ele><time>2025-12-08T10:07:34Z</time></trkpt>
			<trkpt lat="54.711870" lon="20.622950"><ele>8.9</ele><time>2025-12-08T10:07:45Z</time></trkpt>
			<trkpt lat="54.711930" lon="20.623060"><ele>8.9</ele><time>2025-12-08T10:07:56Z</time></trkpt>
			<trkpt lat="54.712480" lon="20.624650"><ele>9.0</ele><time>2025-12-08T10:08:07Z</time></trkpt>
			<trkpt lat="54.712890" lon="20.626610"><ele>9.3</ele><time>2025-12-08T10:08:18Z</time></trkpt>
			<trkpt lat="54.713150" lon="20.627850"><ele>9.7</ele><time>2025-12-08T10:08:29Z</time></trkpt>
			<trkpt lat="54.713210" lon="20.628100"><ele>10.0</ele><time>2025-12-08T10:08:40Z</time></trkpt>
			<trkpt lat="54.713410" lon="20.628940"><ele>11.1</ele><time>2025-12-08T10:08:50Z</time></trkpt>
			<trkpt lat="54.713660" lon="20.629950"><ele>12.3</ele><time>2025-12-08T10:09:01Z</time></trkpt>
			<trkpt lat="54.713720" lon="20.630110"><ele>12.5</ele><time>2025-12-08T10:09:12Z</time></trkpt>
			<trkpt lat="54.714110" lon="20.631140"><ele>13.6</ele><time>2025-12-08T10:09:23Z</time></trkpt>
			<trkpt lat="54.715580" lon="20.633490"><ele>15.6</ele><time>2025-12-08T10:09:34Z</time></trkpt>
			<trkpt lat="54.716510" lon="20.634800"><ele>16.4</ele><time>2025-12-08T10:09:45Z</time></trkpt>
			<trkpt lat="54.719290" lon="20.638840"><ele>16.2</ele><time>2025-12-08T10:09:56Z</time></trkpt>
			<trkpt lat="54.719710" lon="20.639450"><ele>15.9</ele><time>2025-12-08T10:10:06Z</time></trkpt>
			<trkpt lat="54.720540" lon="20.640740"><ele>15.2</ele><time>2025-12-08T10:10:17Z</time></trkpt>
			<trkpt lat="54.720750" lon="20.641180"><ele>15.4</ele><time>2025-12-08T10:10:28Z</time></trkpt>
			<trkpt lat="54.721040" lon="20.642280"><ele>16.3</ele><time>2025-12-08T10:10:39Z</time></trkpt>
			<trkpt lat="54.721430" lon="20.643860"><ele>17.4</ele><time>2025-12-08T10:10:50Z</time></trkpt>
			<trkpt lat="54.722540" lon="20.648200"><ele>17.6</ele><time>2025-12-08T10:11:01Z</time></trkpt>
			<trkpt lat="54.722770" lon="20.649060"><ele>17.7</ele><time>2025-12-08T10:11:12Z</time></trkpt>
			<trkpt lat="54.723080" lon="20.649920"><ele>18.1</ele><time>2025-12-08T10:11:22Z</time></trkpt>
			<trkpt lat="54.723360" lon="20.650500"><ele>18.5</ele><time>2025-12-08T10:11:33Z</time></trkpt>
			<trkpt lat="54.723480" lon="20.650720"><ele>18.7</ele><time>2025-12-08T10:11:44Z</time></trkpt>
			<trkpt lat="54.723990" lon="20.651730"><ele>19.4</ele><time>2025-12-08T10:11:55Z</time></trkpt>
			<trkpt lat="54.724870" lon="20.653210"><ele>20.1</ele><time>2025-12-08T10:12:06Z</time></trkpt>
			<trkpt lat="54.727220" lon="20.657280"><ele>19.8</ele><time>2025-12-08T10:12:17Z</time></trkpt>
			<trkpt lat="54.727640" lon="20.657990"><ele>19.6</ele><time>2025-12-08T10:12:28Z</time></trkpt>
			<trkpt lat="54.729010" lon="20.660360"><ele>19.5</ele><time>2025-12-08T10:12:38Z</time></trkpt>
			<trkpt lat="54.729240" lon="20.660770"><ele>19.4</ele><time>2025-12-08T10:12:49Z</time></trkpt>
			<trkpt lat="54.729980" lon="20.662180"><ele>19.1</ele><time>2025-12-08T10:13:00Z</time></trkpt>
			<trkpt lat="54.730250" lon="20.662820"><ele>18.9</ele><time>2025-12-08T10:13:11Z</time></trkpt>
			<trkpt lat="54.730740" lon="20.664360"><ele>19.9</ele><time>2025-12-08T10:13:22Z</time></trkpt>
			<trkpt lat="54.731950" lon="20.667880"><ele>24.7</ele><time>2025-12-08T10:13:33Z</time></trkpt>
			<trkpt lat="54.733320" lon="20.672230"><ele>27.2</ele><time>2025-12-08T10:13:44Z</time></trkpt>
			<trkpt lat="54.733500" lon="20.673040"><ele>28.1</ele><time>2025-12-08T10:13:54Z</time></trkpt>
			<trkpt lat="54.733590" lon="20.673660"><ele>28.8</ele><time>2025-12-08T10:14:05Z</time></trkpt>
			<trkpt lat="54.733950" lon="20.676260"><ele>26.7</ele><time>2025-12-08T10:14:16Z</time></trkpt>
			<trkpt lat="54.734110" lon="20.677290"><ele>25.6</ele><time>2025-12-08T10:14:27Z</time></trkpt>
			<trkpt lat="54.734700" lon="20.681000"><ele>22.5</ele><time>2025-12-08T10:14:38Z</time></trkpt>
			<trkpt lat="54.734840" lon="20.681850"><ele>21.7</ele><time>2025-12-08T10:14:49Z</time></trkpt>
			<trkpt lat="54.735470" lon="20.685640"><ele>17.9</ele><time>2025-12-08T10:15:00Z</time></trkpt>
			<trkpt lat="54.735610" lon="20.686400"><ele>17.7</ele><time>2025-12-08T10:15:10Z</time></trkpt>
			<trkpt lat="54.739200" lon="20.706930"><ele>16.3</ele><time>2025-12-08T10:15:21Z</time></trkpt>
			<trkpt lat="54.741320" lon="20.717760"><ele>15.7</ele><time>2025-12-08T10:15:32Z</time></trkpt>
			<trkpt lat="54.744670" lon="20.734960"><ele>14.7</ele><time>2025-12-08T10:15:43Z</time></trkpt>
			<trkpt lat="54.744910" lon="20.734890"><ele>14.9</ele><time>2025-12-08T10:15:54Z</time></trkpt>
			<trkpt lat="54.745310" lon="20.734620"><ele>15.2</ele><time>2025-12-08T10:16:05Z</time></trkpt>
			<trkpt lat="54.745400" lon="20.734530"><ele>15.3</ele><time>2025-12-08T10:16:15Z</time></trkpt>
			<trkpt lat="54.745400" lon="20.734540"><ele>15.3</ele><time>2025-12-08T10:16:25Z</time></trkpt>
			<trkpt lat="54.749410" lon="20.730470"><ele>16.2</ele><time>2025-12-08T10:16:34Z</time></trkpt>
			<trkpt lat="54.750050" lon="20.729800"><ele>17.0</ele><time>2025-12-08T10:16:43Z</time></trkpt>
			<trkpt lat="54.750600" lon="20.729320"><ele>17.1</ele><time>2025-12-08T10:16:52Z</time></trkpt>
			<trkpt lat="54.750870" lon="20.729200"><ele>17.0</ele><time>2025-12-08T10:17:02Z</time></trkpt>
			<trkpt lat="54.751000" lon="20.729140"><ele>17.0</ele><time>2025-12-08T10:17:11Z</time></trkpt>
			<trkpt lat="54.751370" lon="20.729000"><ele>16.8</ele><time>2025-12-08T10:17:20Z</time></trkpt>
			<trkpt lat="54.751780" lon="20.728950"><ele>16.7</ele><time>2025-12-08T10:17:29Z</time></trkpt>
			<trkpt lat="54.752960" lon="20.728960"><ele>17.2</ele><time>2025-12-08T10:17:39Z</time></trkpt>
			<trkpt lat="54.753490" lon="20.728890"><ele>17.6</ele><time>2025-12-08T10:17:48Z</time></trkpt>
			<trkpt lat="54.762570" lon="20.726720"><ele>22.7</ele><time>2025-12-08T10:17:57Z</time></trkpt>
			<trkpt lat="54.762970" lon="20.726710"><ele>23.0</ele><time>2025-12-08T10:18:06Z</time></trkpt>
			<trkpt lat="54.763290" lon="20.726740"><ele>23.0</ele><time>2025-12-08T10:18:16Z</time></trkpt>
			<trkpt lat="54.765820" lon="20.727350"><ele>23.0</ele><time>2025-12-08T10:18:25Z</time></trkpt>
			<trkpt lat="54.766190" lon="20.727390"><ele>23.0</ele><time>2025-12-08T10:18:34Z</time></trkpt>
			<trkpt lat="54.766570" lon="20.727300"><ele>23.0</ele><time>2025-12-08T10:18:43Z</time></trkpt>
			<trkpt lat="54.766920" lon="20.727080"><ele>23.1</ele><time>2025-12-08T10:18:52Z</time></trkpt>
			<trkpt lat="54.767230" lon="20.726810"><ele>23.2</ele><time>2025-12-08T10:19:02Z</time></trkpt>
			<trkpt lat="54.767490" lon="20.726490"><ele>23.3</ele><time>2025-12-08T10:19:11Z</time></trkpt>
			<trkpt lat="54.768250" lon="20.725450"><ele>23.9</ele><time>2025-12-08T10:19:20Z</time></trkpt>
			<trkpt lat="54.770560" lon="20.722310"><ele>27.8</ele><time>2025-12-08T10:19:29Z</time></trkpt>
			<trkpt lat="54.773660" lon="20.718220"><ele>24.9</ele><time>2025-12-08T10:19:39Z</time></trkpt>
			<trkpt lat="54.774550" lon="20.716950"><ele>24.9</ele><time>2025-12-08T10:19:48Z</time></trkpt>
			<trkpt lat="54.775460" lon="20.715550"><ele>24.6</ele><time>2025-12-08T10:19:57Z</time></trkpt>
			<trkpt lat="54.776070" lon="20.714630"><ele>24.2</ele><time>2025-12-08T10:20:06Z</time></trkpt>
			<trkpt lat="54.776520" lon="20.714140"><ele>24.1</ele><time>2025-12-08T10:20:16Z</time></trkpt>
			<trkpt lat="54.776890" lon="20.713910"><ele>24.7</ele><time>2025-12-08T10:20:25Z</time></trkpt>
			<trkpt lat="54.777280" lon="20.713730"><ele>25.3</ele><time>2025-12-08T10:20:34Z</time></trkpt>
			<trkpt lat="54.777800" lon="20.713610"><ele>26.1</ele><time>2025-12-08T10:20:43Z</time></trkpt>
			<trkpt lat="54.778750" lon="20.713540"><ele>27.3</ele><time>2025-12-08T10:20:52Z</time></trkpt>
			<trkpt lat="54.788090" lon="20.712630"><ele>22.7</ele><time>2025-12-08T10:21:02Z</time></trkpt>
			<trkpt lat="54.798500" lon="20.711610"><ele>20.0</ele><time>2025-12-08T10:21:11Z</time></trkpt>
			<trkpt lat="54.798000" lon="20.698580"><ele>27.9</ele><time>2025-12-08T10:21:20Z</time></trkpt>
			<trkpt lat="54.797970" lon="20.698020"><ele>28.2</ele><time>2025-12-08T10:21:29Z</time></trkpt>
			<trkpt lat="54.797930" lon="20.696010"><ele>29.5</ele><time>2025-12-08T10:21:39Z</time></trkpt>
			<trkpt lat="54.797850" lon="20.694000"><ele>31.3</ele><time>2025-12-08T10:21:48Z</time></trkpt>
			<trkpt lat="54.797590" lon="20.686860"><ele>29.6</ele><time>2025-12-08T10:21:57Z</time></trkpt>
			<trkpt lat="54.797760" lon="20.686890"><ele>29.4</ele><time>2025-12-08T10:22:06Z</time></trkpt>
			<trkpt lat="54.798260" lon="20.687010"><ele>28.9</ele><time>2025-12-08T10:22:16Z</time></trkpt>
			<trkpt lat="54.798650" lon="20.687110"><ele>28.5</ele><time>2025-12-08T10:22:25Z</time></trkpt>
			<trkpt lat="54.799860" lon="20.687520"><ele>27.0</ele><time>2025-12-08T10:22:34Z</time></trkpt>
			<trkpt lat="54.800200" lon="20.687680"><ele>26.6</ele><time>2025-12-08T10:22:43Z</time></trkpt>
			<trkpt lat="54.800460" lon="20.687820"><ele>26.3</ele><time>2025-12-08T10:22:52Z</time></trkpt>
			<trkpt lat="54.801060" lon="20.688150"><ele>25.3</ele><time>2025-12-08T10:23:02Z</time></trkpt>
			<trkpt lat="54.801220" lon="20.688190"><ele>25.0</ele><time>2025-12-08T10:23:11Z</time></trkpt>
			<trkpt lat="54.801310" lon="20.688150"><ele>24.9</ele><time>2025-12-08T10:23:20Z</time></trkpt>
			<trkpt lat="54.801830" lon="20.687760"><ele>23.9</ele><time>2025-12-08T10:23:29Z</time></trkpt>
			<trkpt lat="54.802030" lon="20.687580"><ele>23.5</ele><time>2025-12-08T10:23:39Z</time></trkpt>
			<trkpt lat="54.802150" lon="20.687490"><ele>23.2</ele><time>2025-12-08T10:23:48Z</time></trkpt>
			<trkpt lat="54.802330" lon="20.687410"><ele>22.9</ele><time>2025-12-08T10:23:57Z</time></trkpt>
			<trkpt lat="54.802970" lon="20.687320"><ele>23.0</ele><time>2025-12-08T10:24:06Z</time></trkpt>
			<trkpt lat="54.803550" lon="20.687370"><ele>23.3</ele><time>2025-12-08T10:24:16Z</time></trkpt>
			<trkpt lat="54.803820" lon="20.687400"><ele>23.4</ele><time>2025-12-08T10:24:25Z</time></trkpt>
			<trkpt lat="54.804000" lon="20.687410"><ele>23.5</ele><time>2025-12-08T10:24:34Z</time></trkpt>
			<trkpt lat="54.804890" lon="20.687500"><ele>23.1</ele><time>2025-12-08T10:24:43Z</time></trkpt>
			<trkpt lat="54.805550" lon="20.687560"><ele>22.5</ele><time>2025-12-08T10:24:52Z</time></trkpt>
			<trkpt lat="54.806310" lon="20.687640"><ele>22.2</ele><time>2025-12-08T10:25:02Z</time></trkpt>
			<trkpt lat="54.806310" lon="20.687640"><ele>22.2</ele><time>2025-12-08T10:25:08Z</time></trkpt>
			<trkpt lat="54.806470" lon="20.687650"><ele>22.3</ele><time>2025-12-08T10:25:15Z</time></trkpt>
			<trkpt lat="54.806830" lon="20.687770"><ele>22.4</ele><time>2025-12-08T10:25:21Z</time></trkpt>
			<trkpt lat="54.807010" lon="20.687860"><ele>22.5</ele><time>2025-12-08T10:25:28Z</time></trkpt>
			<trkpt lat="54.807270" lon="20.687920"><ele>22.5</ele><time>2025-12-08T10:25:35Z</time></trkpt>
			<trkpt lat="54.808100" lon="20.688230"><ele>22.8</ele><time>2025-12-08T10:25:41Z</time></trkpt>
			<trkpt lat="54.809220" lon="20.688670"><ele>23.0</ele><time>2025-12-08T10:25:48Z</time></trkpt>
			<trkpt lat="54.811020" lon="20.689370"><ele>21.2</ele><time>2025-12-08T10:25:54Z</time></trkpt>
			<trkpt lat="54.811430" lon="20.689540"><ele>20.9</ele><time>2025-12-08T10:26:01Z</time></trkpt>
			<trkpt lat="54.812360" lon="20.689860"><ele>21.5</ele><time>2025-12-08T10:26:08Z</time></trkpt>
			<trkpt lat="54.812970" lon="20.690020"><ele>21.9</ele><time>2025-12-08T10:26:14Z</time></trkpt>
			<trkpt lat="54.813560" lon="20.690160"><ele>22.2</ele><time>2025-12-08T10:26:21Z</time></trkpt>
			<trkpt lat="54.813860" lon="20.690170"><ele>22.4</ele><time>2025-12-08T10:26:27Z</time></trkpt>
			<trkpt lat="54.815190" lon="20.690080"><ele>22.6</ele><time>2025-12-08T10:26:34Z</time></trkpt>
			<trkpt lat="54.815450" lon="20.690160"><ele>22.3</ele><time>2025-12-08T10:26:40Z</time></trkpt>
			<trkpt lat="54.815860" lon="20.690430"><ele>21.8</ele><time>2025-12-08T10:26:47Z</time></trkpt>
			<trkpt lat="54.818270" lon="20.691860"><ele>19.8</ele><time>2025-12-08T10:26:54Z</time></trkpt>
			<trkpt lat="54.821550" lon="20.694830"><ele>19.7</ele><time>2025-12-08T10:27:00Z</time></trkpt>
			<trkpt lat="54.823660" lon="20.696770"><ele>17.2</ele><time>2025-12-08T10:27:07Z</time></trkpt>
			<trkpt lat="54.824170" lon="20.697260"><ele>16.7</ele><time>2025-12-08T10:27:13Z</time></trkpt>
			<trkpt lat="54.824910" lon="20.697620"><ele>16.1</ele><time>2025-12-08T10:27:20Z</time></trkpt>
			<trkpt lat="54.825710" lon="20.698030"><ele>14.8</ele><time>2025-12-08T10:27:26Z</time></trkpt>
			<trkpt lat="54.825950" lon="20.698180"><ele>14.5</ele><time>2025-12-08T10:27:33Z</time></trkpt>
			<trkpt lat="54.827410" lon="20.699170"><ele>13.2</ele><time>2025-12-08T10:27:40Z</time></trkpt>
			<trkpt lat="54.828750" lon="20.700010"><ele>12.7</ele><time>2025-12-08T10:27:46Z</time></trkpt>
			<trkpt lat="54.829280" lon="20.700360"><ele>12.4</ele><time>2025-12-08T10:27:53Z</time></trkpt>
			<trkpt lat="54.829780" lon="20.700750"><ele>12.2</ele><time>2025-12-08T10:27:59Z</time></trkpt>
			<trkpt lat="54.830250" lon="20.701210"><ele>12.4</ele><time>2025-12-08T10:28:06Z</time></trkpt>
			<trkpt lat="54.830840" lon="20.701690"><ele>12.8</ele><time>2025-12-08T10:28:13Z</time></trkpt>
			<trkpt lat="54.831720" lon="20.702370"><ele>13.3</ele><time>2025-12-08T10:28:19Z</time></trkpt>
			<trkpt lat="54.832390" lon="20.702800"><ele>13.6</ele><time>2025-12-08T10:28:26Z</time></trkpt>
			<trkpt lat="54.833400" lon="20.703400"><ele>13.9</ele><time>2025-12-08T10:28:32Z</time></trkpt>
			<trkpt lat="54.834030" lon="20.703650"><ele>13.9</ele><time>2025-12-08T10:28:39Z</time></trkpt>
			<trkpt lat="54.835030" lon="20.704010"><ele>13.8</ele><time>2025-12-08T10:28:45Z</time></trkpt>
			<trkpt lat="54.837010" lon="20.704760"><ele>13.5</ele><time>2025-12-08T10:28:52Z</time></trkpt>
			<trkpt lat="54.839110" lon="20.705630"><ele>13.0</ele><time>2025-12-08T10:28:59Z</time></trkpt>
			<trkpt lat="54.839730" lon="20.705910"><ele>12.9</ele><time>2025-12-08T10:29:05Z</time></trkpt>
			<trkpt lat="54.839660" lon="20.705290"><ele>12.9</ele><time>2025-12-08T10:29:12Z</time></trkpt>
			<trkpt lat="54.839490" lon="20.704630"><ele>12.8</ele><time>2025-12-08T10:29:18Z</time></trkpt>
			<trkpt lat="54.839490" lon="20.704630"><ele>12.8</ele><time>2025-12-08T10:29:29Z</time></trkpt>
			<trkpt lat="54.837070" lon="20.694710"><ele>13.5</ele><time>2025-12-08T10:29:40Z</time></trkpt>
			<trkpt lat="54.833740" lon="20.681280"><ele>19.9</ele><time>2025-12-08T10:29:50Z</time></trkpt>
			<trkpt lat="54.830950" lon="20.670020"><ele>23.9</ele><time>2025-12-08T10:30:01Z</time></trkpt>
			<trkpt lat="54.828540" lon="20.663420"><ele>20.9</ele><time>2025-12-08T10:30:12Z</time></trkpt>
			<trkpt lat="54.828080" lon="20.662360"><ele>20.4</ele><time>2025-12-08T10:30:22Z</time></trkpt>
			<trkpt lat="54.827820" lon="20.661770"><ele>19.8</ele><time>2025-12-08T10:30:33Z</time></trkpt>
			<trkpt lat="54.827610" lon="20.661410"><ele>19.4</ele><time>2025-12-08T10:30:44Z</time></trkpt>
			<trkpt lat="54.827330" lon="20.661120"><ele>18.9</ele><time>2025-12-08T10:30:54Z</time></trkpt>
			<trkpt lat="54.825690" lon="20.659410"><ele>17.8</ele><time>2025-12-08T10:31:05Z</time></trkpt>
			<trkpt lat="54.825300" lon="20.659000"><ele>17.7</ele><time>2025-12-08T10:31:16Z</time></trkpt>
			<trkpt lat="54.824980" lon="20.658660"><ele>17.8</ele><time>2025-12-08T10:31:26Z</time></trkpt>
			<trkpt lat="54.824560" lon="20.658160"><ele>17.9</ele><time>2025-12-08T10:31:37Z</time></trkpt>
			<trkpt lat="54.824430" lon="20.657970"><ele>17.9</ele><time>2025-12-08T10:31:48Z</time></trkpt>
			<trkpt lat="54.824320" lon="20.657710"><ele>18.0</ele><time>2025-12-08T10:31:58Z</time></trkpt>
			<trkpt lat="54.824230" lon="20.657300"><ele>18.0</ele><time>2025-12-08T10:32:09Z</time></trkpt>
			<trkpt lat="54.824080" lon="20.656560"><ele>18.2</ele><time>2025-12-08T10:32:20Z</time></trkpt>
			<trkpt lat="54.824060" lon="20.655350"><ele>18.8</ele><time>2025-12-08T10:32:30Z</time></trkpt>
			<trkpt lat="54.823910" lon="20.646430"><ele>27.4</ele><time>2025-12-08T10:32:41Z</time></trkpt>
			<trkpt lat="54.823550" lon="20.643400"><ele>29.9</ele><time>2025-12-08T10:32:52Z</time></trkpt>
			<trkpt lat="54.823540" lon="20.643320"><ele>29.9</ele><time>2025-12-08T10:33:02Z</time></trkpt>
			<trkpt lat="54.822840" lon="20.637370"><ele>27.6</ele><time>2025-12-08T10:33:13Z</time></trkpt>
			<trkpt lat="54.822810" lon="20.637120"><ele>27.6</ele><time>2025-12-08T10:33:24Z</time></trkpt>
			<trkpt lat="54.824360" lon="20.636780"><ele>27.0</ele><time>2025-12-08T10:33:34Z</time></trkpt>
			<trkpt lat="54.824520" lon="20.636700"><ele>27.1</ele><time>2025-12-08T10:33:45Z</time></trkpt>
			<trkpt lat="54.824680" lon="20.636590"><ele>27.2</ele><time>2025-12-08T10:33:56Z</time></trkpt>
			<trkpt lat="54.825280" lon="20.636090"><ele>27.5</ele><time>2025-12-08T10:34:06Z</time></trkpt>
			<trkpt lat="54.825600" lon="20.635800"><ele>27.6</ele><time>2025-12-08T10:34:17Z</time></trkpt>
			<trkpt lat="54.825600" lon="20.635800"><ele>27.6</ele><time>2025-12-08T10:34:23Z</time></trkpt>
			<trkpt lat="54.826470" lon="20.635030"><ele>27.4</ele><time>2025-12-08T10:34:29Z</time></trkpt>
			<trkpt lat="54.827930" lon="20.633810"><ele>26.3</ele><time>2025-12-08T10:34:34Z</time></trkpt>
			<trkpt lat="54.828890" lon="20.633010"><ele>25.3</ele><time>2025-12-08T10:34:40Z</time></trkpt>
			<trkpt lat="54.829890" lon="20.632160"><ele>26.2</ele><time>2025-12-08T10:34:46Z</time></trkpt>
			<trkpt lat="54.830300" lon="20.631800"><ele>26.6</ele><time>2025-12-08T10:34:52Z</time></trkpt>
			<trkpt lat="54.831260" lon="20.630940"><ele>24.7</ele><time>2025-12-08T10:34:58Z</time></trkpt>
			<trkpt lat="54.831530" lon="20.630780"><ele>24.0</ele><time>2025-12-08T10:35:04Z</time></trkpt>
			<trkpt lat="54.831760" lon="20.630680"><ele>23.5</ele><time>2025-12-08T10:35:09Z</time></trkpt>
			<trkpt lat="54.832010" lon="20.630610"><ele>22.8</ele><time>2025-12-08T10:35:15Z</time></trkpt>
			<trkpt lat="54.832240" lon="20.630590"><ele>22.5</ele><time>2025-12-08T10:35:21Z</time></trkpt>
			<trkpt lat="54.832430" lon="20.630610"><ele>22.8</ele><time>2025-12-08T10:35:27Z</time></trkpt>
			<trkpt lat="54.832580" lon="20.630640"><ele>23.0</ele><time>2025-12-08T10:35:33Z</time></trkpt>
			<trkpt lat="54.832730" lon="20.630690"><ele>23.3</ele><time>2025-12-08T10:35:39Z</time></trkpt>
			<trkpt lat="54.832930" lon="20.630800"><ele>23.6</ele><time>2025-12-08T10:35:44Z</time></trkpt>
			<trkpt lat="54.833380" lon="20.631150"><ele>24.4</ele><time>2025-12-08T10:35:50Z</time></trkpt>
			<trkpt lat="54.834190" lon="20.631780"><ele>24.6</ele><time>2025-12-08T10:35:56Z</time></trkpt>
			<trkpt lat="54.834760" lon="20.632200"><ele>23.2</ele><time>2025-12-08T10:36:02Z</time></trkpt>
			<trkpt lat="54.835490" lon="20.632730"><ele>21.5</ele><time>2025-12-08T10:36:08Z</time></trkpt>
			<trkpt lat="54.837420" lon="20.634060"><ele>20.9</ele><time>2025-12-08T10:36:14Z</time></trkpt>
			<trkpt lat="54.837600" lon="20.634130"><ele>21.1</ele><time>2025-12-08T10:36:19Z</time></trkpt>
			<trkpt lat="54.837810" lon="20.634130"><ele>21.3</ele><time>2025-12-08T10:36:25Z</time></trkpt>
			<trkpt lat="54.840370" lon="20.633380"><ele>22.7</ele><time>2025-12-08T10:36:31Z</time></trkpt>
			<trkpt lat="54.841160" lon="20.633130"><ele>21.6</ele><time>2025-12-08T10:36:37Z</time></trkpt>
			<trkpt lat="54.841940" lon="20.633030"><ele>19.5</ele><time>2025-12-08T10:36:43Z</time></trkpt>
			<trkpt lat="54.844050" lon="20.632680"><ele>22.2</ele><time>2025-12-08T10:36:49Z</time></trkpt>
			<trkpt lat="54.844740" lon="20.632690"><ele>22.4</ele><time>2025-12-08T10:36:54Z</time></trkpt>
			<trkpt lat="54.845090" lon="20.632770"><ele>21.7</ele><time>2025-12-08T10:37:00Z</time></trkpt>
			<trkpt lat="54.845520" lon="20.633170"><ele>20.7</ele><time>2025-12-08T10:37:06Z</time></trkpt>
			<trkpt lat="54.845660" lon="20.633300"><ele>20.3</ele><time>2025-12-08T10:37:12Z</time></trkpt>
			<trkpt lat="54.845990" lon="20.633520"><ele>19.6</ele><time>2025-12-08T10:37:18Z</time></trkpt>
			<trkpt lat="54.846320" lon="20.633610"><ele>19.5</ele><time>2025-12-08T10:37:24Z</time></trkpt>
			<trkpt lat="54.846520" lon="20.633600"><ele>19.6</ele><time>2025-12-08T10:37:29Z</time></trkpt>
			<trkpt lat="54.848260" lon="20.633370"><ele>20.3</ele><time>2025-12-08T10:37:35Z</time></trkpt>
			<trkpt lat="54.848390" lon="20.633380"><ele>20.4</ele><time>2025-12-08T10:37:41Z</time></trkpt>
			<trkpt lat="54.848500" lon="20.633400"><ele>20.4</ele><time>2025-12-08T10:37:47Z</time></trkpt>
			<trkpt lat="54.848600" lon="20.633440"><ele>20.5</ele><time>2025-12-08T10:37:53Z</time></trkpt>
			<trkpt lat="54.848680" lon="20.633510"><ele>20.6</ele><time>2025-12-08T10:37:58Z</time></trkpt>
			<trkpt lat="54.848800" lon="20.633660"><ele>20.7</ele><time>2025-12-08T10:38:04Z</time></trkpt>
			<trkpt lat="54.850720" lon="20.636210"><ele>18.1</ele><time>2025-12-08T10:38:10Z</time></trkpt>
			<trkpt lat="54.865500" lon="20.656030"><ele>11.0</ele><time>2025-12-08T10:38:16Z</time></trkpt>
			<trkpt lat="54.865990" lon="20.654410"><ele>10.9</ele><time>2025-12-08T10:38:22Z</time></trkpt>
			<trkpt lat="54.865990" lon="20.654410"><ele>10.9</ele><time>2025-12-08T10:38:27Z</time></trkpt>
			<trkpt lat="54.866890" lon="20.651410"><ele>12.4</ele><time>2025-12-08T10:38:33Z</time></trkpt>
			<trkpt lat="54.867110" lon="20.650470"><ele>13.3</ele><time>2025-12-08T10:38:38Z</time></trkpt>
			<trkpt lat="54.867210" lon="20.649760"><ele>14.1</ele><time>2025-12-08T10:38:43Z</time></trkpt>
			<trkpt lat="54.867280" lon="20.649110"><ele>14.8</ele><time>2025-12-08T10:38:49Z</time></trkpt>
			<trkpt lat="54.867240" lon="20.648140"><ele>15.9</ele><time>2025-12-08T10:38:54Z</time></trkpt>
			<trkpt lat="54.867130" lon="20.647060"><ele>15.3</ele><time>2025-12-08T10:38:59Z</time></trkpt>
			<trkpt lat="54.866130" lon="20.638450"><ele>14.1</ele><time>2025-12-08T10:39:05Z</time></trkpt>
			<trkpt lat="54.866060" lon="20.635160"><ele>12.0</ele><time>2025-12-08T10:39:10Z</time></trkpt>
			<trkpt lat="54.866030" lon="20.632470"><ele>10.1</ele><time>2025-12-08T10:39:15Z</time></trkpt>
			<trkpt lat="54.865730" lon="20.626780"><ele>15.6</ele><time>2025-12-08T10:39:21Z</time></trkpt>
			<trkpt lat="54.865560" lon="20.623340"><ele>15.1</ele><time>2025-12-08T10:39:26Z</time></trkpt>
			<trkpt lat="54.865500" lon="20.621470"><ele>15.8</ele><time>2025-12-08T10:39:31Z</time></trkpt>
			<trkpt lat="54.865440" lon="20.618870"><ele>16.9</ele><time>2025-12-08T10:39:37Z</time></trkpt>
			<trkpt lat="54.865410" lon="20.617810"><ele>17.3</ele><time>2025-12-08T10:39:42Z</time></trkpt>
			<trkpt lat="54.865380" lon="20.616390"><ele>17.7</ele><time>2025-12-08T10:39:48Z</time></trkpt>
			<trkpt lat="54.865370" lon="20.616060"><ele>17.7</ele><time>2025-12-08T10:39:53Z</time></trkpt>
			<trkpt lat="54.865410" lon="20.615450"><ele>17.7</ele><time>2025-12-08T10:39:58Z</time></trkpt>
			<trkpt lat="54.865460" lon="20.614970"><ele>17.7</ele><time>2025-12-08T10:40:04Z</time></trkpt>
			<trkpt lat="54.865740" lon="20.613470"><ele>17.6</ele><time>2025-12-08T10:40:09Z</time></trkpt>
			<trkpt lat="54.866470" lon="20.609790"><ele>16.3</ele><time>2025-12-08T10:40:14Z</time></trkpt>
			<trkpt lat="54.866570" lon="20.608930"><ele>16.2</ele><time>2025-12-08T10:40:20Z</time></trkpt>
			<trkpt lat="54.866770" lon="20.605130"><ele>16.0</ele><time>2025-12-08T10:40:25Z</time></trkpt>
			<trkpt lat="54.866680" lon="20.604660"><ele>16.0</ele><time>2025-12-08T10:40:30Z</time></trkpt>
			<trkpt lat="54.866600" lon="20.604470"><ele>16.0</ele><time>2025-12-08T10:40:36Z</time></trkpt>
			<trkpt lat="54.866410" lon="20.604230"><ele>16.1</ele><time>2025-12-08T10:40:41Z</time></trkpt>
			<trkpt lat="54.864760" lon="20.602590"><ele>16.3</ele><time>2025-12-08T10:40:47Z</time></trkpt>
			<trkpt lat="54.864490" lon="20.602330"><ele>16.3</ele><time>2025-12-08T10:40:52Z</time></trkpt>
			<trkpt lat="54.862720" lon="20.600640"><ele>16.3</ele><time>2025-12-08T10:40:57Z</time></trkpt>
			<trkpt lat="54.861670" lon="20.599640"><ele>16.5</ele><time>2025-12-08T10:41:03Z</time></trkpt>
			<trkpt lat="54.861130" lon="20.598890"><ele>16.7</ele><time>2025-12-08T10:41:08Z</time></trkpt>
			<trkpt lat="54.860950" lon="20.598590"><ele>16.8</ele><time>2025-12-08T10:41:13Z</time></trkpt>
			<trkpt lat="54.860360" lon="20.597140"><ele>16.8</ele><time>2025-12-08T10:41:19Z</time></trkpt>
			<trkpt lat="54.859880" lon="20.595930"><ele>16.7</ele><time>2025-12-08T10:41:24Z</time></trkpt>
			<trkpt lat="54.859520" lon="20.595040"><ele>16.5</ele><time>2025-12-08T10:41:29Z</time></trkpt>
			<trkpt lat="54.859410" lon="20.594630"><ele>16.4</ele><time>2025-12-08T10:41:35Z</time></trkpt>
			<trkpt lat="54.859350" lon="20.594340"><ele>16.3</ele><time>2025-12-08T10:41:40Z</time></trkpt>
			<trkpt lat="54.859320" lon="20.594130"><ele>16.2</ele><time>2025-12-08T10:41:45Z</time></trkpt>
			<trkpt lat="54.859370" lon="20.593670"><ele>16.1</ele><time>2025-12-08T10:41:51Z</time></trkpt>
			<trkpt lat="54.859690" lon="20.592580"><ele>15.8</ele><time>2025-12-08T10:41:56Z</time></trkpt>
			<trkpt lat="54.860060" lon="20.591100"><ele>15.8</ele><time>2025-12-08T10:42:02Z</time></trkpt>
			<trkpt lat="54.860110" lon="20.590640"><ele>15.8</ele><time>2025-12-08T10:42:07Z</time></trkpt>
			<trkpt lat="54.860150" lon="20.589550"><ele>15.8</ele><time>2025-12-08T10:42:12Z</time></trkpt>
			<trkpt lat="54.860130" lon="20.589120"><ele>16.3</ele><time>2025-12-08T10:42:18Z</time></trkpt>
			<trkpt lat="54.860070" lon="20.588910"><ele>16.5</ele><time>2025-12-08T10:42:23Z</time></trkpt>
			<trkpt lat="54.859770" lon="20.588160"><ele>17.5</ele><time>2025-12-08T10:42:28Z</time></trkpt>
			<trkpt lat="54.859710" lon="20.588040"><ele>17.7</ele><time>2025-12-08T10:42:34Z</time></trkpt>
			<trkpt lat="54.859650" lon="20.587930"><ele>17.9</ele><time>2025-12-08T10:42:39Z</time></trkpt>
			<trkpt lat="54.859560" lon="20.587850"><ele>18.1</ele><time>2025-12-08T10:42:44Z</time></trkpt>
			<trkpt lat="54.859070" lon="20.587630"><ele>19.0</ele><time>2025-12-08T10:42:50Z</time></trkpt>
			<trkpt lat="54.858960" lon="20.587540"><ele>19.3</ele><time>2025-12-08T10:42:55Z</time></trkpt>
			<trkpt lat="54.858830" lon="20.587330"><ele>19.4</ele><time>2025-12-08T10:43:00Z</time></trkpt>
			<trkpt lat="54.858740" lon="20.586740"><ele>19.8</ele><time>2025-12-08T10:43:06Z</time></trkpt>
			<trkpt lat="54.858630" lon="20.584710"><ele>20.9</ele><time>2025-12-08T10:43:11Z</time></trkpt>
			<trkpt lat="54.858630" lon="20.584180"><ele>21.1</ele><time>2025-12-08T10:43:17Z</time></trkpt>
			<trkpt lat="54.858670" lon="20.583820"><ele>21.2</ele><time>2025-12-08T10:43:22Z</time></trkpt>
			<trkpt lat="54.858730" lon="20.583590"><ele>21.3</ele><time>2025-12-08T10:43:27Z</time></trkpt>
			<trkpt lat="54.858800" lon="20.583380"><ele>21.3</ele><time>2025-12-08T10:43:33Z</time></trkpt>
			<trkpt lat="54.859180" lon="20.582520"><ele>21.7</ele><time>2025-12-08T10:43:38Z</time></trkpt>
			<trkpt lat="54.859340" lon="20.582100"><ele>21.8</ele><time>2025-12-08T10:43:43Z</time></trkpt>
			<trkpt lat="54.860530" lon="20.579350"><ele>19.8</ele><time>2025-12-08T10:43:49Z</time></trkpt>
			<trkpt lat="54.860920" lon="20.578480"><ele>20.2</ele><time>2025-12-08T10:43:54Z</time></trkpt>
			<trkpt lat="54.860970" lon="20.578350"><ele>20.3</ele><time>2025-12-08T10:43:59Z</time></trkpt>
			<trkpt lat="54.859870" lon="20.577150"><ele>20.8</ele><time>2025-12-08T10:44:05Z</time></trkpt>
			<trkpt lat="54.859460" lon="20.576680"><ele>20.5</ele><time>2025-12-08T10:44:10Z</time></trkpt>
			<trkpt lat="54.859030" lon="20.576210"><ele>20.2</ele><time>2025-12-08T10:44:16Z</time></trkpt>
			<trkpt lat="54.858870" lon="20.576000"><ele>20.1</ele><time>2025-12-08T10:44:21Z</time></trkpt>
			<trkpt lat="54.858750" lon="20.575760"><ele>20.0</ele><time>2025-12-08T10:44:26Z</time></trkpt>
			<trkpt lat="54.858700" lon="20.575690"><ele>19.9</ele><time>2025-12-08T10:44:32Z</time></trkpt>
			<trkpt lat="54.858620" lon="20.575510"><ele>19.9</ele><time>2025-12-08T10:44:37Z</time></trkpt>
			<trkpt lat="54.858270" lon="20.574660"><ele>19.3</ele><time>2025-12-08T10:44:42Z</time></trkpt>
			<trkpt lat="54.858120" lon="20.574280"><ele>19.0</ele><time>2025-12-08T10:44:48Z</time></trkpt>
			<trkpt lat="54.858070" lon="20.574120"><ele>18.9</ele><time>2025-12-08T10:44:53Z</time></trkpt>
			<trkpt lat="54.858030" lon="20.573930"><ele>18.8</ele><time>2025-12-08T10:44:58Z</time></trkpt>
			<trkpt lat="54.857960" lon="20.573570"><ele>18.5</ele><time>2025-12-08T10:45:04Z</time></trkpt>
			<trkpt lat="54.857700" lon="20.572020"><ele>18.5</ele><time>2025-12-08T10:45:09Z</time></trkpt>
			<trkpt lat="54.857430" lon="20.570430"><ele>19.5</ele><time>2025-12-08T10:45:14Z</time></trkpt>
			<trkpt lat="54.857220" lon="20.569390"><ele>19.8</ele><time>2025-12-08T10:45:20Z</time></trkpt>
			<trkpt lat="54.857140" lon="20.569020"><ele>19.7</ele><time>2025-12-08T10:45:25Z</time></trkpt>
			<trkpt lat="54.857040" lon="20.568660"><ele>19.6</ele><time>2025-12-08T10:45:31Z</time></trkpt>
			<trkpt lat="54.856890" lon="20.568240"><ele>19.4</ele><time>2025-12-08T10:45:36Z</time></trkpt>
			<trkpt lat="54.856760" lon="20.567930"><ele>19.3</ele><time>2025-12-08T10:45:41Z</time></trkpt>
			<trkpt lat="54.855770" lon="20.565570"><ele>19.1</ele><time>2025-12-08T10:45:47Z</time></trkpt>
			<trkpt lat="54.855510" lon="20.565000"><ele>19.2</ele><time>2025-12-08T10:45:52Z</time></trkpt>
			<trkpt lat="54.855310" lon="20.564480"><ele>19.2</ele><time>2025-12-08T10:45:57Z</time></trkpt>
			<trkpt lat="54.855160" lon="20.564040"><ele>19.4</ele><time>2025-12-08T10:46:03Z</time></trkpt>
			<trkpt lat="54.855070" lon="20.563650"><ele>19.6</ele><time>2025-12-08T10:46:08Z</time></trkpt>
			<trkpt lat="54.854700" lon="20.561490"><ele>20.3</ele><time>2025-12-08T10:46:13Z</time></trkpt>
			<trkpt lat="54.854820" lon="20.560910"><ele>20.2</ele><time>2025-12-08T10:46:19Z</time></trkpt>
			<trkpt lat="54.854860" lon="20.558980"><ele>20.1</ele><time>2025-12-08T10:46:24Z</time></trkpt>
			<trkpt lat="54.854912" lon="20.558176"><ele>19.9</ele><time>2025-12-08T10:47:29Z</time></trkpt>
			<trkpt lat="54.854920" lon="20.558150"><ele>19.9</ele><time>2025-12-08T10:47:36Z</time></trkpt>
			<trkpt lat="54.855380" lon="20.558440"><ele>19.5</ele><time>2025-12-08T10:47:43Z</time></trkpt>
			<trkpt lat="54.856130" lon="20.558830"><ele>18.9</ele><time>2025-12-08T10:47:50Z</time></trkpt>
			<trkpt lat="54.858890" lon="20.560180"><ele>17.5</ele><time>2025-12-08T10:47:57Z</time></trkpt>
			<trkpt lat="54.858890" lon="20.560180"><ele>17.5</ele><time>2025-12-08T10:48:03Z</time></trkpt>
			<trkpt lat="54.859610" lon="20.560540"><ele>18.0</ele><time>2025-12-08T10:48:09Z</time></trkpt>
			<trkpt lat="54.863780" lon="20.562510"><ele>17.6</ele><time>2025-12-08T10:48:15Z</time></trkpt>
			<trkpt lat="54.864350" lon="20.562800"><ele>17.2</ele><time>2025-12-08T10:48:21Z</time></trkpt>
			<trkpt lat="54.864410" lon="20.562830"><ele>17.1</ele><time>2025-12-08T10:48:27Z</time></trkpt>
			<trkpt lat="54.865780" lon="20.563510"><ele>15.4</ele><time>2025-12-08T10:48:33Z</time></trkpt>
			<trkpt lat="54.866340" lon="20.563810"><ele>14.4</ele><time>2025-12-08T10:48:39Z</time></trkpt>
			<trkpt lat="54.868700" lon="20.565210"><ele>16.2</ele><time>2025-12-08T10:48:45Z</time></trkpt>
			<trkpt lat="54.869300" lon="20.565560"><ele>16.5</ele><time>2025-12-08T10:48:52Z</time></trkpt>
			<trkpt lat="54.869450" lon="20.565610"><ele>16.5</ele><time>2025-12-08T10:48:58Z</time></trkpt>
			<trkpt lat="54.869640" lon="20.565620"><ele>16.6</ele><time>2025-12-08T10:49:04Z</time></trkpt>
			<trkpt lat="54.870080" lon="20.565590"><ele>16.8</ele><time>2025-12-08T10:49:10Z</time></trkpt>
			<trkpt lat="54.871970" lon="20.565530"><ele>17.3</ele><time>2025-12-08T10:49:16Z</time></trkpt>
			<trkpt lat="54.882630" lon="20.565050"><ele>8.7</ele><time>2025-12-08T10:49:22Z</time></trkpt>
			<trkpt lat="54.884400" lon="20.564940"><ele>9.9</ele><time>2025-12-08T10:49:28Z</time></trkpt>
			<trkpt lat="54.886160" lon="20.564870"><ele>9.3</ele><time>2025-12-08T10:49:34Z</time></trkpt>
			<trkpt lat="54.886520" lon="20.564880"><ele>9.0</ele><time>2025-12-08T10:49:40Z</time></trkpt>
			<trkpt lat="54.886860" lon="20.564930"><ele>9.0</ele><time>2025-12-08T10:49:46Z</time></trkpt>
			<trkpt lat="54.887260" lon="20.565020"><ele>9.1</ele><time>2025-12-08T10:49:52Z</time></trkpt>
			<trkpt lat="54.887580" lon="20.565150"><ele>9.2</ele><time>2025-12-08T10:49:58Z</time></trkpt>
			<trkpt lat="54.888010" lon="20.565360"><ele>9.2</ele><time>2025-12-08T10:50:04Z</time></trkpt>
			<trkpt lat="54.888220" lon="20.565500"><ele>9.3</ele><time>2025-12-08T10:50:10Z</time></trkpt>
			<trkpt lat="54.888520" lon="20.565710"><ele>9.6</ele><time>2025-12-08T10:50:16Z</time></trkpt>
			<trkpt lat="54.888900" lon="20.566050"><ele>10.2</ele><time>2025-12-08T10:50:22Z</time></trkpt>
			<trkpt lat="54.889060" lon="20.566220"><ele>10.5</ele><time>2025-12-08T10:50:28Z</time></trkpt>
			<trkpt lat="54.889410" lon="20.566610"><ele>11.1</ele><time>2025-12-08T10:50:34Z</time></trkpt>
			<trkpt lat="54.889610" lon="20.566860"><ele>11.4</ele><time>2025-12-08T10:50:40Z</time></trkpt>
			<trkpt lat="54.889790" lon="20.567120"><ele>11.8</ele><time>2025-12-08T10:50:46Z</time></trkpt>
			<trkpt lat="54.889950" lon="20.567380"><ele>11.7</ele><time>2025-12-08T10:50:52Z</time></trkpt>
			<trkpt lat="54.890080" lon="20.567600"><ele>11.3</ele><time>2025-12-08T10:50:58Z</time></trkpt>
			<trkpt lat="54.890130" lon="20.567690"><ele>11.2</ele><time>2025-12-08T10:51:04Z</time></trkpt>
			<trkpt lat="54.890260" lon="20.567920"><ele>10.9</ele><time>2025-12-08T10:51:10Z</time></trkpt>
			<trkpt lat="54.890770" lon="20.568910"><ele>9.5</ele><time>2025-12-08T10:51:17Z</time></trkpt>
			<trkpt lat="54.892010" lon="20.571350"><ele>8.9</ele><time>2025-12-08T10:51:23Z</time></trkpt>
			<trkpt lat="54.892300" lon="20.571920"><ele>9.0</ele><time>2025-12-08T10:51:29Z</time></trkpt>
			<trkpt lat="54.892590" lon="20.572530"><ele>8.7</ele><time>2025-12-08T10:51:35Z</time></trkpt>
			<trkpt lat="54.892870" lon="20.573170"><ele>8.4</ele><time>2025-12-08T10:51:41Z</time></trkpt>
			<trkpt lat="54.893160" lon="20.573820"><ele>8.1</ele><time>2025-12-08T10:51:47Z</time></trkpt>
			<trkpt lat="54.893470" lon="20.574560"><ele>7.8</ele><time>2025-12-08T10:51:53Z</time></trkpt>
			<trkpt lat="54.893930" lon="20.575730"><ele>7.4</ele><time>2025-12-08T10:51:59Z</time></trkpt>
			<trkpt lat="54.894380" lon="20.576930"><ele>7.0</ele><time>2025-12-08T10:52:05Z</time></trkpt>
			<trkpt lat="54.894630" lon="20.577630"><ele>7.6</ele><time>2025-12-08T10:52:11Z</time></trkpt>
			<trkpt lat="54.894850" lon="20.578300"><ele>8.1</ele><time>2025-12-08T10:52:17Z</time></trkpt>
			<trkpt lat="54.895140" lon="20.579190"><ele>8.8</ele><time>2025-12-08T10:52:23Z</time></trkpt>
			<trkpt lat="54.895660" lon="20.580970"><ele>8.7</ele><time>2025-12-08T10:52:29Z</time></trkpt>
			<trkpt lat="54.896150" lon="20.582650"><ele>8.0</ele><time>2025-12-08T10:52:35Z</time></trkpt>
			<trkpt lat="54.896300" lon="20.583210"><ele>7.9</ele><time>2025-12-08T10:52:41Z</time></trkpt>
			<trkpt lat="54.896380" lon="20.583490"><ele>7.9</ele><time>2025-12-08T10:52:47Z</time></trkpt>
			<trkpt lat="54.896760" lon="20.584720"><ele>7.7</ele><time>2025-12-08T10:52:53Z</time></trkpt>
			<trkpt lat="54.897510" lon="20.587380"><ele>7.5</ele><time>2025-12-08T10:52:59Z</time></trkpt>
			<trkpt lat="54.898360" lon="20.590510"><ele>8.6</ele><time>2025-12-08T10:53:05Z</time></trkpt>
			<trkpt lat="54.898730" lon="20.591990"><ele>8.5</ele><time>2025-12-08T10:53:11Z</time></trkpt>
			<trkpt lat="54.898990" lon="20.592880"><ele>8.3</ele><time>2025-12-08T10:53:17Z</time></trkpt>
			<trkpt lat="54.899240" lon="20.593630"><ele>8.1</ele><time>2025-12-08T10:53:23Z</time></trkpt>
			<trkpt lat="54.899510" lon="20.594230"><ele>8.0</ele><time>2025-12-08T10:53:29Z</time></trkpt>
			<trkpt lat="54.900410" lon="20.596380"><ele>7.7</ele><time>2025-12-08T10:53:35Z</time></trkpt>
			<trkpt lat="54.900490" lon="20.596620"><ele>7.8</ele><time>2025-12-08T10:53:41Z</time></trkpt>
			<trkpt lat="54.900610" lon="20.596900"><ele>7.8</ele><time>2025-12-08T10:53:48Z</time></trkpt>
			<trkpt lat="54.904050" lon="20.594770"><ele>6.8</ele><time>2025-12-08T10:53:54Z</time></trkpt>
			<trkpt lat="54.904210" lon="20.594670"><ele>6.7</ele><time>2025-12-08T10:54:00Z</time></trkpt>
			<trkpt lat="54.906670" lon="20.593100"><ele>4.6</ele><time>2025-12-08T10:54:06Z</time></trkpt>
			<trkpt lat="54.908020" lon="20.592080"><ele>4.7</ele><time>2025-12-08T10:54:12Z</time></trkpt>
			<trkpt lat="54.908460" lon="20.591720"><ele>4.9</ele><time>2025-12-08T10:54:18Z</time></trkpt>
			<trkpt lat="54.908690" lon="20.591510"><ele>4.9</ele><time>2025-12-08T10:54:24Z</time></trkpt>
			<trkpt lat="54.908920" lon="20.591400"><ele>4.7</ele><time>2025-12-08T10:54:30Z</time></trkpt>
			<trkpt lat="54.909230" lon="20.591320"><ele>4.5</ele><time>2025-12-08T10:54:36Z</time></trkpt>
			<trkpt lat="54.909690" lon="20.591260"><ele>4.1</ele><time>2025-12-08T10:54:42Z</time></trkpt>
			<trkpt lat="54.912520" lon="20.590970"><ele>1.1</ele><time>2025-12-08T10:54:48Z</time></trkpt>
			<trkpt lat="54.912480" lon="20.589970"><ele>1.2</ele><time>2025-12-08T10:54:54Z</time></trkpt>
			<trkpt lat="54.912480" lon="20.589740"><ele>1.3</ele><time>2025-12-08T10:55:00Z</time></trkpt>
			<trkpt lat="54.912510" lon="20.589480"><ele>1.3</ele><time>2025-12-08T10:55:06Z</time></trkpt>
			<trkpt lat="54.912560" lon="20.589290"><ele>1.3</ele><time>2025-12-08T10:55:12Z</time></trkpt>
			<trkpt lat="54.912620" lon="20.589140"><ele>1.3</ele><time>2025-12-08T10:55:18Z</time></trkpt>
			<trkpt lat="54.913330" lon="20.587260"><ele>0.9</ele><time>2025-12-08T10:55:24Z</time></trkpt>
			<trkpt lat="54.913330" lon="20.587260"><ele>0.9</ele><time>2025-12-08T10:55:30Z</time></trkpt>
			<trkpt lat="54.913500" lon="20.586800"><ele>0.8</ele><time>2025-12-08T10:55:36Z</time></trkpt>
			<trkpt lat="54.913530" lon="20.586720"><ele>0.7</ele><time>2025-12-08T10:55:42Z</time></trkpt>
			<trkpt lat="54.913580" lon="20.586560"><ele>0.7</ele><time>2025-12-08T10:55:48Z</time></trkpt>
			<trkpt lat="54.913880" lon="20.585490"><ele>0.7</ele><time>2025-12-08T10:55:54Z</time></trkpt>
			<trkpt lat="54.914050" lon="20.584900"><ele>1.0</ele><time>2025-12-08T10:56:00Z</time></trkpt>
			<trkpt lat="54.914340" lon="20.583950"><ele>1.5</ele><time>2025-12-08T10:56:06Z</time></trkpt>
			<trkpt lat="54.914510" lon="20.583420"><ele>1.8</ele><time>2025-12-08T10:56:12Z</time></trkpt>
			<trkpt lat="54.914930" lon="20.582120"><ele>1.7</ele><time>2025-12-08T10:56:18Z</time></trkpt>
			<trkpt lat="54.915310" lon="20.580930"><ele>1.4</ele><time>2025-12-08T10:56:24Z</time></trkpt>
			<trkpt lat="54.915580" lon="20.580310"><ele>1.4</ele><time>2025-12-08T10:56:30Z</time></trkpt>
			<trkpt lat="54.915730" lon="20.580110"><ele>1.5</ele><time>2025-12-08T10:56:36Z</time></trkpt>
			<trkpt lat="54.915880" lon="20.579990"><ele>1.5</ele><time>2025-12-08T10:56:42Z</time></trkpt>
			<trkpt lat="54.916020" lon="20.579930"><ele>1.6</ele><time>2025-12-08T10:56:48Z</time></trkpt>
			<trkpt lat="54.917310" lon="20.579450"><ele>2.2</ele><time>2025-12-08T10:56:54Z</time></trkpt>
			<trkpt lat="54.918410" lon="20.579200"><ele>0.9</ele><time>2025-12-08T10:57:00Z</time></trkpt>
			<trkpt lat="54.920200" lon="20.578870"><ele>0.3</ele><time>2025-12-08T10:57:06Z</time></trkpt>
			<trkpt lat="54.921440" lon="20.579030"><ele>0.8</ele><time>2025-12-08T10:57:12Z</time></trkpt>
			<trkpt lat="54.922310" lon="20.579230"><ele>1.4</ele><time>2025-12-08T10:57:18Z</time></trkpt>
			<trkpt lat="54.922740" lon="20.579420"><ele>1.5</ele><time>2025-12-08T10:57:24Z</time></trkpt>
			<trkpt lat="54.922880" lon="20.579470"><ele>1.4</ele><time>2025-12-08T10:57:30Z</time></trkpt>
			<trkpt lat="54.923000" lon="20.579450"><ele>1.3</ele><time>2025-12-08T10:57:36Z</time></trkpt>
			<trkpt lat="54.923120" lon="20.579370"><ele>1.2</ele><time>2025-12-08T10:57:42Z</time></trkpt>
			<trkpt lat="54.923230" lon="20.579260"><ele>1.0</ele><time>2025-12-08T10:57:49Z</time></trkpt>
			<trkpt lat="54.923330" lon="20.579090"><ele>0.9</ele><time>2025-12-08T10:57:55Z</time></trkpt>
			<trkpt lat="54.923420" lon="20.578920"><ele>0.8</ele><time>2025-12-08T10:58:01Z</time></trkpt>
			<trkpt lat="54.923470" lon="20.578670"><ele>0.7</ele><time>2025-12-08T10:58:07Z</time></trkpt>
			<trkpt lat="54.923510" lon="20.578320"><ele>0.5</ele><time>2025-12-08T10:58:13Z</time></trkpt>
			<trkpt lat="54.923570" lon="20.577000"><ele>0.1</ele><time>2025-12-08T10:58:19Z</time></trkpt>
			<trkpt lat="54.923460" lon="20.574030"><ele>0.6</ele><time>2025-12-08T10:58:25Z</time></trkpt>
			<trkpt lat="54.923460" lon="20.572610"><ele>0.5</ele><time>2025-12-08T10:58:31Z</time></trkpt>
			<trkpt lat="54.923470" lon="20.571170"><ele>0.5</ele><time>2025-12-08T10:58:37Z</time></trkpt>
			<trkpt lat="54.924290" lon="20.566280"><ele>-1.2</ele><time>2025-12-08T10:58:43Z</time></trkpt>
			<trkpt lat="54.924470" lon="20.565100"><ele>-1.9</ele><time>2025-12-08T10:58:49Z</time></trkpt>
			<trkpt lat="54.924760" lon="20.564460"><ele>-1.8</ele><time>2025-12-08T10:58:55Z</time></trkpt>
			<trkpt lat="54.925010" lon="20.563760"><ele>-1.7</ele><time>2025-12-08T10:59:01Z</time></trkpt>
			<trkpt lat="54.925470" lon="20.562190"><ele>-1.5</ele><time>2025-12-08T10:59:07Z</time></trkpt>
			<trkpt lat="54.925890" lon="20.560140"><ele>-1.4</ele><time>2025-12-08T10:59:13Z</time></trkpt>
			<trkpt lat="54.926110" lon="20.556410"><ele>0.8</ele><time>2025-12-08T10:59:19Z</time></trkpt>
			<trkpt lat="54.926970" lon="20.544400"><ele>1.9</ele><time>2025-12-08T10:59:25Z</time></trkpt>
			<trkpt lat="54.927000" lon="20.544230"><ele>1.9</ele><time>2025-12-08T10:59:31Z</time></trkpt>
			<trkpt lat="54.927030" lon="20.544130"><ele>1.9</ele><time>2025-12-08T10:59:37Z</time></trkpt>
			<trkpt lat="54.927070" lon="20.544020"><ele>1.9</ele><time>2025-12-08T10:59:43Z</time></trkpt>
			<trkpt lat="54.927120" lon="20.543920"><ele>1.9</ele><time>2025-12-08T10:59:49Z</time></trkpt>
			<trkpt lat="54.927180" lon="20.543840"><ele>1.8</ele><time>2025-12-08T10:59:55Z</time></trkpt>
			<trkpt lat="54.927330" lon="20.543670"><ele>1.8</ele><time>2025-12-08T11:00:01Z</time></trkpt>
			<trkpt lat="54.929410" lon="20.541530"><ele>0.9</ele><time>2025-12-08T11:00:07Z</time></trkpt>
			<trkpt lat="54.930260" lon="20.540670"><ele>0.7</ele><time>2025-12-08T11:00:13Z</time></trkpt>
			<trkpt lat="54.930420" lon="20.540530"><ele>0.7</ele><time>2025-12-08T11:00:19Z</time></trkpt>
			<trkpt lat="54.930510" lon="20.540490"><ele>0.7</ele><time>2025-12-08T11:00:25Z</time></trkpt>
			<trkpt lat="54.930560" lon="20.540470"><ele>0.7</ele><time>2025-12-08T11:00:31Z</time></trkpt>
			<trkpt lat="54.930710" lon="20.540470"><ele>0.7</ele><time>2025-12-08T11:00:37Z</time></trkpt>
			<trkpt lat="54.932330" lon="20.540760"><ele>0.7</ele><time>2025-12-08T11:00:43Z</time></trkpt>
			<trkpt lat="54.933420" lon="20.540920"><ele>-0.1</ele><time>2025-12-08T11:00:49Z</time></trkpt>
			<trkpt lat="54.933910" lon="20.541000"><ele>-0.4</ele><time>2025-12-08T11:00:55Z</time></trkpt>
			<trkpt lat="54.934110" lon="20.541010"><ele>-0.4</ele><time>2025-12-08T11:01:01Z</time></trkpt>
			<trkpt lat="54.934180" lon="20.540990"><ele>-0.4</ele><time>2025-12-08T11:01:07Z</time></trkpt>
			<trkpt lat="54.934280" lon="20.540930"><ele>-0.4</ele><time>2025-12-08T11:01:13Z</time></trkpt>
			<trkpt lat="54.934400" lon="20.540820"><ele>-0.4</ele><time>2025-12-08T11:01:19Z</time></trkpt>
			<trkpt lat="54.934500" lon="20.540650"><ele>-0.4</ele><time>2025-12-08T11:01:25Z</time></trkpt>
			<trkpt lat="54.934620" lon="20.540320"><ele>-0.4</ele><time>2025-12-08T11:01:31Z</time></trkpt>
			<trkpt lat="54.934680" lon="20.539870"><ele>-0.5</ele><time>2025-12-08T11:01:37Z</time></trkpt>
			<trkpt lat="54.934680" lon="20.539470"><ele>-0.5</ele><time>2025-12-08T11:01:43Z</time></trkpt>
			<trkpt lat="54.934630" lon="20.537690"><ele>-0.1</ele><time>2025-12-08T11:01:49Z</time></trkpt>
			<trkpt lat="54.934620" lon="20.537620"><ele>-0.1</ele><time>2025-12-08T11:01:55Z</time></trkpt>
			<trkpt lat="54.934610" lon="20.537360"><ele>0.0</ele><time>2025-12-08T11:02:01Z</time></trkpt>
			<trkpt lat="54.934520" lon="20.534270"><ele>-0.6</ele><time>2025-12-08T11:02:07Z</time></trkpt>
			<trkpt lat="54.934520" lon="20.533940"><ele>-0.9</ele><time>2025-12-08T11:02:13Z</time></trkpt>
			<trkpt lat="54.934800" lon="20.530570"><ele>-1.8</ele><time>2025-12-08T11:02:19Z</time></trkpt>
			<trkpt lat="54.935350" lon="20.523690"><ele>-1.1</ele><time>2025-12-08T11:02:25Z</time></trkpt>
			<trkpt lat="54.935650" lon="20.520050"><ele>-0.2</ele><time>2025-12-08T11:02:31Z</time></trkpt>
			<trkpt lat="54.935980" lon="20.516730"><ele>1.0</ele><time>2025-12-08T11:02:37Z</time></trkpt>
			<trkpt lat="54.936070" lon="20.515660"><ele>1.0</ele><time>2025-12-08T11:02:43Z</time></trkpt>
			<trkpt lat="54.936330" lon="20.512600"><ele>1.5</ele><time>2025-12-08T11:02:49Z</time></trkpt>
			<trkpt lat="54.936370" lon="20.511780"><ele>1.9</ele><time>2025-12-08T11:02:55Z</time></trkpt>
			<trkpt lat="54.936410" lon="20.511110"><ele>2.1</ele><time>2025-12-08T11:03:01Z</time></trkpt>
			<trkpt lat="54.936420" lon="20.510930"><ele>2.2</ele><time>2025-12-08T11:03:07Z</time></trkpt>
			<trkpt lat="54.936440" lon="20.510750"><ele>2.5</ele><time>2025-12-08T11:03:13Z</time></trkpt>
			<trkpt lat="54.936070" lon="20.510680"><ele>3.3</ele><time>2025-12-08T11:03:19Z</time></trkpt>
			<trkpt lat="54.936070" lon="20.510680"><ele>3.3</ele><time>2025-12-08T11:03:25Z</time></trkpt>
			<trkpt lat="54.932570" lon="20.510080"><ele>5.8</ele><time>2025-12-08T11:03:31Z</time></trkpt>
			<trkpt lat="54.931430" lon="20.509890"><ele>2.6</ele><time>2025-12-08T11:03:37Z</time></trkpt>
			<trkpt lat="54.930800" lon="20.509780"><ele>1.8</ele><time>2025-12-08T11:03:43Z</time></trkpt>
			<trkpt lat="54.930210" lon="20.509680"><ele>1.7</ele><time>2025-12-08T11:03:49Z</time></trkpt>
			<trkpt lat="54.929550" lon="20.509560"><ele>1.6</ele><time>2025-12-08T11:03:55Z</time></trkpt>
			<trkpt lat="54.927820" lon="20.509260"><ele>5.2</ele><time>2025-12-08T11:04:02Z</time></trkpt>
			<trkpt lat="54.927260" lon="20.509170"><ele>5.6</ele><time>2025-12-08T11:04:08Z</time></trkpt>
			<trkpt lat="54.925170" lon="20.508810"><ele>5.6</ele><time>2025-12-08T11:04:14Z</time></trkpt>
			<trkpt lat="54.923140" lon="20.508460"><ele>7.0</ele><time>2025-12-08T11:04:20Z</time></trkpt>
			<trkpt lat="54.923000" lon="20.508440"><ele>7.0</ele><time>2025-12-08T11:04:26Z</time></trkpt>
			<trkpt lat="54.922510" lon="20.508350"><ele>6.9</ele><time>2025-12-08T11:04:32Z</time></trkpt>
			<trkpt lat="54.921920" lon="20.508180"><ele>6.7</ele><time>2025-12-08T11:04:38Z</time></trkpt>
			<trkpt lat="54.921250" lon="20.507870"><ele>6.1</ele><time>2025-12-08T11:04:44Z</time></trkpt>
			<trkpt lat="54.921060" lon="20.507770"><ele>5.9</ele><time>2025-12-08T11:04:50Z</time></trkpt>
			<trkpt lat="54.920560" lon="20.507490"><ele>5.5</ele><time>2025-12-08T11:04:56Z</time></trkpt>
			<trkpt lat="54.920430" lon="20.507430"><ele>5.3</ele><time>2025-12-08T11:05:02Z</time></trkpt>
			<trkpt lat="54.919460" lon="20.506800"><ele>3.3</ele><time>2025-12-08T11:05:08Z</time></trkpt>
			<trkpt lat="54.917480" lon="20.505070"><ele>1.5</ele><time>2025-12-08T11:05:14Z</time></trkpt>
			<trkpt lat="54.916490" lon="20.504200"><ele>2.2</ele><time>2025-12-08T11:05:20Z</time></trkpt>
			<trkpt lat="54.916300" lon="20.504040"><ele>2.4</ele><time>2025-12-08T11:05:26Z</time></trkpt>
			<trkpt lat="54.915720" lon="20.503590"><ele>3.0</ele><time>2025-12-08T11:05:32Z</time></trkpt>
			<trkpt lat="54.915060" lon="20.503010"><ele>4.2</ele><time>2025-12-08T11:05:38Z</time></trkpt>
			<trkpt lat="54.913790" lon="20.501900"><ele>6.9</ele><time>2025-12-08T11:05:44Z</time></trkpt>
			<trkpt lat="54.910450" lon="20.499010"><ele>5.2</ele><time>2025-12-08T11:05:50Z</time></trkpt>
			<trkpt lat="54.908840" lon="20.497610"><ele>1.8</ele><time>2025-12-08T11:05:56Z</time></trkpt>
			<trkpt lat="54.907960" lon="20.496930"><ele>2.0</ele><time>2025-12-08T11:06:02Z</time></trkpt>
			<trkpt lat="54.907180" lon="20.496440"><ele>2.4</ele><time>2025-12-08T11:06:08Z</time></trkpt>
			<trkpt lat="54.906260" lon="20.495940"><ele>3.7</ele><time>2025-12-08T11:06:14Z</time></trkpt>
			<trkpt lat="54.906010" lon="20.495840"><ele>4.0</ele><time>2025-12-08T11:06:21Z</time></trkpt>
			<trkpt lat="54.904930" lon="20.495400"><ele>6.1</ele><time>2025-12-08T11:06:27Z</time></trkpt>
			<trkpt lat="54.904580" lon="20.495330"><ele>6.8</ele><time>2025-12-08T11:06:33Z</time></trkpt>
			<trkpt lat="54.902240" lon="20.494780"><ele>11.0</ele><time>2025-12-08T11:06:39Z</time></trkpt>
			<trkpt lat="54.898860" lon="20.494030"><ele>16.9</ele><time>2025-12-08T11:06:45Z</time></trkpt>
			<trkpt lat="54.897590" lon="20.493680"><ele>20.7</ele><time>2025-12-08T11:06:51Z</time></trkpt>
			<trkpt lat="54.895910" lon="20.493250"><ele>23.2</ele><time>2025-12-08T11:06:57Z</time></trkpt>
			<trkpt lat="54.895290" lon="20.493090"><ele>23.3</ele><time>2025-12-08T11:07:03Z</time></trkpt>
			<trkpt lat="54.895120" lon="20.493080"><ele>23.3</ele><time>2025-12-08T11:07:09Z</time></trkpt>
			<trkpt lat="54.894690" lon="20.492970"><ele>22.3</ele><time>2025-12-08T11:07:15Z</time></trkpt>
			<trkpt lat="54.893470" lon="20.492730"><ele>18.3</ele><time>2025-12-08T11:07:21Z</time></trkpt>
			<trkpt lat="54.893070" lon="20.492650"><ele>17.2</ele><time>2025-12-08T11:07:27Z</time></trkpt>
			<trkpt lat="54.887680" lon="20.491490"><ele>15.8</ele><time>2025-12-08T11:07:33Z</time></trkpt>
			<trkpt lat="54.887180" lon="20.491480"><ele>16.0</ele><time>2025-12-08T11:07:39Z</time></trkpt>
			<trkpt lat="54.886930" lon="20.491580"><ele>16.2</ele><time>2025-12-08T11:07:45Z</time></trkpt>
			<trkpt lat="54.886670" lon="20.491710"><ele>16.3</ele><time>2025-12-08T11:07:51Z</time></trkpt>
			<trkpt lat="54.881810" lon="20.494590"><ele>12.2</ele><time>2025-12-08T11:07:57Z</time></trkpt>
			<trkpt lat="54.879860" lon="20.495770"><ele>12.1</ele><time>2025-12-08T11:08:03Z</time></trkpt>
			<trkpt lat="54.878890" lon="20.496340"><ele>12.5</ele><time>2025-12-08T11:08:09Z</time></trkpt>
			<trkpt lat="54.877470" lon="20.497200"><ele>12.0</ele><time>2025-12-08T11:08:15Z</time></trkpt>
			<trkpt lat="54.877090" lon="20.497390"><ele>11.6</ele><time>2025-12-08T11:08:21Z</time></trkpt>
			<trkpt lat="54.876860" lon="20.497430"><ele>11.3</ele><time>2025-12-08T11:08:27Z</time></trkpt>
			<trkpt lat="54.876570" lon="20.497400"><ele>11.0</ele><time>2025-12-08T11:08:34Z</time></trkpt>
			<trkpt lat="54.875400" lon="20.497110"><ele>10.5</ele><time>2025-12-08T11:08:40Z</time></trkpt>
			<trkpt lat="54.875260" lon="20.497080"><ele>10.7</ele><time>2025-12-08T11:08:46Z</time></trkpt>
			<trkpt lat="54.873510" lon="20.496710"><ele>12.9</ele><time>2025-12-08T11:08:52Z</time></trkpt>
			<trkpt lat="54.872090" lon="20.496290"><ele>13.9</ele><time>2025-12-08T11:08:58Z</time></trkpt>
			<trkpt lat="54.870420" lon="20.495890"><ele>16.7</ele><time>2025-12-08T11:09:04Z</time></trkpt>
			<trkpt lat="54.870190" lon="20.495850"><ele>17.1</ele><time>2025-12-08T11:09:10Z</time></trkpt>
			<trkpt lat="54.869970" lon="20.495860"><ele>17.6</ele><time>2025-12-08T11:09:16Z</time></trkpt>
			<trkpt lat="54.869760" lon="20.495900"><ele>18.0</ele><time>2025-12-08T11:09:22Z</time></trkpt>
			<trkpt lat="54.869560" lon="20.496000"><ele>18.4</ele><time>2025-12-08T11:09:28Z</time></trkpt>
			<trkpt lat="54.869350" lon="20.496190"><ele>18.8</ele><time>2025-12-08T11:09:34Z</time></trkpt>
			<trkpt lat="54.869340" lon="20.495970"><ele>19.1</ele><time>2025-12-08T11:09:40Z</time></trkpt>
			<trkpt lat="54.869370" lon="20.495670"><ele>19.4</ele><time>2025-12-08T11:09:46Z</time></trkpt>
			<trkpt lat="54.869450" lon="20.494790"><ele>19.9</ele><time>2025-12-08T11:09:52Z</time></trkpt>
			<trkpt lat="54.869690" lon="20.492940"><ele>16.2</ele><time>2025-12-08T11:09:58Z</time></trkpt>
			<trkpt lat="54.869760" lon="20.492470"><ele>15.2</ele><time>2025-12-08T11:10:04Z</time></trkpt>
			<trkpt lat="54.869820" lon="20.491940"><ele>14.1</ele><time>2025-12-08T11:10:10Z</time></trkpt>
			<trkpt lat="54.869940" lon="20.490930"><ele>14.4</ele><time>2025-12-08T11:10:16Z</time></trkpt>
			<trkpt lat="54.869940" lon="20.490930"><ele>14.4</ele><time>2025-12-08T11:10:23Z</time></trkpt>
			<trkpt lat="54.870020" lon="20.490280"><ele>14.6</ele><time>2025-12-08T11:10:30Z</time></trkpt>
			<trkpt lat="54.870110" lon="20.489640"><ele>14.9</ele><time>2025-12-08T11:10:36Z</time></trkpt>
			<trkpt lat="54.870200" lon="20.489170"><ele>15.0</ele><time>2025-12-08T11:10:43Z</time></trkpt>
			<trkpt lat="54.870520" lon="20.487730"><ele>15.7</ele><time>2025-12-08T11:10:50Z</time></trkpt>
			<trkpt lat="54.870770" lon="20.486740"><ele>16.1</ele><time>2025-12-08T11:10:56Z</time></trkpt>
			<trkpt lat="54.871250" lon="20.484920"><ele>16.7</ele><time>2025-12-08T11:11:03Z</time></trkpt>
			<trkpt lat="54.872490" lon="20.480180"><ele>20.0</ele><time>2025-12-08T11:11:10Z</time></trkpt>
			<trkpt lat="54.873030" lon="20.477850"><ele>20.5</ele><time>2025-12-08T11:11:16Z</time></trkpt>
			<trkpt lat="54.873340" lon="20.476550"><ele>19.4</ele><time>2025-12-08T11:11:23Z</time></trkpt>
			<trkpt lat="54.873700" lon="20.475070"><ele>17.2</ele><time>2025-12-08T11:11:30Z</time></trkpt>
			<trkpt lat="54.873800" lon="20.474410"><ele>16.3</ele><time>2025-12-08T11:11:36Z</time></trkpt>
			<trkpt lat="54.874190" lon="20.472200"><ele>17.7</ele><time>2025-12-08T11:11:43Z</time></trkpt>
			<trkpt lat="54.874530" lon="20.470160"><ele>17.5</ele><time>2025-12-08T11:11:50Z</time></trkpt>
			<trkpt lat="54.874670" lon="20.469350"><ele>17.1</ele><time>2025-12-08T11:11:56Z</time></trkpt>
			<trkpt lat="54.874760" lon="20.468480"><ele>16.7</ele><time>2025-12-08T11:12:03Z</time></trkpt>
			<trkpt lat="54.874770" lon="20.468430"><ele>16.7</ele><time>2025-12-08T11:12:10Z</time></trkpt>
			<trkpt lat="54.874740" lon="20.467650"><ele>16.3</ele><time>2025-12-08T11:12:16Z</time></trkpt>
			<trkpt lat="54.874710" lon="20.466960"><ele>16.0</ele><time>2025-12-08T11:12:23Z</time></trkpt>
			<trkpt lat="54.874710" lon="20.466880"><ele>16.0</ele><time>2025-12-08T11:12:30Z</time></trkpt>
			<trkpt lat="54.874630" lon="20.464960"><ele>15.2</ele><time>2025-12-08T11:12:36Z</time></trkpt>
			<trkpt lat="54.874610" lon="20.464230"><ele>15.1</ele><time>2025-12-08T11:12:43Z</time></trkpt>
			<trkpt lat="54.874510" lon="20.463700"><ele>15.0</ele><time>2025-12-08T11:12:50Z</time></trkpt>
			<trkpt lat="54.874340" lon="20.463240"><ele>15.0</ele><time>2025-12-08T11:12:57Z</time></trkpt>
			<trkpt lat="54.874100" lon="20.462900"><ele>14.9</ele><time>2025-12-08T11:13:03Z</time></trkpt>
			<trkpt lat="54.873560" lon="20.462320"><ele>16.2</ele><time>2025-12-08T11:13:10Z</time></trkpt>
			<trkpt lat="54.872930" lon="20.461790"><ele>18.5</ele><time>2025-12-08T11:13:17Z</time></trkpt>
			<trkpt lat="54.872750" lon="20.461600"><ele>19.3</ele><time>2025-12-08T11:13:23Z</time></trkpt>
			<trkpt lat="54.872490" lon="20.460970"><ele>20.8</ele><time>2025-12-08T11:13:30Z</time></trkpt>
			<trkpt lat="54.872460" lon="20.460860"><ele>21.0</ele><time>2025-12-08T11:13:37Z</time></trkpt>
			<trkpt lat="54.872540" lon="20.460770"><ele>20.9</ele><time>2025-12-08T11:13:43Z</time></trkpt>
			<trkpt lat="54.873820" lon="20.458560"><ele>18.1</ele><time>2025-12-08T11:13:50Z</time></trkpt>
			<trkpt lat="54.874270" lon="20.457810"><ele>16.2</ele><time>2025-12-08T11:13:57Z</time></trkpt>
			<trkpt lat="54.874300" lon="20.457660"><ele>15.9</ele><time>2025-12-08T11:14:03Z</time></trkpt>
			<trkpt lat="54.874380" lon="20.457440"><ele>15.5</ele><time>2025-12-08T11:14:10Z</time></trkpt>
			<trkpt lat="54.874410" lon="20.457220"><ele>15.1</ele><time>2025-12-08T11:14:17Z</time></trkpt>
			<trkpt lat="54.874410" lon="20.457050"><ele>14.8</ele><time>2025-12-08T11:14:23Z</time></trkpt>
			<trkpt lat="54.874370" lon="20.456870"><ele>14.5</ele><time>2025-12-08T11:14:30Z</time></trkpt>
			<trkpt lat="54.874130" lon="20.456190"><ele>13.1</ele><time>2025-12-08T11:14:37Z</time></trkpt>
			<trkpt lat="54.873950" lon="20.455860"><ele>13.5</ele><time>2025-12-08T11:14:43Z</time></trkpt>
			<trkpt lat="54.873900" lon="20.455730"><ele>13.8</ele><time>2025-12-08T11:14:50Z</time></trkpt>
			<trkpt lat="54.873890" lon="20.455600"><ele>14.0</ele><time>2025-12-08T11:14:57Z</time></trkpt>
			<trkpt lat="54.873910" lon="20.455420"><ele>14.2</ele><time>2025-12-08T11:15:03Z</time></trkpt>
			<trkpt lat="54.873960" lon="20.455210"><ele>14.6</ele><time>2025-12-08T11:15:10Z</time></trkpt>
			<trkpt lat="54.874290" lon="20.454000"><ele>16.6</ele><time>2025-12-08T11:15:17Z</time></trkpt>
			<trkpt lat="54.875150" lon="20.450860"><ele>18.5</ele><time>2025-12-08T11:15:23Z</time></trkpt>
			<trkpt lat="54.875210" lon="20.450590"><ele>18.6</ele><time>2025-12-08T11:15:30Z</time></trkpt>
			<trkpt lat="54.875250" lon="20.450280"><ele>18.5</ele><time>2025-12-08T11:15:37Z</time></trkpt>
			<trkpt lat="54.875370" lon="20.449060"><ele>18.4</ele><time>2025-12-08T11:15:43Z</time></trkpt>
			<trkpt lat="54.875710" lon="20.445100"><ele>17.4</ele><time>2025-12-08T11:15:50Z</time></trkpt>
			<trkpt lat="54.876330" lon="20.438030"><ele>23.2</ele><time>2025-12-08T11:15:57Z</time></trkpt>
			<trkpt lat="54.876540" lon="20.435640"><ele>27.0</ele><time>2025-12-08T11:16:03Z</time></trkpt>
			<trkpt lat="54.876600" lon="20.435100"><ele>27.8</ele><time>2025-12-08T11:16:10Z</time></trkpt>
			<trkpt lat="54.876770" lon="20.433910"><ele>28.1</ele><time>2025-12-08T11:16:17Z</time></trkpt>
			<trkpt lat="54.877320" lon="20.430170"><ele>28.0</ele><time>2025-12-08T11:16:24Z</time></trkpt>
			<trkpt lat="54.877780" lon="20.427190"><ele>27.6</ele><time>2025-12-08T11:16:30Z</time></trkpt>
			<trkpt lat="54.877870" lon="20.426420"><ele>27.5</ele><time>2025-12-08T11:16:37Z</time></trkpt>
			<trkpt lat="54.879710" lon="20.405470"><ele>23.9</ele><time>2025-12-08T11:16:44Z</time></trkpt>
			<trkpt lat="54.880510" lon="20.405080"><ele>25.0</ele><time>2025-12-08T11:16:50Z</time></trkpt>
			<trkpt lat="54.882550" lon="20.404090"><ele>23.0</ele><time>2025-12-08T11:16:57Z</time></trkpt>
			<trkpt lat="54.887990" lon="20.401480"><ele>20.3</ele><time>2025-12-08T11:17:04Z</time></trkpt>
			<trkpt lat="54.888350" lon="20.401380"><ele>20.5</ele><time>2025-12-08T11:17:10Z</time></trkpt>
			<trkpt lat="54.891390" lon="20.400880"><ele>20.4</ele><time>2025-12-08T11:17:17Z</time></trkpt>
			<trkpt lat="54.892020" lon="20.400860"><ele>19.9</ele><time>2025-12-08T11:17:24Z</time></trkpt>
			<trkpt lat="54.894620" lon="20.400930"><ele>17.1</ele><time>2025-12-08T11:17:30Z</time></trkpt>
			<trkpt lat="54.896290" lon="20.400920"><ele>16.9</ele><time>2025-12-08T11:17:37Z</time></trkpt>
			<trkpt lat="54.896640" lon="20.400950"><ele>17.0</ele><time>2025-12-08T11:17:44Z</time></trkpt>
			<trkpt lat="54.896900" lon="20.401040"><ele>17.2</ele><time>2025-12-08T11:17:50Z</time></trkpt>
			<trkpt lat="54.897890" lon="20.401450"><ele>17.7</ele><time>2025-12-08T11:17:57Z</time></trkpt>
			<trkpt lat="54.899240" lon="20.402110"><ele>15.5</ele><time>2025-12-08T11:18:04Z</time></trkpt>
			<trkpt lat="54.899320" lon="20.402150"><ele>15.3</ele><time>2025-12-08T11:18:10Z</time></trkpt>
			<trkpt lat="54.900850" lon="20.402760"><ele>13.3</ele><time>2025-12-08T11:18:17Z</time></trkpt>
			<trkpt lat="54.901140" lon="20.402830"><ele>13.0</ele><time>2025-12-08T11:18:24Z</time></trkpt>
			<trkpt lat="54.901480" lon="20.402860"><ele>12.7</ele><time>2025-12-08T11:18:30Z</time></trkpt>
			<trkpt lat="54.901720" lon="20.402830"><ele>12.5</ele><time>2025-12-08T11:18:37Z</time></trkpt>
			<trkpt lat="54.902550" lon="20.402820"><ele>11.4</ele><time>2025-12-08T11:18:44Z</time></trkpt>
			<trkpt lat="54.903260" lon="20.402770"><ele>10.4</ele><time>2025-12-08T11:18:50Z</time></trkpt>
			<trkpt lat="54.904650" lon="20.402680"><ele>9.9</ele><time>2025-12-08T11:18:57Z</time></trkpt>
			<trkpt lat="54.904810" lon="20.402680"><ele>9.8</ele><time>2025-12-08T11:19:04Z</time></trkpt>
			<trkpt lat="54.905820" lon="20.402620"><ele>9.1</ele><time>2025-12-08T11:19:10Z</time></trkpt>
			<trkpt lat="54.906320" lon="20.402570"><ele>8.4</ele><time>2025-12-08T11:19:17Z</time></trkpt>
			<trkpt lat="54.907510" lon="20.402530"><ele>7.3</ele><time>2025-12-08T11:19:24Z</time></trkpt>
			<trkpt lat="54.907790" lon="20.402510"><ele>7.2</ele><time>2025-12-08T11:19:31Z</time></trkpt>
			<trkpt lat="54.907860" lon="20.402500"><ele>7.1</ele><time>2025-12-08T11:19:37Z</time></trkpt>
			<trkpt lat="54.909310" lon="20.402020"><ele>6.5</ele><time>2025-12-08T11:19:44Z</time></trkpt>
			<trkpt lat="54.909220" lon="20.400330"><ele>6.1</ele><time>2025-12-08T11:19:51Z</time></trkpt>
			<trkpt lat="54.909120" lon="20.399060"><ele>6.0</ele><time>2025-12-08T11:19:57Z</time></trkpt>
			<trkpt lat="54.909060" lon="20.397990"><ele>6.1</ele><time>2025-12-08T11:20:04Z</time></trkpt>
			<trkpt lat="54.908960" lon="20.396570"><ele>6.1</ele><time>2025-12-08T11:20:11Z</time></trkpt>
			<trkpt lat="54.908790" lon="20.394090"><ele>8.0</ele><time>2025-12-08T11:20:17Z</time></trkpt>
			<trkpt lat="54.908710" lon="20.393560"><ele>8.4</ele><time>2025-12-08T11:20:24Z</time></trkpt>
			<trkpt lat="54.908710" lon="20.393560"><ele>8.4</ele><time>2025-12-08T11:20:29Z</time></trkpt>
			<trkpt lat="54.908010" lon="20.388640"><ele>13.2</ele><time>2025-12-08T11:20:35Z</time></trkpt>
			<trkpt lat="54.907140" lon="20.382810"><ele>16.1</ele><time>2025-12-08T11:20:40Z</time></trkpt>
			<trkpt lat="54.906600" lon="20.379440"><ele>15.2</ele><time>2025-12-08T11:20:46Z</time></trkpt>
			<trkpt lat="54.906560" lon="20.378820"><ele>14.7</ele><time>2025-12-08T11:20:52Z</time></trkpt>
			<trkpt lat="54.906470" lon="20.375450"><ele>12.9</ele><time>2025-12-08T11:20:57Z</time></trkpt>
			<trkpt lat="54.906440" lon="20.372660"><ele>14.0</ele><time>2025-12-08T11:21:03Z</time></trkpt>
			<trkpt lat="54.906450" lon="20.372100"><ele>14.3</ele><time>2025-12-08T11:21:08Z</time></trkpt>
			<trkpt lat="54.906460" lon="20.371860"><ele>14.4</ele><time>2025-12-08T11:21:14Z</time></trkpt>
			<trkpt lat="54.906510" lon="20.371420"><ele>14.3</ele><time>2025-12-08T11:21:19Z</time></trkpt>
			<trkpt lat="54.906650" lon="20.370500"><ele>14.2</ele><time>2025-12-08T11:21:25Z</time></trkpt>
			<trkpt lat="54.906890" lon="20.369050"><ele>14.0</ele><time>2025-12-08T11:21:30Z</time></trkpt>
			<trkpt lat="54.907000" lon="20.368330"><ele>13.6</ele><time>2025-12-08T11:21:36Z</time></trkpt>
			<trkpt lat="54.907040" lon="20.368070"><ele>13.4</ele><time>2025-12-08T11:21:41Z</time></trkpt>
			<trkpt lat="54.907200" lon="20.367050"><ele>12.7</ele><time>2025-12-08T11:21:47Z</time></trkpt>
			<trkpt lat="54.907230" lon="20.366840"><ele>12.6</ele><time>2025-12-08T11:21:52Z</time></trkpt>
			<trkpt lat="54.907260" lon="20.366570"><ele>12.4</ele><time>2025-12-08T11:21:58Z</time></trkpt>
			<trkpt lat="54.907260" lon="20.366120"><ele>12.2</ele><time>2025-12-08T11:22:03Z</time></trkpt>
			<trkpt lat="54.907250" lon="20.365200"><ele>11.9</ele><time>2025-12-08T11:22:09Z</time></trkpt>
			<trkpt lat="54.907230" lon="20.364000"><ele>11.6</ele><time>2025-12-08T11:22:14Z</time></trkpt>
			<trkpt lat="54.907170" lon="20.360660"><ele>11.6</ele><time>2025-12-08T11:22:20Z</time></trkpt>
			<trkpt lat="54.906960" lon="20.352730"><ele>15.1</ele><time>2025-12-08T11:22:25Z</time></trkpt>
			<trkpt lat="54.906860" lon="20.351890"><ele>15.9</ele><time>2025-12-08T11:22:31Z</time></trkpt>
			<trkpt lat="54.906630" lon="20.350760"><ele>16.9</ele><time>2025-12-08T11:22:36Z</time></trkpt>
			<trkpt lat="54.906220" lon="20.348780"><ele>17.5</ele><time>2025-12-08T11:22:42Z</time></trkpt>
			<trkpt lat="54.905730" lon="20.346540"><ele>17.1</ele><time>2025-12-08T11:22:47Z</time></trkpt>
			<trkpt lat="54.905680" lon="20.346270"><ele>16.9</ele><time>2025-12-08T11:22:53Z</time></trkpt>
			<trkpt lat="54.905560" lon="20.345320"><ele>16.2</ele><time>2025-12-08T11:22:58Z</time></trkpt>
			<trkpt lat="54.905390" lon="20.344000"><ele>15.4</ele><time>2025-12-08T11:23:04Z</time></trkpt>
			<trkpt lat="54.904960" lon="20.339920"><ele>14.1</ele><time>2025-12-08T11:23:09Z</time></trkpt>
			<trkpt lat="54.904930" lon="20.339640"><ele>14.1</ele><time>2025-12-08T11:23:15Z</time></trkpt>
			<trkpt lat="54.904827" lon="20.338674"><ele>14.1</ele><time>2025-12-08T11:23:20Z</time></trkpt>
			<trkpt lat="54.904830" lon="20.338670"><ele>14.1</ele><time>2025-12-08T11:23:26Z</time></trkpt>
			<trkpt lat="54.904700" lon="20.337490"><ele>13.7</ele><time>2025-12-08T11:23:32Z</time></trkpt>
			<trkpt lat="54.907860" lon="20.336420"><ele>11.9</ele><time>2025-12-08T11:23:37Z</time></trkpt>
			<trkpt lat="54.910380" lon="20.335560"><ele>16.8</ele><time>2025-12-08T11:23:43Z</time></trkpt>
			<trkpt lat="54.910920" lon="20.335120"><ele>17.8</ele><time>2025-12-08T11:23:49Z</time></trkpt>
			<trkpt lat="54.914870" lon="20.330530"><ele>22.1</ele><time>2025-12-08T11:23:54Z</time></trkpt>
			<trkpt lat="54.917210" lon="20.327800"><ele>21.6</ele><time>2025-12-08T11:24:00Z</time></trkpt>
			<trkpt lat="54.919510" lon="20.325110"><ele>19.4</ele><time>2025-12-08T11:24:06Z</time></trkpt>
			<trkpt lat="54.919680" lon="20.324960"><ele>19.4</ele><time>2025-12-08T11:24:11Z</time></trkpt>
			<trkpt lat="54.919870" lon="20.324830"><ele>19.4</ele><time>2025-12-08T11:24:17Z</time></trkpt>
			<trkpt lat="54.920010" lon="20.324760"><ele>19.3</ele><time>2025-12-08T11:24:23Z</time></trkpt>
			<trkpt lat="54.920060" lon="20.324730"><ele>19.3</ele><time>2025-12-08T11:24:28Z</time></trkpt>
			<trkpt lat="54.920340" lon="20.324660"><ele>19.3</ele><time>2025-12-08T11:24:34Z</time></trkpt>
			<trkpt lat="54.920560" lon="20.324620"><ele>19.0</ele><time>2025-12-08T11:24:39Z</time></trkpt>
			<trkpt lat="54.922040" lon="20.324390"><ele>17.0</ele><time>2025-12-08T11:24:45Z</time></trkpt>
			<trkpt lat="54.922350" lon="20.324340"><ele>16.8</ele><time>2025-12-08T11:24:51Z</time></trkpt>
			<trkpt lat="54.922660" lon="20.324310"><ele>16.7</ele><time>2025-12-08T11:24:56Z</time></trkpt>
			<trkpt lat="54.924870" lon="20.324040"><ele>15.6</ele><time>2025-12-08T11:25:02Z</time></trkpt>
			<trkpt lat="54.925860" lon="20.323910"><ele>15.0</ele><time>2025-12-08T11:25:08Z</time></trkpt>
			<trkpt lat="54.926130" lon="20.323870"><ele>15.0</ele><time>2025-12-08T11:25:13Z</time></trkpt>
			<trkpt lat="54.926710" lon="20.323840"><ele>15.0</ele><time>2025-12-08T11:25:19Z</time></trkpt>
			<trkpt lat="54.927720" lon="20.324020"><ele>14.9</ele><time>2025-12-08T11:25:25Z</time></trkpt>
			<trkpt lat="54.928210" lon="20.324140"><ele>14.8</ele><time>2025-12-08T11:25:30Z</time></trkpt>
			<trkpt lat="54.929250" lon="20.324410"><ele>14.5</ele><time>2025-12-08T11:25:36Z</time></trkpt>
			<trkpt lat="54.929930" lon="20.324570"><ele>14.1</ele><time>2025-12-08T11:25:42Z</time></trkpt>
			<trkpt lat="54.930140" lon="20.324680"><ele>13.9</ele><time>2025-12-08T11:25:47Z</time></trkpt>
			<trkpt lat="54.930220" lon="20.324730"><ele>13.9</ele><time>2025-12-08T11:25:53Z</time></trkpt>
			<trkpt lat="54.930640" lon="20.325160"><ele>13.5</ele><time>2025-12-08T11:25:58Z</time></trkpt>
			<trkpt lat="54.930810" lon="20.325390"><ele>13.4</ele><time>2025-12-08T11:26:04Z</time></trkpt>
			<trkpt lat="54.932030" lon="20.326130"><ele>12.0</ele><time>2025-12-08T11:26:10Z</time></trkpt>
			<trkpt lat="54.932400" lon="20.326230"><ele>11.6</ele><time>2025-12-08T11:26:15Z</time></trkpt>
			<trkpt lat="54.932850" lon="20.326330"><ele>11.1</ele><time>2025-12-08T11:26:21Z</time></trkpt>
			<trkpt lat="54.933380" lon="20.326340"><ele>10.8</ele><time>2025-12-08T11:26:27Z</time></trkpt>
			<trkpt lat="54.933640" lon="20.326270"><ele>10.6</ele><time>2025-12-08T11:26:32Z</time></trkpt>
			<trkpt lat="54.933770" lon="20.326180"><ele>10.5</ele><time>2025-12-08T11:26:38Z</time></trkpt>
			<trkpt lat="54.933880" lon="20.326000"><ele>10.4</ele><time>2025-12-08T11:26:44Z</time></trkpt>
			<trkpt lat="54.933960" lon="20.325670"><ele>10.3</ele><time>2025-12-08T11:26:49Z</time></trkpt>
			<trkpt lat="54.934010" lon="20.325480"><ele>10.2</ele><time>2025-12-08T11:26:55Z</time></trkpt>
			<trkpt lat="54.936240" lon="20.312390"><ele>5.5</ele><time>2025-12-08T11:27:01Z</time></trkpt>
			<trkpt lat="54.936640" lon="20.310300"><ele>3.4</ele><time>2025-12-08T11:27:06Z</time></trkpt>
			<trkpt lat="54.936950" lon="20.309330"><ele>2.3</ele><time>2025-12-08T11:27:12Z</time></trkpt>
			<trkpt lat="54.937320" lon="20.308360"><ele>1.2</ele><time>2025-12-08T11:27:17Z</time></trkpt>
			<trkpt lat="54.937380" lon="20.308230"><ele>1.1</ele><time>2025-12-08T11:27:23Z</time></trkpt>
			<trkpt lat="54.937940" lon="20.307060"><ele>0.7</ele><time>2025-12-08T11:27:29Z</time></trkpt>
			<trkpt lat="54.938190" lon="20.306510"><ele>1.9</ele><time>2025-12-08T11:27:34Z</time></trkpt>
			<trkpt lat="54.938810" lon="20.305170"><ele>4.6</ele><time>2025-12-08T11:27:40Z</time></trkpt>
			<trkpt lat="54.939050" lon="20.304620"><ele>5.7</ele><time>2025-12-08T11:27:46Z</time></trkpt>
			<trkpt lat="54.939150" lon="20.304390"><ele>6.2</ele><time>2025-12-08T11:27:51Z</time></trkpt>
			<trkpt lat="54.940890" lon="20.300540"><ele>11.5</ele><time>2025-12-08T11:27:57Z</time></trkpt>
			<trkpt lat="54.941260" lon="20.299710"><ele>12.0</ele><time>2025-12-08T11:28:03Z</time></trkpt>
			<trkpt lat="54.942570" lon="20.296820"><ele>13.0</ele><time>2025-12-08T11:28:08Z</time></trkpt>
			<trkpt lat="54.943390" lon="20.295080"><ele>13.9</ele><time>2025-12-08T11:28:14Z</time></trkpt>
			<trkpt lat="54.943600" lon="20.294600"><ele>13.7</ele><time>2025-12-08T11:28:20Z</time></trkpt>
			<trkpt lat="54.943720" lon="20.294360"><ele>13.5</ele><time>2025-12-08T11:28:25Z</time></trkpt>
			<trkpt lat="54.943870" lon="20.294080"><ele>13.4</ele><time>2025-12-08T11:28:31Z</time></trkpt>
			<trkpt lat="54.944340" lon="20.293330"><ele>12.9</ele><time>2025-12-08T11:28:36Z</time></trkpt>
			<trkpt lat="54.944800" lon="20.292620"><ele>13.3</ele><time>2025-12-08T11:28:42Z</time></trkpt>
			<trkpt lat="54.945750" lon="20.291110"><ele>17.3</ele><time>2025-12-08T11:28:48Z</time></trkpt>
			<trkpt lat="54.948940" lon="20.286060"><ele>12.3</ele><time>2025-12-08T11:28:53Z</time></trkpt>
			<trkpt lat="54.949060" lon="20.285850"><ele>12.2</ele><time>2025-12-08T11:28:59Z</time></trkpt>
			<trkpt lat="54.949320" lon="20.285340"><ele>12.0</ele><time>2025-12-08T11:29:05Z</time></trkpt>
			<trkpt lat="54.949510" lon="20.284900"><ele>11.9</ele><time>2025-12-08T11:29:10Z</time></trkpt>
			<trkpt lat="54.949700" lon="20.284380"><ele>11.7</ele><time>2025-12-08T11:29:16Z</time></trkpt>
			<trkpt lat="54.949800" lon="20.284040"><ele>11.6</ele><time>2025-12-08T11:29:22Z</time></trkpt>
			<trkpt lat="54.949910" lon="20.283610"><ele>11.4</ele><time>2025-12-08T11:29:27Z</time></trkpt>
			<trkpt lat="54.950050" lon="20.282990"><ele>11.0</ele><time>2025-12-08T11:29:33Z</time></trkpt>
			<trkpt lat="54.950620" lon="20.279800"><ele>8.7</ele><time>2025-12-08T11:29:39Z</time></trkpt>
			<trkpt lat="54.950720" lon="20.279200"><ele>8.2</ele><time>2025-12-08T11:29:44Z</time></trkpt>
			<trkpt lat="54.951430" lon="20.275310"><ele>10.1</ele><time>2025-12-08T11:29:50Z</time></trkpt>
			<trkpt lat="54.951520" lon="20.274740"><ele>10.4</ele><time>2025-12-08T11:29:56Z</time></trkpt>
			<trkpt lat="54.951640" lon="20.273850"><ele>10.6</ele><time>2025-12-08T11:30:01Z</time></trkpt>
			<trkpt lat="54.951650" lon="20.273520"><ele>10.7</ele><time>2025-12-08T11:30:07Z</time></trkpt>
			<trkpt lat="54.951610" lon="20.273030"><ele>10.9</ele><time>2025-12-08T11:30:12Z</time></trkpt>
			<trkpt lat="54.951540" lon="20.271640"><ele>11.3</ele><time>2025-12-08T11:30:18Z</time></trkpt>
			<trkpt lat="54.951540" lon="20.271640"><ele>11.3</ele><time>2025-12-08T11:30:22Z</time></trkpt>
			<trkpt lat="54.951500" lon="20.271050"><ele>11.4</ele><time>2025-12-08T11:30:26Z</time></trkpt>
			<trkpt lat="54.951470" lon="20.270480"><ele>11.6</ele><time>2025-12-08T11:30:29Z</time></trkpt>
			<trkpt lat="54.951390" lon="20.268920"><ele>12.0</ele><time>2025-12-08T11:30:33Z</time></trkpt>
			<trkpt lat="54.951270" lon="20.267090"><ele>11.6</ele><time>2025-12-08T11:30:37Z</time></trkpt>
			<trkpt lat="54.951200" lon="20.265960"><ele>11.4</ele><time>2025-12-08T11:30:40Z</time></trkpt>
			<trkpt lat="54.951110" lon="20.264300"><ele>10.4</ele><time>2025-12-08T11:30:44Z</time></trkpt>
			<trkpt lat="54.951080" lon="20.263990"><ele>10.2</ele><time>2025-12-08T11:30:48Z</time></trkpt>
			<trkpt lat="54.951050" lon="20.263400"><ele>9.8</ele><time>2025-12-08T11:30:51Z</time></trkpt>
			<trkpt lat="54.950980" lon="20.262410"><ele>9.2</ele><time>2025-12-08T11:30:55Z</time></trkpt>
			<trkpt lat="54.950970" lon="20.262210"><ele>9.1</ele><time>2025-12-08T11:30:59Z</time></trkpt>
			<trkpt lat="54.950860" lon="20.261020"><ele>8.3</ele><time>2025-12-08T11:31:03Z</time></trkpt>
			<trkpt lat="54.950780" lon="20.260270"><ele>7.8</ele><time>2025-12-08T11:31:06Z</time></trkpt>
			<trkpt lat="54.950710" lon="20.259670"><ele>7.4</ele><time>2025-12-08T11:31:10Z</time></trkpt>
			<trkpt lat="54.950700" lon="20.259540"><ele>7.3</ele><time>2025-12-08T11:31:14Z</time></trkpt>
			<trkpt lat="54.950590" lon="20.258610"><ele>6.6</ele><time>2025-12-08T11:31:17Z</time></trkpt>
			<trkpt lat="54.950500" lon="20.257840"><ele>6.1</ele><time>2025-12-08T11:31:21Z</time></trkpt>
			<trkpt lat="54.950450" lon="20.257620"><ele>5.9</ele><time>2025-12-08T11:31:25Z</time></trkpt>
			<trkpt lat="54.950420" lon="20.257520"><ele>5.8</ele><time>2025-12-08T11:31:29Z</time></trkpt>
			<trkpt lat="54.950380" lon="20.257450"><ele>5.8</ele><time>2025-12-08T11:31:32Z</time></trkpt>
			<trkpt lat="54.950320" lon="20.257380"><ele>5.7</ele><time>2025-12-08T11:31:36Z</time></trkpt>
			<trkpt lat="54.950270" lon="20.257360"><ele>5.6</ele><time>2025-12-08T11:31:40Z</time></trkpt>
			<trkpt lat="54.950130" lon="20.257340"><ele>5.4</ele><time>2025-12-08T11:31:43Z</time></trkpt>
			<trkpt lat="54.949980" lon="20.257360"><ele>5.2</ele><time>2025-12-08T11:31:47Z</time></trkpt>
			<trkpt lat="54.949960" lon="20.256880"><ele>5.3</ele><time>2025-12-08T11:31:51Z</time></trkpt>
			<trkpt lat="54.949880" lon="20.255440"><ele>6.2</ele><time>2025-12-08T11:31:55Z</time></trkpt>
			<trkpt lat="54.949880" lon="20.255270"><ele>6.3</ele><time>2025-12-08T11:31:58Z</time></trkpt>
			<trkpt lat="54.949900" lon="20.255140"><ele>6.4</ele><time>2025-12-08T11:32:02Z</time></trkpt>
			<trkpt lat="54.949940" lon="20.255020"><ele>6.5</ele><time>2025-12-08T11:32:06Z</time></trkpt>
			<trkpt lat="54.949980" lon="20.254950"><ele>6.6</ele><time>2025-12-08T11:32:09Z</time></trkpt>
			<trkpt lat="54.950030" lon="20.254900"><ele>6.6</ele><time>2025-12-08T11:32:13Z</time></trkpt>
			<trkpt lat="54.950140" lon="20.254840"><ele>6.8</ele><time>2025-12-08T11:32:17Z</time></trkpt>
			<trkpt lat="54.950540" lon="20.254720"><ele>7.3</ele><time>2025-12-08T11:32:20Z</time></trkpt>
			<trkpt lat="54.950600" lon="20.254680"><ele>7.4</ele><time>2025-12-08T11:32:24Z</time></trkpt>
			<trkpt lat="54.950640" lon="20.254640"><ele>7.5</ele><time>2025-12-08T11:32:28Z</time></trkpt>
			<trkpt lat="54.950670" lon="20.254570"><ele>7.6</ele><time>2025-12-08T11:32:32Z</time></trkpt>
			<trkpt lat="54.950710" lon="20.254410"><ele>7.7</ele><time>2025-12-08T11:32:35Z</time></trkpt>
			<trkpt lat="54.950710" lon="20.254160"><ele>8.0</ele><time>2025-12-08T11:32:39Z</time></trkpt>
			<trkpt lat="54.950670" lon="20.253290"><ele>8.9</ele><time>2025-12-08T11:32:43Z</time></trkpt>
			<trkpt lat="54.950640" lon="20.252640"><ele>9.6</ele><time>2025-12-08T11:32:46Z</time></trkpt>
			<trkpt lat="54.950580" lon="20.251800"><ele>10.5</ele><time>2025-12-08T11:32:50Z</time></trkpt>
			<trkpt lat="54.950530" lon="20.251180"><ele>11.4</ele><time>2025-12-08T11:32:54Z</time></trkpt>
			<trkpt lat="54.950530" lon="20.250670"><ele>12.1</ele><time>2025-12-08T11:32:58Z</time></trkpt>
			<trkpt lat="54.950550" lon="20.250170"><ele>12.8</ele><time>2025-12-08T11:33:01Z</time></trkpt>
			<trkpt lat="54.950610" lon="20.249730"><ele>13.4</ele><time>2025-12-08T11:33:05Z</time></trkpt>
			<trkpt lat="54.951800" lon="20.241000"><ele>17.5</ele><time>2025-12-08T11:33:09Z</time></trkpt>
			<trkpt lat="54.951960" lon="20.239830"><ele>17.8</ele><time>2025-12-08T11:33:12Z</time></trkpt>
			<trkpt lat="54.952010" lon="20.239500"><ele>17.8</ele><time>2025-12-08T11:33:16Z</time></trkpt>
			<trkpt lat="54.952040" lon="20.239300"><ele>17.7</ele><time>2025-12-08T11:33:20Z</time></trkpt>
			<trkpt lat="54.952210" lon="20.238080"><ele>17.0</ele><time>2025-12-08T11:33:24Z</time></trkpt>
			<trkpt lat="54.952240" lon="20.237860"><ele>16.8</ele><time>2025-12-08T11:33:27Z</time></trkpt>
			<trkpt lat="54.952360" lon="20.237010"><ele>16.3</ele><time>2025-12-08T11:33:31Z</time></trkpt>
			<trkpt lat="54.952410" lon="20.236790"><ele>16.2</ele><time>2025-12-08T11:33:35Z</time></trkpt>
			<trkpt lat="54.952950" lon="20.235230"><ele>18.0</ele><time>2025-12-08T11:33:38Z</time></trkpt>
			<trkpt lat="54.953050" lon="20.234910"><ele>18.4</ele><time>2025-12-08T11:33:42Z</time></trkpt>
			<trkpt lat="54.953130" lon="20.234600"><ele>18.8</ele><time>2025-12-08T11:33:46Z</time></trkpt>
			<trkpt lat="54.953240" lon="20.233990"><ele>19.6</ele><time>2025-12-08T11:33:50Z</time></trkpt>
			<trkpt lat="54.953250" lon="20.233920"><ele>19.7</ele><time>2025-12-08T11:33:53Z</time></trkpt>
			<trkpt lat="54.953340" lon="20.233430"><ele>20.1</ele><time>2025-12-08T11:33:57Z</time></trkpt>
			<trkpt lat="54.953410" lon="20.233050"><ele>20.5</ele><time>2025-12-08T11:34:01Z</time></trkpt>
			<trkpt lat="54.953420" lon="20.232940"><ele>20.5</ele><time>2025-12-08T11:34:04Z</time></trkpt>
			<trkpt lat="54.953430" lon="20.232820"><ele>20.6</ele><time>2025-12-08T11:34:08Z</time></trkpt>
			<trkpt lat="54.953440" lon="20.232590"><ele>20.8</ele><time>2025-12-08T11:34:12Z</time></trkpt>
			<trkpt lat="54.953450" lon="20.231880"><ele>21.4</ele><time>2025-12-08T11:34:15Z</time></trkpt>
			<trkpt lat="54.953460" lon="20.231260"><ele>21.9</ele><time>2025-12-08T11:34:19Z</time></trkpt>
			<trkpt lat="54.953470" lon="20.231000"><ele>22.1</ele><time>2025-12-08T11:34:23Z</time></trkpt>
			<trkpt lat="54.953480" lon="20.230160"><ele>21.8</ele><time>2025-12-08T11:34:27Z</time></trkpt>
			<trkpt lat="54.953500" lon="20.229830"><ele>21.4</ele><time>2025-12-08T11:34:30Z</time></trkpt>
			<trkpt lat="54.953510" lon="20.229720"><ele>21.3</ele><time>2025-12-08T11:34:34Z</time></trkpt>
			<trkpt lat="54.953530" lon="20.229610"><ele>21.2</ele><time>2025-12-08T11:34:38Z</time></trkpt>
			<trkpt lat="54.953610" lon="20.229130"><ele>20.7</ele><time>2025-12-08T11:34:41Z</time></trkpt>
			<trkpt lat="54.953680" lon="20.228720"><ele>20.2</ele><time>2025-12-08T11:34:45Z</time></trkpt>
			<trkpt lat="54.953690" lon="20.228410"><ele>19.9</ele><time>2025-12-08T11:34:49Z</time></trkpt>
			<trkpt lat="54.953680" lon="20.228290"><ele>19.8</ele><time>2025-12-08T11:34:53Z</time></trkpt>
			<trkpt lat="54.953640" lon="20.227630"><ele>19.1</ele><time>2025-12-08T11:34:56Z</time></trkpt>
			<trkpt lat="54.953610" lon="20.227310"><ele>19.0</ele><time>2025-12-08T11:35:00Z</time></trkpt>
			<trkpt lat="54.953620" lon="20.226890"><ele>18.8</ele><time>2025-12-08T11:35:04Z</time></trkpt>
			<trkpt lat="54.953700" lon="20.225810"><ele>18.5</ele><time>2025-12-08T11:35:07Z</time></trkpt>
			<trkpt lat="54.953700" lon="20.225640"><ele>18.5</ele><time>2025-12-08T11:35:11Z</time></trkpt>
			<trkpt lat="54.953680" lon="20.225280"><ele>18.4</ele><time>2025-12-08T11:35:15Z</time></trkpt>
			<trkpt lat="54.953650" lon="20.225170"><ele>18.3</ele><time>2025-12-08T11:35:19Z</time></trkpt>
			<trkpt lat="54.953630" lon="20.225110"><ele>18.3</ele><time>2025-12-08T11:35:22Z</time></trkpt>
			<trkpt lat="54.953450" lon="20.224730"><ele>18.2</ele><time>2025-12-08T11:35:26Z</time></trkpt>
			<trkpt lat="54.953400" lon="20.224680"><ele>18.2</ele><time>2025-12-08T11:35:30Z</time></trkpt>
			<trkpt lat="54.953300" lon="20.224610"><ele>18.3</ele><time>2025-12-08T11:35:33Z</time></trkpt>
			<trkpt lat="54.952980" lon="20.224520"><ele>18.8</ele><time>2025-12-08T11:35:37Z</time></trkpt>
			<trkpt lat="54.952910" lon="20.224510"><ele>18.9</ele><time>2025-12-08T11:35:41Z</time></trkpt>
			<trkpt lat="54.952910" lon="20.224510"><ele>18.9</ele><time>2025-12-08T11:35:44Z</time></trkpt>
			<trkpt lat="54.952530" lon="20.224400"><ele>19.6</ele><time>2025-12-08T11:35:48Z</time></trkpt>
			<trkpt lat="54.951840" lon="20.224330"><ele>20.7</ele><time>2025-12-08T11:35:51Z</time></trkpt>
			<trkpt lat="54.951250" lon="20.224280"><ele>21.2</ele><time>2025-12-08T11:35:55Z</time></trkpt>
			<trkpt lat="54.951180" lon="20.224280"><ele>21.2</ele><time>2025-12-08T11:35:58Z</time></trkpt>
			<trkpt lat="54.950570" lon="20.224260"><ele>21.4</ele><time>2025-12-08T11:36:02Z</time></trkpt>
			<trkpt lat="54.950270" lon="20.224300"><ele>21.5</ele><time>2025-12-08T11:36:05Z</time></trkpt>
			<trkpt lat="54.949950" lon="20.224380"><ele>21.6</ele><time>2025-12-08T11:36:09Z</time></trkpt>
			<trkpt lat="54.949830" lon="20.224460"><ele>21.6</ele><time>2025-12-08T11:36:12Z</time></trkpt>
			<trkpt lat="54.949710" lon="20.224530"><ele>21.6</ele><time>2025-12-08T11:36:16Z</time></trkpt>
			<trkpt lat="54.949690" lon="20.224650"><ele>21.6</ele><time>2025-12-08T11:36:19Z</time></trkpt>
			<trkpt lat="54.949600" lon="20.224830"><ele>21.6</ele><time>2025-12-08T11:36:23Z</time></trkpt>
			<trkpt lat="54.949370" lon="20.225230"><ele>21.5</ele><time>2025-12-08T11:36:26Z</time></trkpt>
			<trkpt lat="54.948710" lon="20.226360"><ele>21.3</ele><time>2025-12-08T11:36:30Z</time></trkpt>
			<trkpt lat="54.947850" lon="20.227830"><ele>21.2</ele><time>2025-12-08T11:36:33Z</time></trkpt>
			<trkpt lat="54.947440" lon="20.228530"><ele>21.1</ele><time>2025-12-08T11:36:37Z</time></trkpt>
			<trkpt lat="54.947350" lon="20.228740"><ele>21.1</ele><time>2025-12-08T11:36:41Z</time></trkpt>
			<trkpt lat="54.947310" lon="20.228910"><ele>21.1</ele><time>2025-12-08T11:36:44Z</time></trkpt>
			<trkpt lat="54.947180" lon="20.229340"><ele>21.0</ele><time>2025-12-08T11:36:48Z</time></trkpt>
			<trkpt lat="54.947140" lon="20.229530"><ele>20.9</ele><time>2025-12-08T11:36:51Z</time></trkpt>
			<trkpt lat="54.947100" lon="20.229680"><ele>20.9</ele><time>2025-12-08T11:36:55Z</time></trkpt>
			<trkpt lat="54.946940" lon="20.230290"><ele>20.7</ele><time>2025-12-08T11:36:58Z</time></trkpt>
			<trkpt lat="54.946860" lon="20.230630"><ele>20.6</ele><time>2025-12-08T11:37:02Z</time></trkpt>
			<trkpt lat="54.946740" lon="20.231200"><ele>20.4</ele><time>2025-12-08T11:37:05Z</time></trkpt>
			<trkpt lat="54.946710" lon="20.231410"><ele>20.4</ele><time>2025-12-08T11:37:09Z</time></trkpt>
			<trkpt lat="54.946710" lon="20.231530"><ele>20.3</ele><time>2025-12-08T11:37:12Z</time></trkpt>
			<trkpt lat="54.946700" lon="20.231850"><ele>20.3</ele><time>2025-12-08T11:37:16Z</time></trkpt>
			<trkpt lat="54.946680" lon="20.231990"><ele>20.2</ele><time>2025-12-08T11:37:19Z</time></trkpt>
			<trkpt lat="54.946660" lon="20.232110"><ele>20.2</ele><time>2025-12-08T11:37:23Z</time></trkpt>
			<trkpt lat="54.946610" lon="20.232320"><ele>20.1</ele><time>2025-12-08T11:37:26Z</time></trkpt>
			<trkpt lat="54.946570" lon="20.232390"><ele>20.1</ele><time>2025-12-08T11:37:30Z</time></trkpt>
			<trkpt lat="54.946530" lon="20.232480"><ele>20.0</ele><time>2025-12-08T11:37:33Z</time></trkpt>
			<trkpt lat="54.946420" lon="20.232620"><ele>20.0</ele><time>2025-12-08T11:37:37Z</time></trkpt>
			<trkpt lat="54.946290" lon="20.232740"><ele>19.9</ele><time>2025-12-08T11:37:40Z</time></trkpt>
			<trkpt lat="54.946160" lon="20.232830"><ele>19.8</ele><time>2025-12-08T11:37:44Z</time></trkpt>
			<trkpt lat="54.945630" lon="20.233140"><ele>19.5</ele><time>2025-12-08T11:37:47Z</time></trkpt>
			<trkpt lat="54.943470" lon="20.234250"><ele>20.9</ele><time>2025-12-08T11:37:51Z</time></trkpt>
			<trkpt lat="54.943120" lon="20.234400"><ele>22.4</ele><time>2025-12-08T11:37:54Z</time></trkpt>
			<trkpt lat="54.942680" lon="20.234560"><ele>24.3</ele><time>2025-12-08T11:37:58Z</time></trkpt>
			<trkpt lat="54.942140" lon="20.234650"><ele>26.6</ele><time>2025-12-08T11:38:01Z</time></trkpt>
			<trkpt lat="54.941700" lon="20.234690"><ele>28.4</ele><time>2025-12-08T11:38:05Z</time></trkpt>
			<trkpt lat="54.941080" lon="20.234700"><ele>28.1</ele><time>2025-12-08T11:38:08Z</time></trkpt>
			<trkpt lat="54.939510" lon="20.234720"><ele>27.8</ele><time>2025-12-08T11:38:12Z</time></trkpt>
			<trkpt lat="54.938630" lon="20.234710"><ele>28.4</ele><time>2025-12-08T11:38:15Z</time></trkpt>
			<trkpt lat="54.938100" lon="20.234770"><ele>28.8</ele><time>2025-12-08T11:38:19Z</time></trkpt>
			<trkpt lat="54.937810" lon="20.234830"><ele>28.7</ele><time>2025-12-08T11:38:22Z</time></trkpt>
			<trkpt lat="54.937350" lon="20.234970"><ele>28.6</ele><time>2025-12-08T11:38:26Z</time></trkpt>
			<trkpt lat="54.936710" lon="20.235230"><ele>28.5</ele><time>2025-12-08T11:38:29Z</time></trkpt>
			<trkpt lat="54.936450" lon="20.235350"><ele>28.4</ele><time>2025-12-08T11:38:33Z</time></trkpt>
			<trkpt lat="54.935960" lon="20.235580"><ele>27.9</ele><time>2025-12-08T11:38:36Z</time></trkpt>
			<trkpt lat="54.935720" lon="20.235690"><ele>27.6</ele><time>2025-12-08T11:38:40Z</time></trkpt>
			<trkpt lat="54.935390" lon="20.235890"><ele>27.2</ele><time>2025-12-08T11:38:43Z</time></trkpt>
			<trkpt lat="54.935200" lon="20.236000"><ele>27.0</ele><time>2025-12-08T11:38:47Z</time></trkpt>
			<trkpt lat="54.934720" lon="20.236360"><ele>26.4</ele><time>2025-12-08T11:38:50Z</time></trkpt>
			<trkpt lat="54.934310" lon="20.236710"><ele>26.1</ele><time>2025-12-08T11:38:54Z</time></trkpt>
			<trkpt lat="54.934110" lon="20.236880"><ele>26.0</ele><time>2025-12-08T11:38:58Z</time></trkpt>
			<trkpt lat="54.934040" lon="20.236950"><ele>26.0</ele><time>2025-12-08T11:39:01Z</time></trkpt>
			<trkpt lat="54.933700" lon="20.237320"><ele>25.8</ele><time>2025-12-08T11:39:05Z</time></trkpt>
			<trkpt lat="54.933160" lon="20.238010"><ele>25.5</ele><time>2025-12-08T11:39:08Z</time></trkpt>
			<trkpt lat="54.932820" lon="20.238500"><ele>25.9</ele><time>2025-12-08T11:39:12Z</time></trkpt>
			<trkpt lat="54.932370" lon="20.239280"><ele>26.4</ele><time>2025-12-08T11:39:15Z</time></trkpt>
			<trkpt lat="54.932140" lon="20.239750"><ele>26.8</ele><time>2025-12-08T11:39:19Z</time></trkpt>
			<trkpt lat="54.931630" lon="20.240950"><ele>26.8</ele><time>2025-12-08T11:39:22Z</time></trkpt>
			<trkpt lat="54.931300" lon="20.241950"><ele>26.3</ele><time>2025-12-08T11:39:26Z</time></trkpt>
			<trkpt lat="54.931060" lon="20.242830"><ele>25.9</ele><time>2025-12-08T11:39:29Z</time></trkpt>
			<trkpt lat="54.930890" lon="20.243640"><ele>26.0</ele><time>2025-12-08T11:39:33Z</time></trkpt>
			<trkpt lat="54.930760" lon="20.244370"><ele>26.4</ele><time>2025-12-08T11:39:36Z</time></trkpt>
			<trkpt lat="54.930490" lon="20.246250"><ele>27.2</ele><time>2025-12-08T11:39:40Z</time></trkpt>
			<trkpt lat="54.930240" lon="20.248290"><ele>28.4</ele><time>2025-12-08T11:39:43Z</time></trkpt>
			<trkpt lat="54.929780" lon="20.251740"><ele>28.4</ele><time>2025-12-08T11:39:47Z</time></trkpt>
			<trkpt lat="54.929580" lon="20.253450"><ele>28.6</ele><time>2025-12-08T11:39:50Z</time></trkpt>
			<trkpt lat="54.929320" lon="20.254990"><ele>28.9</ele><time>2025-12-08T11:39:54Z</time></trkpt>
			<trkpt lat="54.929000" lon="20.256260"><ele>29.1</ele><time>2025-12-08T11:39:57Z</time></trkpt>
			<trkpt lat="54.928750" lon="20.257090"><ele>29.2</ele><time>2025-12-08T11:40:01Z</time></trkpt>
			<trkpt lat="54.928360" lon="20.258060"><ele>29.3</ele><time>2025-12-08T11:40:04Z</time></trkpt>
			<trkpt lat="54.928060" lon="20.258720"><ele>29.3</ele><time>2025-12-08T11:40:08Z</time></trkpt>
			<trkpt lat="54.927710" lon="20.259420"><ele>29.2</ele><time>2025-12-08T11:40:11Z</time></trkpt>
			<trkpt lat="54.927170" lon="20.260280"><ele>29.2</ele><time>2025-12-08T11:40:15Z</time></trkpt>
			<trkpt lat="54.926800" lon="20.260780"><ele>28.8</ele><time>2025-12-08T11:40:18Z</time></trkpt>
			<trkpt lat="54.926060" lon="20.261550"><ele>28.0</ele><time>2025-12-08T11:40:22Z</time></trkpt>
			<trkpt lat="54.925820" lon="20.261760"><ele>27.7</ele><time>2025-12-08T11:40:25Z</time></trkpt>
			<trkpt lat="54.925300" lon="20.262140"><ele>27.8</ele><time>2025-12-08T11:40:29Z</time></trkpt>
			<trkpt lat="54.924970" lon="20.262360"><ele>28.0</ele><time>2025-12-08T11:40:32Z</time></trkpt>
			<trkpt lat="54.923510" lon="20.263180"><ele>29.5</ele><time>2025-12-08T11:40:36Z</time></trkpt>
			<trkpt lat="54.922920" lon="20.263490"><ele>30.6</ele><time>2025-12-08T11:40:39Z</time></trkpt>
			<trkpt lat="54.922140" lon="20.263860"><ele>32.1</ele><time>2025-12-08T11:40:43Z</time></trkpt>
			<trkpt lat="54.921440" lon="20.264200"><ele>33.5</ele><time>2025-12-08T11:40:46Z</time></trkpt>
			<trkpt lat="54.918580" lon="20.265550"><ele>43.0</ele><time>2025-12-08T11:40:50Z</time></trkpt>
			<trkpt lat="54.917500" lon="20.266220"><ele>43.2</ele><time>2025-12-08T11:40:53Z</time></trkpt>
			<trkpt lat="54.916760" lon="20.266750"><ele>43.0</ele><time>2025-12-08T11:40:57Z</time></trkpt>
			<trkpt lat="54.915750" lon="20.267530"><ele>41.7</ele><time>2025-12-08T11:41:00Z</time></trkpt>
			<trkpt lat="54.915460" lon="20.267810"><ele>41.4</ele><time>2025-12-08T11:41:04Z</time></trkpt>
			<trkpt lat="54.912510" lon="20.269640"><ele>42.6</ele><time>2025-12-08T11:41:07Z</time></trkpt>
			<trkpt lat="54.909880" lon="20.271160"><ele>40.7</ele><time>2025-12-08T11:41:11Z</time></trkpt>
			<trkpt lat="54.906560" lon="20.273010"><ele>45.4</ele><time>2025-12-08T11:41:14Z</time></trkpt>
			<trkpt lat="54.905250" lon="20.273760"><ele>42.7</ele><time>2025-12-08T11:41:18Z</time></trkpt>
			<trkpt lat="54.904190" lon="20.274340"><ele>39.1</ele><time>2025-12-08T11:41:22Z</time></trkpt>
			<trkpt lat="54.904060" lon="20.274380"><ele>38.6</ele><time>2025-12-08T11:41:25Z</time></trkpt>
			<trkpt lat="54.903920" lon="20.274410"><ele>38.1</ele><time>2025-12-08T11:41:29Z</time></trkpt>
			<trkpt lat="54.902030" lon="20.274720"><ele>27.5</ele><time>2025-12-08T11:41:32Z</time></trkpt>
			<trkpt lat="54.901770" lon="20.274740"><ele>25.8</ele><time>2025-12-08T11:41:36Z</time></trkpt>
			<trkpt lat="54.901560" lon="20.274780"><ele>24.5</ele><time>2025-12-08T11:41:39Z</time></trkpt>
			<trkpt lat="54.901410" lon="20.274850"><ele>24.0</ele><time>2025-12-08T11:41:43Z</time></trkpt>
			<trkpt lat="54.901200" lon="20.275060"><ele>23.5</ele><time>2025-12-08T11:41:46Z</time></trkpt>
			<trkpt lat="54.900970" lon="20.275370"><ele>22.9</ele><time>2025-12-08T11:41:50Z</time></trkpt>
			<trkpt lat="54.900600" lon="20.275840"><ele>21.9</ele><time>2025-12-08T11:41:53Z</time></trkpt>
			<trkpt lat="54.900410" lon="20.276090"><ele>21.4</ele><time>2025-12-08T11:41:57Z</time></trkpt>
			<trkpt lat="54.899870" lon="20.276550"><ele>20.4</ele><time>2025-12-08T11:42:00Z</time></trkpt>
			<trkpt lat="54.899650" lon="20.276680"><ele>20.3</ele><time>2025-12-08T11:42:04Z</time></trkpt>
			<trkpt lat="54.898080" lon="20.276730"><ele>20.5</ele><time>2025-12-08T11:42:07Z</time></trkpt>
			<trkpt lat="54.897870" lon="20.276730"><ele>21.8</ele><time>2025-12-08T11:42:11Z</time></trkpt>
			<trkpt lat="54.897680" lon="20.276700"><ele>22.9</ele><time>2025-12-08T11:42:14Z</time></trkpt>
			<trkpt lat="54.897510" lon="20.276630"><ele>23.9</ele><time>2025-12-08T11:42:18Z</time></trkpt>
			<trkpt lat="54.897290" lon="20.276500"><ele>25.3</ele><time>2025-12-08T11:42:21Z</time></trkpt>
			<trkpt lat="54.897000" lon="20.276350"><ele>27.1</ele><time>2025-12-08T11:42:25Z</time></trkpt>
			<trkpt lat="54.896910" lon="20.276330"><ele>27.6</ele><time>2025-12-08T11:42:28Z</time></trkpt>
			<trkpt lat="54.896790" lon="20.276360"><ele>28.3</ele><time>2025-12-08T11:42:32Z</time></trkpt>
			<trkpt lat="54.896670" lon="20.276420"><ele>29.1</ele><time>2025-12-08T11:42:35Z</time></trkpt>
			<trkpt lat="54.896580" lon="20.276360"><ele>29.6</ele><time>2025-12-08T11:42:39Z</time></trkpt>
			<trkpt lat="54.896420" lon="20.276300"><ele>30.4</ele><time>2025-12-08T11:42:42Z</time></trkpt>
			<trkpt lat="54.896419" lon="20.276301"><ele>30.4</ele><time>2025-12-08T11:42:45Z</time></trkpt>
			<trkpt lat="54.896250" lon="20.276240"><ele>30.7</ele><time>2025-12-08T11:42:48Z</time></trkpt>
			<trkpt lat="54.896050" lon="20.276020"><ele>31.1</ele><time>2025-12-08T11:42:51Z</time></trkpt>
			<trkpt lat="54.895670" lon="20.275530"><ele>32.0</ele><time>2025-12-08T11:42:54Z</time></trkpt>
			<trkpt lat="54.895570" lon="20.275440"><ele>32.3</ele><time>2025-12-08T11:42:57Z</time></trkpt>
			<trkpt lat="54.895460" lon="20.275370"><ele>32.5</ele><time>2025-12-08T11:43:00Z</time></trkpt>
			<trkpt lat="54.895160" lon="20.275240"><ele>33.1</ele><time>2025-12-08T11:43:03Z</time></trkpt>
			<trkpt lat="54.894660" lon="20.275080"><ele>33.2</ele><time>2025-12-08T11:43:06Z</time></trkpt>
			<trkpt lat="54.893900" lon="20.274930"><ele>31.1</ele><time>2025-12-08T11:43:09Z</time></trkpt>
			<trkpt lat="54.893720" lon="20.274890"><ele>30.7</ele><time>2025-12-08T11:43:12Z</time></trkpt>
			<trkpt lat="54.892830" lon="20.274790"><ele>28.1</ele><time>2025-12-08T11:43:15Z</time></trkpt>
			<trkpt lat="54.892580" lon="20.274760"><ele>27.1</ele><time>2025-12-08T11:43:17Z</time></trkpt>
			<trkpt lat="54.892270" lon="20.274770"><ele>26.0</ele><time>2025-12-08T11:43:20Z</time></trkpt>
			<trkpt lat="54.891780" lon="20.274730"><ele>24.2</ele><time>2025-12-08T11:43:23Z</time></trkpt>
			<trkpt lat="54.891000" lon="20.274420"><ele>22.4</ele><time>2025-12-08T11:43:26Z</time></trkpt>
			<trkpt lat="54.890830" lon="20.274350"><ele>22.5</ele><time>2025-12-08T11:43:29Z</time></trkpt>
			<trkpt lat="54.890520" lon="20.274210"><ele>22.7</ele><time>2025-12-08T11:43:32Z</time></trkpt>
			<trkpt lat="54.890410" lon="20.274080"><ele>22.7</ele><time>2025-12-08T11:43:35Z</time></trkpt>
			<trkpt lat="54.890270" lon="20.273820"><ele>22.9</ele><time>2025-12-08T11:43:38Z</time></trkpt>
			<trkpt lat="54.890140" lon="20.273520"><ele>23.0</ele><time>2025-12-08T11:43:41Z</time></trkpt>
			<trkpt lat="54.889640" lon="20.272230"><ele>24.6</ele><time>2025-12-08T11:43:44Z</time></trkpt>
			<trkpt lat="54.889420" lon="20.271860"><ele>25.6</ele><time>2025-12-08T11:43:47Z</time></trkpt>
			<trkpt lat="54.889000" lon="20.271260"><ele>27.4</ele><time>2025-12-08T11:43:50Z</time></trkpt>
			<trkpt lat="54.888760" lon="20.270990"><ele>28.4</ele><time>2025-12-08T11:43:53Z</time></trkpt>
			<trkpt lat="54.887830" lon="20.270140"><ele>30.1</ele><time>2025-12-08T11:43:56Z</time></trkpt>
			<trkpt lat="54.885980" lon="20.268580"><ele>32.5</ele><time>2025-12-08T11:43:58Z</time></trkpt>
			<trkpt lat="54.885230" lon="20.268120"><ele>33.5</ele><time>2025-12-08T11:44:01Z</time></trkpt>
			<trkpt lat="54.884240" lon="20.267640"><ele>33.5</ele><time>2025-12-08T11:44:04Z</time></trkpt>
			<trkpt lat="54.883640" lon="20.267190"><ele>33.4</ele><time>2025-12-08T11:44:07Z</time></trkpt>
			<trkpt lat="54.882240" lon="20.265540"><ele>35.6</ele><time>2025-12-08T11:44:10Z</time></trkpt>
			<trkpt lat="54.881890" lon="20.265050"><ele>36.4</ele><time>2025-12-08T11:44:13Z</time></trkpt>
			<trkpt lat="54.881770" lon="20.264640"><ele>36.9</ele><time>2025-12-08T11:44:16Z</time></trkpt>
			<trkpt lat="54.881720" lon="20.264200"><ele>37.5</ele><time>2025-12-08T11:44:19Z</time></trkpt>
			<trkpt lat="54.881670" lon="20.263620"><ele>38.1</ele><time>2025-12-08T11:44:22Z</time></trkpt>
			<trkpt lat="54.881450" lon="20.258880"><ele>37.4</ele><time>2025-12-08T11:44:25Z</time></trkpt>
			<trkpt lat="54.881360" lon="20.258390"><ele>36.8</ele><time>2025-12-08T11:44:28Z</time></trkpt>
			<trkpt lat="54.881190" lon="20.257880"><ele>36.0</ele><time>2025-12-08T11:44:31Z</time></trkpt>
			<trkpt lat="54.880490" lon="20.256360"><ele>33.9</ele><time>2025-12-08T11:44:34Z</time></trkpt>
			<trkpt lat="54.880440" lon="20.255980"><ele>33.9</ele><time>2025-12-08T11:44:37Z</time></trkpt>
			<trkpt lat="54.880490" lon="20.255710"><ele>33.8</ele><time>2025-12-08T11:44:40Z</time></trkpt>
			<trkpt lat="54.880630" lon="20.255400"><ele>33.8</ele><time>2025-12-08T11:44:42Z</time></trkpt>
			<trkpt lat="54.880780" lon="20.254920"><ele>33.7</ele><time>2025-12-08T11:44:45Z</time></trkpt>
			<trkpt lat="54.881160" lon="20.253910"><ele>33.6</ele><time>2025-12-08T11:44:48Z</time></trkpt>
			<trkpt lat="54.881360" lon="20.253340"><ele>34.3</ele><time>2025-12-08T11:44:51Z</time></trkpt>
			<trkpt lat="54.881360" lon="20.253340"><ele>34.3</ele><time>2025-12-08T11:44:58Z</time></trkpt>
			<trkpt lat="54.881690" lon="20.252410"><ele>35.4</ele><time>2025-12-08T11:45:06Z</time></trkpt>
			<trkpt lat="54.881840" lon="20.251910"><ele>35.9</ele><time>2025-12-08T11:45:13Z</time></trkpt>
			<trkpt lat="54.881940" lon="20.251530"><ele>36.3</ele><time>2025-12-08T11:45:20Z</time></trkpt>
			<trkpt lat="54.882030" lon="20.251070"><ele>36.7</ele><time>2025-12-08T11:45:27Z</time></trkpt>
			<trkpt lat="54.882130" lon="20.250480"><ele>36.2</ele><time>2025-12-08T11:45:34Z</time></trkpt>
			<trkpt lat="54.882240" lon="20.249660"><ele>35.5</ele><time>2025-12-08T11:45:41Z</time></trkpt>
			<trkpt lat="54.882800" lon="20.244990"><ele>37.9</ele><time>2025-12-08T11:45:48Z</time></trkpt>
			<trkpt lat="54.883240" lon="20.241250"><ele>46.1</ele><time>2025-12-08T11:45:56Z</time></trkpt>
			<trkpt lat="54.883630" lon="20.238310"><ele>56.2</ele><time>2025-12-08T11:46:03Z</time></trkpt>
			<trkpt lat="54.883690" lon="20.237910"><ele>57.3</ele><time>2025-12-08T11:46:10Z</time></trkpt>
			<trkpt lat="54.883790" lon="20.237600"><ele>58.2</ele><time>2025-12-08T11:46:17Z</time></trkpt>
			<trkpt lat="54.884020" lon="20.236960"><ele>60.2</ele><time>2025-12-08T11:46:24Z</time></trkpt>
			<trkpt lat="54.885010" lon="20.234650"><ele>64.5</ele><time>2025-12-08T11:46:31Z</time></trkpt>
			<trkpt lat="54.885060" lon="20.234530"><ele>64.6</ele><time>2025-12-08T11:46:38Z</time></trkpt>
			<trkpt lat="54.887540" lon="20.228740"><ele>57.6</ele><time>2025-12-08T11:46:45Z</time></trkpt>
			<trkpt lat="54.886890" lon="20.227860"><ele>57.7</ele><time>2025-12-08T11:46:53Z</time></trkpt>
			<trkpt lat="54.886630" lon="20.227500"><ele>57.9</ele><time>2025-12-08T11:47:00Z</time></trkpt>
			<trkpt lat="54.886540" lon="20.227300"><ele>57.9</ele><time>2025-12-08T11:47:07Z</time></trkpt>
			<trkpt lat="54.886250" lon="20.225630"><ele>58.1</ele><time>2025-12-08T11:47:14Z</time></trkpt>
			<trkpt lat="54.886150" lon="20.225020"><ele>58.1</ele><time>2025-12-08T11:47:21Z</time></trkpt>
			<trkpt lat="54.886100" lon="20.224420"><ele>58.0</ele><time>2025-12-08T11:47:28Z</time></trkpt>
			<trkpt lat="54.886040" lon="20.223480"><ele>57.9</ele><time>2025-12-08T11:47:35Z</time></trkpt>
			<trkpt lat="54.885980" lon="20.222380"><ele>57.8</ele><time>2025-12-08T11:47:43Z</time></trkpt>
			<trkpt lat="54.885970" lon="20.221870"><ele>57.7</ele><time>2025-12-08T11:47:50Z</time></trkpt>
			<trkpt lat="54.885950" lon="20.220160"><ele>57.6</ele><time>2025-12-08T11:47:57Z</time></trkpt>
			<trkpt lat="54.885990" lon="20.218670"><ele>53.3</ele><time>2025-12-08T11:48:04Z</time></trkpt>
			<trkpt lat="54.885990" lon="20.217850"><ele>50.8</ele><time>2025-12-08T11:48:11Z</time></trkpt>
			<trkpt lat="54.886000" lon="20.217540"><ele>49.8</ele><time>2025-12-08T11:48:18Z</time></trkpt>
			<trkpt lat="54.886040" lon="20.216760"><ele>48.6</ele><time>2025-12-08T11:48:25Z</time></trkpt>
			<trkpt lat="54.886170" lon="20.216340"><ele>49.8</ele><time>2025-12-08T11:48:33Z</time></trkpt>
			<trkpt lat="54.886470" lon="20.215100"><ele>53.4</ele><time>2025-12-08T11:48:40Z</time></trkpt>
			<trkpt lat="54.886480" lon="20.214800"><ele>54.2</ele><time>2025-12-08T11:48:47Z</time></trkpt>
			<trkpt lat="54.886570" lon="20.213460"><ele>56.1</ele><time>2025-12-08T11:48:54Z</time></trkpt>
			<trkpt lat="54.886600" lon="20.212880"><ele>55.8</ele><time>2025-12-08T11:49:01Z</time></trkpt>
			<trkpt lat="54.886520" lon="20.211400"><ele>55.0</ele><time>2025-12-08T11:49:08Z</time></trkpt>
			<trkpt lat="54.886400" lon="20.208960"><ele>54.4</ele><time>2025-12-08T11:49:15Z</time></trkpt>
			<trkpt lat="54.886350" lon="20.207840"><ele>54.2</ele><time>2025-12-08T11:49:23Z</time></trkpt>
			<trkpt lat="54.886370" lon="20.207660"><ele>54.3</ele><time>2025-12-08T11:49:30Z</time></trkpt>
			<trkpt lat="54.886530" lon="20.206450"><ele>55.5</ele><time>2025-12-08T11:49:37Z</time></trkpt>
			<trkpt lat="54.886560" lon="20.206120"><ele>55.9</ele><time>2025-12-08T11:49:44Z</time></trkpt>
			<trkpt lat="54.886910" lon="20.202950"><ele>57.4</ele><time>2025-12-08T11:49:51Z</time></trkpt>
			<trkpt lat="54.886980" lon="20.201840"><ele>57.3</ele><time>2025-12-08T11:49:58Z</time></trkpt>
			<trkpt lat="54.886950" lon="20.201600"><ele>57.3</ele><time>2025-12-08T11:50:05Z</time></trkpt>
			<trkpt lat="54.886930" lon="20.201460"><ele>57.3</ele><time>2025-12-08T11:50:13Z</time></trkpt>
			<trkpt lat="54.886870" lon="20.201210"><ele>57.1</ele><time>2025-12-08T11:50:20Z</time></trkpt>
			<trkpt lat="54.885860" lon="20.197880"><ele>54.6</ele><time>2025-12-08T11:50:27Z</time></trkpt>
			<trkpt lat="54.885210" lon="20.195680"><ele>53.7</ele><time>2025-12-08T11:50:34Z</time></trkpt>
			<trkpt lat="54.885020" lon="20.195160"><ele>53.6</ele><time>2025-12-08T11:50:41Z</time></trkpt>
			<trkpt lat="54.880840" lon="20.187510"><ele>57.8</ele><time>2025-12-08T11:50:48Z</time></trkpt>
			<trkpt lat="54.880460" lon="20.186850"><ele>58.2</ele><time>2025-12-08T11:50:55Z</time></trkpt>
			<trkpt lat="54.879470" lon="20.185610"><ele>60.1</ele><time>2025-12-08T11:51:03Z</time></trkpt>
			<trkpt lat="54.878320" lon="20.184230"><ele>62.9</ele><time>2025-12-08T11:51:10Z</time></trkpt>
			<trkpt lat="54.876070" lon="20.181360"><ele>61.2</ele><time>2025-12-08T11:51:17Z</time></trkpt>
			<trkpt lat="54.875380" lon="20.180500"><ele>60.2</ele><time>2025-12-08T11:51:24Z</time></trkpt>
			<trkpt lat="54.874400" lon="20.179290"><ele>58.9</ele><time>2025-12-08T11:51:31Z</time></trkpt>
			<trkpt lat="54.874290" lon="20.179140"><ele>58.8</ele><time>2025-12-08T11:51:38Z</time></trkpt>
			<trkpt lat="54.872440" lon="20.176900"><ele>58.7</ele><time>2025-12-08T11:51:45Z</time></trkpt>
			<trkpt lat="54.871860" lon="20.176180"><ele>59.6</ele><time>2025-12-08T11:51:53Z</time></trkpt>
			<trkpt lat="54.868000" lon="20.171500"><ele>59.1</ele><time>2025-12-08T11:52:00Z</time></trkpt>
			<trkpt lat="54.866370" lon="20.169360"><ele>54.9</ele><time>2025-12-08T11:52:07Z</time></trkpt>
			<trkpt lat="54.863150" lon="20.165340"><ele>49.2</ele><time>2025-12-08T11:52:14Z</time></trkpt>
			<trkpt lat="54.860810" lon="20.162030"><ele>48.5</ele><time>2025-12-08T11:52:21Z</time></trkpt>
			<trkpt lat="54.857380" lon="20.157400"><ele>43.3</ele><time>2025-12-08T11:52:28Z</time></trkpt>
			<trkpt lat="54.858370" lon="20.155300"><ele>42.9</ele><time>2025-12-08T11:52:35Z</time></trkpt>
			<trkpt lat="54.858370" lon="20.155300"><ele>42.9</ele><time>2025-12-08T11:52:40Z</time></trkpt>
			<trkpt lat="54.858750" lon="20.154470"><ele>43.0</ele><time>2025-12-08T11:52:45Z</time></trkpt>
			<trkpt lat="54.858920" lon="20.154310"><ele>43.0</ele><time>2025-12-08T11:52:50Z</time></trkpt>
			<trkpt lat="54.859200" lon="20.154220"><ele>43.2</ele><time>2025-12-08T11:52:55Z</time></trkpt>
			<trkpt lat="54.860300" lon="20.154030"><ele>43.6</ele><time>2025-12-08T11:53:00Z</time></trkpt>
			<trkpt lat="54.860470" lon="20.153960"><ele>43.7</ele><time>2025-12-08T11:53:05Z</time></trkpt>
			<trkpt lat="54.860620" lon="20.153750"><ele>43.9</ele><time>2025-12-08T11:53:10Z</time></trkpt>
			<trkpt lat="54.861770" lon="20.152030"><ele>45.6</ele><time>2025-12-08T11:53:15Z</time></trkpt>
			<trkpt lat="54.863430" lon="20.149520"><ele>48.5</ele><time>2025-12-08T11:53:20Z</time></trkpt>
			<trkpt lat="54.863860" lon="20.148880"><ele>48.7</ele><time>2025-12-08T11:53:25Z</time></trkpt>
			<trkpt lat="54.864020" lon="20.148650"><ele>48.7</ele><time>2025-12-08T11:53:30Z</time></trkpt>
			<trkpt lat="54.864450" lon="20.148270"><ele>48.9</ele><time>2025-12-08T11:53:35Z</time></trkpt>
			<trkpt lat="54.864490" lon="20.148270"><ele>48.9</ele><time>2025-12-08T11:53:40Z</time></trkpt>
			<trkpt lat="54.864600" lon="20.148250"><ele>49.0</ele><time>2025-12-08T11:53:44Z</time></trkpt>
			<trkpt lat="54.864810" lon="20.148370"><ele>49.0</ele><time>2025-12-08T11:53:49Z</time></trkpt>
			<trkpt lat="54.865080" lon="20.148560"><ele>49.1</ele><time>2025-12-08T11:53:54Z</time></trkpt>
			<trkpt lat="54.865560" lon="20.148990"><ele>49.2</ele><time>2025-12-08T11:53:59Z</time></trkpt>
			<trkpt lat="54.865750" lon="20.149140"><ele>49.3</ele><time>2025-12-08T11:54:04Z</time></trkpt>
			<trkpt lat="54.866440" lon="20.149610"><ele>49.3</ele><time>2025-12-08T11:54:09Z</time></trkpt>
			<trkpt lat="54.869260" lon="20.151380"><ele>48.9</ele><time>2025-12-08T11:54:14Z</time></trkpt>
			<trkpt lat="54.870790" lon="20.152350"><ele>49.6</ele><time>2025-12-08T11:54:19Z</time></trkpt>
			<trkpt lat="54.871330" lon="20.152670"><ele>49.9</ele><time>2025-12-08T11:54:24Z</time></trkpt>
			<trkpt lat="54.873190" lon="20.153500"><ele>53.4</ele><time>2025-12-08T11:54:29Z</time></trkpt>
			<trkpt lat="54.876050" lon="20.154800"><ele>55.3</ele><time>2025-12-08T11:54:34Z</time></trkpt>
			<trkpt lat="54.876110" lon="20.154790"><ele>55.3</ele><time>2025-12-08T11:54:39Z</time></trkpt>
			<trkpt lat="54.876180" lon="20.154740"><ele>55.3</ele><time>2025-12-08T11:54:44Z</time></trkpt>
			<trkpt lat="54.876280" lon="20.154640"><ele>55.4</ele><time>2025-12-08T11:54:49Z</time></trkpt>
			<trkpt lat="54.876510" lon="20.154440"><ele>55.5</ele><time>2025-12-08T11:54:53Z</time></trkpt>
			<trkpt lat="54.877210" lon="20.153910"><ele>56.2</ele><time>2025-12-08T11:54:58Z</time></trkpt>
			<trkpt lat="54.877430" lon="20.153760"><ele>56.5</ele><time>2025-12-08T11:55:03Z</time></trkpt>
			<trkpt lat="54.877600" lon="20.153690"><ele>56.6</ele><time>2025-12-08T11:55:08Z</time></trkpt>
			<trkpt lat="54.877790" lon="20.153660"><ele>56.8</ele><time>2025-12-08T11:55:13Z</time></trkpt>
			<trkpt lat="54.878580" lon="20.153580"><ele>57.4</ele><time>2025-12-08T11:55:18Z</time></trkpt>
			<trkpt lat="54.879230" lon="20.153460"><ele>57.6</ele><time>2025-12-08T11:55:23Z</time></trkpt>
			<trkpt lat="54.880010" lon="20.153330"><ele>57.9</ele><time>2025-12-08T11:55:28Z</time></trkpt>
			<trkpt lat="54.880600" lon="20.153170"><ele>57.8</ele><time>2025-12-08T11:55:33Z</time></trkpt>
			<trkpt lat="54.882420" lon="20.152340"><ele>57.1</ele><time>2025-12-08T11:55:38Z</time></trkpt>
			<trkpt lat="54.882680" lon="20.152180"><ele>56.8</ele><time>2025-12-08T11:55:43Z</time></trkpt>
			<trkpt lat="54.882910" lon="20.151970"><ele>56.6</ele><time>2025-12-08T11:55:48Z</time></trkpt>
			<trkpt lat="54.883150" lon="20.151610"><ele>56.2</ele><time>2025-12-08T11:55:53Z</time></trkpt>
			<trkpt lat="54.884970" lon="20.148690"><ele>54.9</ele><time>2025-12-08T11:55:58Z</time></trkpt>
			<trkpt lat="54.885120" lon="20.147750"><ele>54.5</ele><time>2025-12-08T11:56:03Z</time></trkpt>
			<trkpt lat="54.885160" lon="20.147320"><ele>54.4</ele><time>2025-12-08T11:56:07Z</time></trkpt>
			<trkpt lat="54.885360" lon="20.146900"><ele>54.2</ele><time>2025-12-08T11:56:12Z</time></trkpt>
			<trkpt lat="54.885700" lon="20.146680"><ele>54.0</ele><time>2025-12-08T11:56:17Z</time></trkpt>
			<trkpt lat="54.886280" lon="20.146530"><ele>54.6</ele><time>2025-12-08T11:56:22Z</time></trkpt>
			<trkpt lat="54.887240" lon="20.145150"><ele>55.8</ele><time>2025-12-08T11:56:27Z</time></trkpt>
			<trkpt lat="54.887410" lon="20.144860"><ele>56.2</ele><time>2025-12-08T11:56:32Z</time></trkpt>
			<trkpt lat="54.887550" lon="20.144390"><ele>56.6</ele><time>2025-12-08T11:56:37Z</time></trkpt>
			<trkpt lat="54.887820" lon="20.142710"><ele>58.1</ele><time>2025-12-08T11:56:42Z</time></trkpt>
			<trkpt lat="54.887930" lon="20.142170"><ele>58.5</ele><time>2025-12-08T11:56:47Z</time></trkpt>
			<trkpt lat="54.888150" lon="20.141080"><ele>58.6</ele><time>2025-12-08T11:56:52Z</time></trkpt>
			<trkpt lat="54.888180" lon="20.140770"><ele>58.7</ele><time>2025-12-08T11:56:57Z</time></trkpt>
			<trkpt lat="54.888220" lon="20.140360"><ele>58.7</ele><time>2025-12-08T11:57:02Z</time></trkpt>
			<trkpt lat="54.888230" lon="20.140130"><ele>58.7</ele><time>2025-12-08T11:57:07Z</time></trkpt>
			<trkpt lat="54.888240" lon="20.139890"><ele>58.8</ele><time>2025-12-08T11:57:12Z</time></trkpt>
			<trkpt lat="54.888240" lon="20.139340"><ele>58.9</ele><time>2025-12-08T11:57:17Z</time></trkpt>
			<trkpt lat="54.888160" lon="20.138690"><ele>59.0</ele><time>2025-12-08T11:57:21Z</time></trkpt>
			<trkpt lat="54.891090" lon="20.136640"><ele>59.8</ele><time>2025-12-08T11:57:26Z</time></trkpt>
			<trkpt lat="54.892490" lon="20.135560"><ele>58.7</ele><time>2025-12-08T11:57:31Z</time></trkpt>
			<trkpt lat="54.893070" lon="20.135040"><ele>58.1</ele><time>2025-12-08T11:57:36Z</time></trkpt>
			<trkpt lat="54.893450" lon="20.134520"><ele>57.4</ele><time>2025-12-08T11:57:41Z</time></trkpt>
			<trkpt lat="54.894740" lon="20.132150"><ele>56.0</ele><time>2025-12-08T11:57:46Z</time></trkpt>
			<trkpt lat="54.896920" lon="20.128290"><ele>59.1</ele><time>2025-12-08T11:57:51Z</time></trkpt>
			<trkpt lat="54.896930" lon="20.128270"><ele>59.1</ele><time>2025-12-08T11:57:56Z</time></trkpt>
			<trkpt lat="54.897630" lon="20.126990"><ele>58.1</ele><time>2025-12-08T11:58:01Z</time></trkpt>
			<trkpt lat="54.898350" lon="20.125620"><ele>57.2</ele><time>2025-12-08T11:58:06Z</time></trkpt>
			<trkpt lat="54.898930" lon="20.124530"><ele>56.6</ele><time>2025-12-08T11:58:11Z</time></trkpt>
			<trkpt lat="54.899480" lon="20.123370"><ele>57.7</ele><time>2025-12-08T11:58:16Z</time></trkpt>
			<trkpt lat="54.899600" lon="20.123200"><ele>58.1</ele><time>2025-12-08T11:58:21Z</time></trkpt>
			<trkpt lat="54.899810" lon="20.123010"><ele>58.8</ele><time>2025-12-08T11:58:26Z</time></trkpt>
			<trkpt lat="54.900420" lon="20.122600"><ele>60.6</ele><time>2025-12-08T11:58:31Z</time></trkpt>
			<trkpt lat="54.900280" lon="20.121840"><ele>61.2</ele><time>2025-12-08T11:58:35Z</time></trkpt>
			<trkpt lat="54.900160" lon="20.121410"><ele>60.9</ele><time>2025-12-08T11:58:40Z</time></trkpt>
			<trkpt lat="54.900020" lon="20.121010"><ele>60.6</ele><time>2025-12-08T11:58:45Z</time></trkpt>
			<trkpt lat="54.900020" lon="20.121010"><ele>60.6</ele><time>2025-12-08T11:58:50Z</time></trkpt>
			<trkpt lat="54.899590" lon="20.119820"><ele>59.7</ele><time>2025-12-08T11:58:56Z</time></trkpt>
			<trkpt lat="54.898520" lon="20.117040"><ele>55.9</ele><time>2025-12-08T11:59:01Z</time></trkpt>
			<trkpt lat="54.897210" lon="20.113690"><ele>57.3</ele><time>2025-12-08T11:59:06Z</time></trkpt>
			<trkpt lat="54.894840" lon="20.107580"><ele>60.6</ele><time>2025-12-08T11:59:11Z</time></trkpt>
			<trkpt lat="54.894810" lon="20.107500"><ele>60.5</ele><time>2025-12-08T11:59:16Z</time></trkpt>
			<trkpt lat="54.893840" lon="20.104990"><ele>58.2</ele><time>2025-12-08T11:59:21Z</time></trkpt>
			<trkpt lat="54.893780" lon="20.104720"><ele>58.1</ele><time>2025-12-08T11:59:26Z</time></trkpt>
			<trkpt lat="54.894280" lon="20.104640"><ele>57.7</ele><time>2025-12-08T11:59:31Z</time></trkpt>
			<trkpt lat="54.894870" lon="20.104570"><ele>56.4</ele><time>2025-12-08T11:59:36Z</time></trkpt>
			<trkpt lat="54.895060" lon="20.104520"><ele>55.9</ele><time>2025-12-08T11:59:41Z</time></trkpt>
			<trkpt lat="54.895140" lon="20.104470"><ele>55.6</ele><time>2025-12-08T11:59:47Z</time></trkpt>
			<trkpt lat="54.895210" lon="20.104370"><ele>55.4</ele><time>2025-12-08T11:59:52Z</time></trkpt>
			<trkpt lat="54.895250" lon="20.104310"><ele>55.3</ele><time>2025-12-08T11:59:57Z</time></trkpt>
			<trkpt lat="54.895280" lon="20.104200"><ele>55.1</ele><time>2025-12-08T12:00:02Z</time></trkpt>
			<trkpt lat="54.895310" lon="20.104070"><ele>54.9</ele><time>2025-12-08T12:00:07Z</time></trkpt>
			<trkpt lat="54.895340" lon="20.103890"><ele>54.6</ele><time>2025-12-08T12:00:12Z</time></trkpt>
			<trkpt lat="54.895360" lon="20.103730"><ele>54.3</ele><time>2025-12-08T12:00:17Z</time></trkpt>
			<trkpt lat="54.895440" lon="20.102890"><ele>53.0</ele><time>2025-12-08T12:00:22Z</time></trkpt>
			<trkpt lat="54.895450" lon="20.102800"><ele>52.9</ele><time>2025-12-08T12:00:27Z</time></trkpt>
			<trkpt lat="54.895490" lon="20.102650"><ele>52.4</ele><time>2025-12-08T12:00:32Z</time></trkpt>
			<trkpt lat="54.895540" lon="20.102490"><ele>51.7</ele><time>2025-12-08T12:00:38Z</time></trkpt>
			<trkpt lat="54.895620" lon="20.102270"><ele>50.7</ele><time>2025-12-08T12:00:43Z</time></trkpt>
			<trkpt lat="54.896460" lon="20.100650"><ele>42.5</ele><time>2025-12-08T12:00:48Z</time></trkpt>
			<trkpt lat="54.896760" lon="20.099980"><ele>42.2</ele><time>2025-12-08T12:00:53Z</time></trkpt>
			<trkpt lat="54.896890" lon="20.099750"><ele>43.2</ele><time>2025-12-08T12:00:58Z</time></trkpt>
			<trkpt lat="54.896970" lon="20.099670"><ele>43.6</ele><time>2025-12-08T12:01:03Z</time></trkpt>
			<trkpt lat="54.897200" lon="20.099500"><ele>44.9</ele><time>2025-12-08T12:01:08Z</time></trkpt>
			<trkpt lat="54.897540" lon="20.099370"><ele>46.7</ele><time>2025-12-08T12:01:13Z</time></trkpt>
			<trkpt lat="54.897750" lon="20.099300"><ele>47.7</ele><time>2025-12-08T12:01:18Z</time></trkpt>
			<trkpt lat="54.899880" lon="20.098770"><ele>52.3</ele><time>2025-12-08T12:01:23Z</time></trkpt>
			<trkpt lat="54.903230" lon="20.097980"><ele>54.7</ele><time>2025-12-08T12:01:29Z</time></trkpt>
			<trkpt lat="54.908350" lon="20.096750"><ele>61.1</ele><time>2025-12-08T12:01:34Z</time></trkpt>
			<trkpt lat="54.908970" lon="20.096610"><ele>62.7</ele><time>2025-12-08T12:01:39Z</time></trkpt>
			<trkpt lat="54.909400" lon="20.096500"><ele>64.9</ele><time>2025-12-08T12:01:44Z</time></trkpt>
			<trkpt lat="54.911620" lon="20.095970"><ele>73.1</ele><time>2025-12-08T12:01:49Z</time></trkpt>
			<trkpt lat="54.912150" lon="20.095600"><ele>73.9</ele><time>2025-12-08T12:01:54Z</time></trkpt>
			<trkpt lat="54.912340" lon="20.095470"><ele>74.2</ele><time>2025-12-08T12:01:59Z</time></trkpt>
			<trkpt lat="54.912580" lon="20.095280"><ele>74.1</ele><time>2025-12-08T12:02:04Z</time></trkpt>
			<trkpt lat="54.912640" lon="20.095220"><ele>73.9</ele><time>2025-12-08T12:02:09Z</time></trkpt>
			<trkpt lat="54.912640" lon="20.095220"><ele>73.9</ele><time>2025-12-08T12:02:14Z</time></trkpt>
			<trkpt lat="54.913480" lon="20.094370"><ele>71.5</ele><time>2025-12-08T12:02:19Z</time></trkpt>
			<trkpt lat="54.914660" lon="20.094170"><ele>71.1</ele><time>2025-12-08T12:02:23Z</time></trkpt>
			<trkpt lat="54.915040" lon="20.094140"><ele>71.9</ele><time>2025-12-08T12:02:28Z</time></trkpt>
			<trkpt lat="54.917120" lon="20.093840"><ele>69.5</ele><time>2025-12-08T12:02:33Z</time></trkpt>
			<trkpt lat="54.917430" lon="20.093800"><ele>68.4</ele><time>2025-12-08T12:02:37Z</time></trkpt>
			<trkpt lat="54.918830" lon="20.093340"><ele>65.1</ele><time>2025-12-08T12:02:42Z</time></trkpt>
			<trkpt lat="54.919300" lon="20.093470"><ele>64.1</ele><time>2025-12-08T12:02:46Z</time></trkpt>
			<trkpt lat="54.919810" lon="20.094000"><ele>63.0</ele><time>2025-12-08T12:02:51Z</time></trkpt>
			<trkpt lat="54.920300" lon="20.094500"><ele>62.1</ele><time>2025-12-08T12:02:56Z</time></trkpt>
			<trkpt lat="54.920830" lon="20.094670"><ele>61.1</ele><time>2025-12-08T12:03:00Z</time></trkpt>
			<trkpt lat="54.921130" lon="20.094570"><ele>60.6</ele><time>2025-12-08T12:03:05Z</time></trkpt>
			<trkpt lat="54.921350" lon="20.094470"><ele>60.4</ele><time>2025-12-08T12:03:09Z</time></trkpt>
			<trkpt lat="54.921510" lon="20.094350"><ele>60.3</ele><time>2025-12-08T12:03:14Z</time></trkpt>
			<trkpt lat="54.921750" lon="20.094160"><ele>60.1</ele><time>2025-12-08T12:03:19Z</time></trkpt>
			<trkpt lat="54.922540" lon="20.093220"><ele>59.3</ele><time>2025-12-08T12:03:23Z</time></trkpt>
			<trkpt lat="54.922770" lon="20.092990"><ele>59.2</ele><time>2025-12-08T12:03:28Z</time></trkpt>
			<trkpt lat="54.923370" lon="20.092580"><ele>58.9</ele><time>2025-12-08T12:03:33Z</time></trkpt>
			<trkpt lat="54.923460" lon="20.092540"><ele>58.9</ele><time>2025-12-08T12:03:37Z</time></trkpt>
			<trkpt lat="54.925400" lon="20.092690"><ele>59.0</ele><time>2025-12-08T12:03:42Z</time></trkpt>
			<trkpt lat="54.927470" lon="20.092650"><ele>59.4</ele><time>2025-12-08T12:03:46Z</time></trkpt>
			<trkpt lat="54.927660" lon="20.092640"><ele>59.4</ele><time>2025-12-08T12:03:51Z</time></trkpt>
			<trkpt lat="54.927860" lon="20.092570"><ele>59.5</ele><time>2025-12-08T12:03:56Z</time></trkpt>
			<trkpt lat="54.928040" lon="20.092450"><ele>59.5</ele><time>2025-12-08T12:04:00Z</time></trkpt>
			<trkpt lat="54.928240" lon="20.092250"><ele>59.6</ele><time>2025-12-08T12:04:05Z</time></trkpt>
			<trkpt lat="54.929090" lon="20.091250"><ele>60.0</ele><time>2025-12-08T12:04:09Z</time></trkpt>
			<trkpt lat="54.929780" lon="20.090600"><ele>60.0</ele><time>2025-12-08T12:04:14Z</time></trkpt>
			<trkpt lat="54.930050" lon="20.090430"><ele>59.8</ele><time>2025-12-08T12:04:19Z</time></trkpt>
			<trkpt lat="54.930270" lon="20.090360"><ele>59.6</ele><time>2025-12-08T12:04:23Z</time></trkpt>
			<trkpt lat="54.930940" lon="20.090230"><ele>59.1</ele><time>2025-12-08T12:04:28Z</time></trkpt>
			<trkpt lat="54.931940" lon="20.090080"><ele>58.3</ele><time>2025-12-08T12:04:33Z</time></trkpt>
			<trkpt lat="54.934020" lon="20.088460"><ele>56.7</ele><time>2025-12-08T12:04:37Z</time></trkpt>
			<trkpt lat="54.934660" lon="20.087960"><ele>56.2</ele><time>2025-12-08T12:04:42Z</time></trkpt>
			<trkpt lat="54.936250" lon="20.086720"><ele>56.2</ele><time>2025-12-08T12:04:46Z</time></trkpt>
			<trkpt lat="54.938100" lon="20.085310"><ele>58.5</ele><time>2025-12-08T12:04:51Z</time></trkpt>
			<trkpt lat="54.939220" lon="20.083890"><ele>59.2</ele><time>2025-12-08T12:04:56Z</time></trkpt>
			<trkpt lat="54.939330" lon="20.083790"><ele>59.3</ele><time>2025-12-08T12:05:00Z</time></trkpt>
			<trkpt lat="54.939490" lon="20.083580"><ele>59.0</ele><time>2025-12-08T12:05:05Z</time></trkpt>
			<trkpt lat="54.939650" lon="20.083420"><ele>58.4</ele><time>2025-12-08T12:05:10Z</time></trkpt>
			<trkpt lat="54.940560" lon="20.082690"><ele>55.1</ele><time>2025-12-08T12:05:14Z</time></trkpt>
			<trkpt lat="54.940620" lon="20.082710"><ele>54.9</ele><time>2025-12-08T12:05:19Z</time></trkpt>
			<trkpt lat="54.940690" lon="20.082760"><ele>54.7</ele><time>2025-12-08T12:05:23Z</time></trkpt>
			<trkpt lat="54.941120" lon="20.082200"><ele>53.3</ele><time>2025-12-08T12:05:28Z</time></trkpt>
			<trkpt lat="54.942180" lon="20.081340"><ele>52.1</ele><time>2025-12-08T12:05:33Z</time></trkpt>
			<trkpt lat="54.942730" lon="20.080920"><ele>51.5</ele><time>2025-12-08T12:05:37Z</time></trkpt>
			<trkpt lat="54.942800" lon="20.080860"><ele>51.4</ele><time>2025-12-08T12:05:42Z</time></trkpt>
			<trkpt lat="54.943240" lon="20.080480"><ele>50.6</ele><time>2025-12-08T12:05:46Z</time></trkpt>
			<trkpt lat="54.943600" lon="20.079970"><ele>49.9</ele><time>2025-12-08T12:05:51Z</time></trkpt>
			<trkpt lat="54.943810" lon="20.079590"><ele>49.5</ele><time>2025-12-08T12:05:56Z</time></trkpt>
			<trkpt lat="54.944040" lon="20.078830"><ele>49.0</ele><time>2025-12-08T12:06:00Z</time></trkpt>
			<trkpt lat="54.944070" lon="20.078290"><ele>49.1</ele><time>2025-12-08T12:06:05Z</time></trkpt>
			<trkpt lat="54.944100" lon="20.077820"><ele>49.3</ele><time>2025-12-08T12:06:10Z</time></trkpt>
			<trkpt lat="54.944090" lon="20.077280"><ele>49.5</ele><time>2025-12-08T12:06:14Z</time></trkpt>
			<trkpt lat="54.944090" lon="20.076960"><ele>49.6</ele><time>2025-12-08T12:06:19Z</time></trkpt>
			<trkpt lat="54.943990" lon="20.075550"><ele>50.6</ele><time>2025-12-08T12:06:23Z</time></trkpt>
			<trkpt lat="54.943920" lon="20.074430"><ele>52.7</ele><time>2025-12-08T12:06:28Z</time></trkpt>
			<trkpt lat="54.943920" lon="20.074430"><ele>52.7</ele><time>2025-12-08T12:06:35Z</time></trkpt>
			<trkpt lat="54.943580" lon="20.069350"><ele>51.4</ele><time>2025-12-08T12:06:42Z</time></trkpt>
			<trkpt lat="54.943520" lon="20.068180"><ele>52.1</ele><time>2025-12-08T12:06:49Z</time></trkpt>
			<trkpt lat="54.943420" lon="20.066280"><ele>53.0</ele><time>2025-12-08T12:06:55Z</time></trkpt>
			<trkpt lat="54.943420" lon="20.066110"><ele>52.9</ele><time>2025-12-08T12:07:02Z</time></trkpt>
			<trkpt lat="54.943280" lon="20.063720"><ele>52.1</ele><time>2025-12-08T12:07:09Z</time></trkpt>
			<trkpt lat="54.943180" lon="20.062040"><ele>51.9</ele><time>2025-12-08T12:07:16Z</time></trkpt>
			<trkpt lat="54.943040" lon="20.059420"><ele>51.5</ele><time>2025-12-08T12:07:23Z</time></trkpt>
			<trkpt lat="54.943000" lon="20.058660"><ele>51.3</ele><time>2025-12-08T12:07:30Z</time></trkpt>
			<trkpt lat="54.942820" lon="20.055480"><ele>48.9</ele><time>2025-12-08T12:07:37Z</time></trkpt>
			<trkpt lat="54.942560" lon="20.050970"><ele>46.0</ele><time>2025-12-08T12:07:43Z</time></trkpt>
			<trkpt lat="54.942530" lon="20.050450"><ele>45.9</ele><time>2025-12-08T12:07:50Z</time></trkpt>
			<trkpt lat="54.942440" lon="20.048920"><ele>45.4</ele><time>2025-12-08T12:07:57Z</time></trkpt>
			<trkpt lat="54.942370" lon="20.047680"><ele>45.2</ele><time>2025-12-08T12:08:04Z</time></trkpt>
			<trkpt lat="54.942300" lon="20.046400"><ele>45.8</ele><time>2025-12-08T12:08:11Z</time></trkpt>
			<trkpt lat="54.942150" lon="20.043790"><ele>46.5</ele><time>2025-12-08T12:08:18Z</time></trkpt>
			<trkpt lat="54.942100" lon="20.043030"><ele>46.6</ele><time>2025-12-08T12:08:24Z</time></trkpt>
			<trkpt lat="54.942060" lon="20.042450"><ele>46.6</ele><time>2025-12-08T12:08:31Z</time></trkpt>
			<trkpt lat="54.942000" lon="20.041150"><ele>46.8</ele><time>2025-12-08T12:08:38Z</time></trkpt>
			<trkpt lat="54.941950" lon="20.040200"><ele>47.2</ele><time>2025-12-08T12:08:45Z</time></trkpt>
			<trkpt lat="54.941940" lon="20.040020"><ele>47.3</ele><time>2025-12-08T12:08:52Z</time></trkpt>
			<trkpt lat="54.941890" lon="20.039330"><ele>47.6</ele><time>2025-12-08T12:08:59Z</time></trkpt>
			<trkpt lat="54.941760" lon="20.038680"><ele>48.0</ele><time>2025-12-08T12:09:06Z</time></trkpt>
			<trkpt lat="54.941460" lon="20.037330"><ele>47.6</ele><time>2025-12-08T12:09:12Z</time></trkpt>
			<trkpt lat="54.941210" lon="20.036080"><ele>47.2</ele><time>2025-12-08T12:09:19Z</time></trkpt>
			<trkpt lat="54.940660" lon="20.033640"><ele>47.9</ele><time>2025-12-08T12:09:26Z</time></trkpt>
			<trkpt lat="54.940390" lon="20.032260"><ele>48.3</ele><time>2025-12-08T12:09:33Z</time></trkpt>
			<trkpt lat="54.940130" lon="20.030930"><ele>47.9</ele><time>2025-12-08T12:09:40Z</time></trkpt>
			<trkpt lat="54.939960" lon="20.030430"><ele>47.7</ele><time>2025-12-08T12:09:47Z</time></trkpt>
			<trkpt lat="54.938990" lon="20.028300"><ele>47.6</ele><time>2025-12-08T12:09:54Z</time></trkpt>
			<trkpt lat="54.938790" lon="20.027870"><ele>47.6</ele><time>2025-12-08T12:10:00Z</time></trkpt>
			<trkpt lat="54.938110" lon="20.026420"><ele>47.0</ele><time>2025-12-08T12:10:07Z</time></trkpt>
			<trkpt lat="54.937830" lon="20.025820"><ele>46.6</ele><time>2025-12-08T12:10:14Z</time></trkpt>
			<trkpt lat="54.937690" lon="20.025530"><ele>46.4</ele><time>2025-12-08T12:10:21Z</time></trkpt>
			<trkpt lat="54.936060" lon="20.022170"><ele>47.6</ele><time>2025-12-08T12:10:28Z</time></trkpt>
			<trkpt lat="54.931000" lon="20.011490"><ele>45.2</ele><time>2025-12-08T12:10:35Z</time></trkpt>
			<trkpt lat="54.930000" lon="20.009260"><ele>42.0</ele><time>2025-12-08T12:10:42Z</time></trkpt>
			<trkpt lat="54.929940" lon="20.008990"><ele>41.7</ele><time>2025-12-08T12:10:48Z</time></trkpt>
			<trkpt lat="54.929880" lon="20.008740"><ele>41.4</ele><time>2025-12-08T12:10:55Z</time></trkpt>
			<trkpt lat="54.929840" lon="20.008190"><ele>40.8</ele><time>2025-12-08T12:11:02Z</time></trkpt>
			<trkpt lat="54.929730" lon="20.006140"><ele>37.4</ele><time>2025-12-08T12:11:09Z</time></trkpt>
			<trkpt lat="54.929660" lon="20.005410"><ele>36.0</ele><time>2025-12-08T12:11:16Z</time></trkpt>
			<trkpt lat="54.929560" lon="20.004790"><ele>34.8</ele><time>2025-12-08T12:11:23Z</time></trkpt>
			<trkpt lat="54.929120" lon="20.003300"><ele>35.1</ele><time>2025-12-08T12:11:29Z</time></trkpt>
			<trkpt lat="54.928880" lon="20.002630"><ele>35.6</ele><time>2025-12-08T12:11:36Z</time></trkpt>
			<trkpt lat="54.928750" lon="20.002450"><ele>35.8</ele><time>2025-12-08T12:11:43Z</time></trkpt>
			<trkpt lat="54.928480" lon="20.002260"><ele>36.1</ele><time>2025-12-08T12:11:50Z</time></trkpt>
			<trkpt lat="54.927950" lon="20.002020"><ele>36.8</ele><time>2025-12-08T12:11:57Z</time></trkpt>
			<trkpt lat="54.927500" lon="20.001990"><ele>37.5</ele><time>2025-12-08T12:12:04Z</time></trkpt>
			<trkpt lat="54.927420" lon="20.002010"><ele>37.6</ele><time>2025-12-08T12:12:11Z</time></trkpt>
			<trkpt lat="54.927320" lon="20.002030"><ele>37.8</ele><time>2025-12-08T12:12:17Z</time></trkpt>
			<trkpt lat="54.926720" lon="20.002160"><ele>38.7</ele><time>2025-12-08T12:12:24Z</time></trkpt>
			<trkpt lat="54.925310" lon="20.002500"><ele>39.6</ele><time>2025-12-08T12:12:31Z</time></trkpt>
			<trkpt lat="54.924190" lon="20.002750"><ele>39.7</ele><time>2025-12-08T12:12:38Z</time></trkpt>
			<trkpt lat="54.922490" lon="20.003150"><ele>39.6</ele><time>2025-12-08T12:12:45Z</time></trkpt>
			<trkpt lat="54.921840" lon="20.003300"><ele>40.0</ele><time>2025-12-08T12:12:52Z</time></trkpt>
			<trkpt lat="54.920960" lon="20.003520"><ele>40.4</ele><time>2025-12-08T12:12:59Z</time></trkpt>
			<trkpt lat="54.919310" lon="20.003860"><ele>40.3</ele><time>2025-12-08T12:13:05Z</time></trkpt>
			<trkpt lat="54.918400" lon="20.004070"><ele>40.2</ele><time>2025-12-08T12:13:12Z</time></trkpt>
			<trkpt lat="54.918070" lon="20.004150"><ele>40.2</ele><time>2025-12-08T12:13:19Z</time></trkpt>
			<trkpt lat="54.914390" lon="20.005010"><ele>39.8</ele><time>2025-12-08T12:13:26Z</time></trkpt>
			<trkpt lat="54.913940" lon="20.005140"><ele>40.2</ele><time>2025-12-08T12:13:33Z</time></trkpt>
			<trkpt lat="54.913930" lon="20.005150"><ele>40.2</ele><time>2025-12-08T12:13:40Z</time></trkpt>
			<trkpt lat="54.912650" lon="20.005440"><ele>40.9</ele><time>2025-12-08T12:13:46Z</time></trkpt>
			<trkpt lat="54.911770" lon="20.005620"><ele>42.1</ele><time>2025-12-08T12:13:53Z</time></trkpt>
			<trkpt lat="54.911370" lon="20.005760"><ele>42.8</ele><time>2025-12-08T12:14:00Z</time></trkpt>
			<trkpt lat="54.911510" lon="20.005170"><ele>43.5</ele><time>2025-12-08T12:14:07Z</time></trkpt>
			<trkpt lat="54.911500" lon="20.005080"><ele>43.6</ele><time>2025-12-08T12:14:14Z</time></trkpt>
			<trkpt lat="54.911500" lon="20.005080"><ele>43.6</ele><time>2025-12-08T12:14:18Z</time></trkpt>
			<trkpt lat="54.911490" lon="20.004880"><ele>43.8</ele><time>2025-12-08T12:14:23Z</time></trkpt>
			<trkpt lat="54.911390" lon="20.004620"><ele>44.2</ele><time>2025-12-08T12:14:27Z</time></trkpt>
			<trkpt lat="54.911280" lon="20.004470"><ele>44.4</ele><time>2025-12-08T12:14:32Z</time></trkpt>
			<trkpt lat="54.911260" lon="20.004450"><ele>44.5</ele><time>2025-12-08T12:14:36Z</time></trkpt>
			<trkpt lat="54.910860" lon="20.004020"><ele>45.0</ele><time>2025-12-08T12:14:41Z</time></trkpt>
			<trkpt lat="54.910690" lon="20.003830"><ele>45.3</ele><time>2025-12-08T12:14:45Z</time></trkpt>
			<trkpt lat="54.910390" lon="20.003440"><ele>45.7</ele><time>2025-12-08T12:14:50Z</time></trkpt>
			<trkpt lat="54.910210" lon="20.003110"><ele>46.0</ele><time>2025-12-08T12:14:54Z</time></trkpt>
			<trkpt lat="54.910170" lon="20.003000"><ele>46.1</ele><time>2025-12-08T12:14:59Z</time></trkpt>
			<trkpt lat="54.910050" lon="20.002660"><ele>46.3</ele><time>2025-12-08T12:15:03Z</time></trkpt>
			<trkpt lat="54.909970" lon="20.001790"><ele>46.0</ele><time>2025-12-08T12:15:08Z</time></trkpt>
			<trkpt lat="54.909430" lon="19.989650"><ele>37.5</ele><time>2025-12-08T12:15:12Z</time></trkpt>
			<trkpt lat="54.909380" lon="19.986980"><ele>37.0</ele><time>2025-12-08T12:15:17Z</time></trkpt>
			<trkpt lat="54.909360" lon="19.985180"><ele>35.1</ele><time>2025-12-08T12:15:21Z</time></trkpt>
			<trkpt lat="54.909450" lon="19.984490"><ele>34.2</ele><time>2025-12-08T12:15:25Z</time></trkpt>
			<trkpt lat="54.909540" lon="19.984030"><ele>33.6</ele><time>2025-12-08T12:15:30Z</time></trkpt>
			<trkpt lat="54.909890" lon="19.982200"><ele>33.0</ele><time>2025-12-08T12:15:34Z</time></trkpt>
			<trkpt lat="54.910130" lon="19.980830"><ele>33.0</ele><time>2025-12-08T12:15:39Z</time></trkpt>
			<trkpt lat="54.910300" lon="19.979720"><ele>34.8</ele><time>2025-12-08T12:15:43Z</time></trkpt>
			<trkpt lat="54.910420" lon="19.978210"><ele>37.6</ele><time>2025-12-08T12:15:48Z</time></trkpt>
			<trkpt lat="54.910580" lon="19.976820"><ele>39.3</ele><time>2025-12-08T12:15:52Z</time></trkpt>
			<trkpt lat="54.910580" lon="19.976800"><ele>39.3</ele><time>2025-12-08T12:15:57Z</time></trkpt>
			<trkpt lat="54.910660" lon="19.976170"><ele>39.6</ele><time>2025-12-08T12:16:01Z</time></trkpt>
			<trkpt lat="54.910830" lon="19.975450"><ele>40.0</ele><time>2025-12-08T12:16:06Z</time></trkpt>
			<trkpt lat="54.910950" lon="19.975110"><ele>40.2</ele><time>2025-12-08T12:16:10Z</time></trkpt>
			<trkpt lat="54.911290" lon="19.974320"><ele>40.7</ele><time>2025-12-08T12:16:15Z</time></trkpt>
			<trkpt lat="54.911470" lon="19.973850"><ele>41.1</ele><time>2025-12-08T12:16:19Z</time></trkpt>
			<trkpt lat="54.911560" lon="19.973530"><ele>41.3</ele><time>2025-12-08T12:16:24Z</time></trkpt>
			<trkpt lat="54.912560" lon="19.970260"><ele>42.2</ele><time>2025-12-08T12:16:28Z</time></trkpt>
			<trkpt lat="54.912700" lon="19.969830"><ele>42.1</ele><time>2025-12-08T12:16:33Z</time></trkpt>
			<trkpt lat="54.913480" lon="19.967220"><ele>44.8</ele><time>2025-12-08T12:16:37Z</time></trkpt>
			<trkpt lat="54.913550" lon="19.966630"><ele>45.6</ele><time>2025-12-08T12:16:42Z</time></trkpt>
			<trkpt lat="54.913570" lon="19.966380"><ele>45.9</ele><time>2025-12-08T12:16:46Z</time></trkpt>
			<trkpt lat="54.913590" lon="19.965740"><ele>45.6</ele><time>2025-12-08T12:16:51Z</time></trkpt>
			<trkpt lat="54.913660" lon="19.965110"><ele>45.2</ele><time>2025-12-08T12:16:55Z</time></trkpt>
			<trkpt lat="54.914120" lon="19.962270"><ele>43.1</ele><time>2025-12-08T12:16:59Z</time></trkpt>
			<trkpt lat="54.914470" lon="19.960450"><ele>41.5</ele><time>2025-12-08T12:17:04Z</time></trkpt>
			<trkpt lat="54.914280" lon="19.960380"><ele>41.3</ele><time>2025-12-08T12:17:08Z</time></trkpt>
			<trkpt lat="54.913750" lon="19.960210"><ele>40.9</ele><time>2025-12-08T12:17:13Z</time></trkpt>
			<trkpt lat="54.913250" lon="19.960080"><ele>40.5</ele><time>2025-12-08T12:17:17Z</time></trkpt>
			<trkpt lat="54.913250" lon="19.960070"><ele>40.5</ele><time>2025-12-08T12:17:22Z</time></trkpt>
			<trkpt lat="54.912850" lon="19.959970"><ele>40.2</ele><time>2025-12-08T12:17:26Z</time></trkpt>
			<trkpt lat="54.912730" lon="19.959940"><ele>40.1</ele><time>2025-12-08T12:17:31Z</time></trkpt>
			<trkpt lat="54.910390" lon="19.959970"><ele>38.6</ele><time>2025-12-08T12:17:35Z</time></trkpt>
			<trkpt lat="54.909920" lon="19.959960"><ele>39.1</ele><time>2025-12-08T12:17:40Z</time></trkpt>
			<trkpt lat="54.907560" lon="19.959670"><ele>43.4</ele><time>2025-12-08T12:17:44Z</time></trkpt>
			<trkpt lat="54.905970" lon="19.959370"><ele>44.3</ele><time>2025-12-08T12:17:48Z</time></trkpt>
			<trkpt lat="54.905610" lon="19.959220"><ele>44.3</ele><time>2025-12-08T12:17:53Z</time></trkpt>
			<trkpt lat="54.905010" lon="19.958850"><ele>43.6</ele><time>2025-12-08T12:17:57Z</time></trkpt>
			<trkpt lat="54.904650" lon="19.958540"><ele>42.9</ele><time>2025-12-08T12:18:02Z</time></trkpt>
			<trkpt lat="54.904120" lon="19.957900"><ele>41.8</ele><time>2025-12-08T12:18:06Z</time></trkpt>
			<trkpt lat="54.903700" lon="19.957340"><ele>41.0</ele><time>2025-12-08T12:18:11Z</time></trkpt>
			<trkpt lat="54.903590" lon="19.957210"><ele>40.9</ele><time>2025-12-08T12:18:15Z</time></trkpt>
			<trkpt lat="54.903300" lon="19.956530"><ele>40.4</ele><time>2025-12-08T12:18:19Z</time></trkpt>
			<trkpt lat="54.902300" lon="19.953520"><ele>37.8</ele><time>2025-12-08T12:18:24Z</time></trkpt>
			<trkpt lat="54.901850" lon="19.952260"><ele>36.5</ele><time>2025-12-08T12:18:28Z</time></trkpt>
			<trkpt lat="54.901220" lon="19.950930"><ele>34.6</ele><time>2025-12-08T12:18:33Z</time></trkpt>
			<trkpt lat="54.900880" lon="19.950390"><ele>33.7</ele><time>2025-12-08T12:18:37Z</time></trkpt>
			<trkpt lat="54.899960" lon="19.949480"><ele>32.0</ele><time>2025-12-08T12:18:42Z</time></trkpt>
			<trkpt lat="54.899360" lon="19.948950"><ele>31.1</ele><time>2025-12-08T12:18:46Z</time></trkpt>
			<trkpt lat="54.898940" lon="19.948590"><ele>30.4</ele><time>2025-12-08T12:18:50Z</time></trkpt>
			<trkpt lat="54.898010" lon="19.947990"><ele>28.8</ele><time>2025-12-08T12:18:55Z</time></trkpt>
			<trkpt lat="54.897610" lon="19.947850"><ele>28.1</ele><time>2025-12-08T12:18:59Z</time></trkpt>
			<trkpt lat="54.897100" lon="19.947710"><ele>27.6</ele><time>2025-12-08T12:19:04Z</time></trkpt>
			<trkpt lat="54.896130" lon="19.947620"><ele>27.6</ele><time>2025-12-08T12:19:08Z</time></trkpt>
			<trkpt lat="54.896020" lon="19.947590"><ele>27.6</ele><time>2025-12-08T12:19:13Z</time></trkpt>
			<trkpt lat="54.895800" lon="19.947440"><ele>27.6</ele><time>2025-12-08T12:19:17Z</time></trkpt>
			<trkpt lat="54.894940" lon="19.947300"><ele>27.4</ele><time>2025-12-08T12:19:22Z</time></trkpt>
			<trkpt lat="54.894830" lon="19.947150"><ele>27.3</ele><time>2025-12-08T12:19:26Z</time></trkpt>
			<trkpt lat="54.894820" lon="19.947010"><ele>27.3</ele><time>2025-12-08T12:19:30Z</time></trkpt>
			<trkpt lat="54.894830" lon="19.946830"><ele>27.3</ele><time>2025-12-08T12:19:35Z</time></trkpt>
			<trkpt lat="54.894850" lon="19.946740"><ele>27.2</ele><time>2025-12-08T12:19:39Z</time></trkpt>
			<trkpt lat="54.895010" lon="19.945910"><ele>27.0</ele><time>2025-12-08T12:19:44Z</time></trkpt>
			<trkpt lat="54.895040" lon="19.945780"><ele>27.0</ele><time>2025-12-08T12:19:48Z</time></trkpt>
			<trkpt lat="54.895120" lon="19.945350"><ele>26.9</ele><time>2025-12-08T12:19:53Z</time></trkpt>
			<trkpt lat="54.895320" lon="19.944690"><ele>27.4</ele><time>2025-12-08T12:19:57Z</time></trkpt>
			<trkpt lat="54.895780" lon="19.943120"><ele>28.5</ele><time>2025-12-08T12:20:01Z</time></trkpt>
			<trkpt lat="54.895780" lon="19.943090"><ele>28.6</ele><time>2025-12-08T12:20:06Z</time></trkpt>
			<trkpt lat="54.895840" lon="19.942650"><ele>28.9</ele><time>2025-12-08T12:20:10Z</time></trkpt>
			<trkpt lat="54.895840" lon="19.942650"><ele>28.9</ele><time>2025-12-08T12:20:15Z</time></trkpt>
			<trkpt lat="54.895860" lon="19.942440"><ele>28.9</ele><time>2025-12-08T12:20:20Z</time></trkpt>
			<trkpt lat="54.895900" lon="19.942030"><ele>28.5</ele><time>2025-12-08T12:20:25Z</time></trkpt>
			<trkpt lat="54.895920" lon="19.941660"><ele>28.2</ele><time>2025-12-08T12:20:29Z</time></trkpt>
			<trkpt lat="54.895850" lon="19.941310"><ele>27.8</ele><time>2025-12-08T12:20:34Z</time></trkpt>
			<trkpt lat="54.895810" lon="19.941170"><ele>27.7</ele><time>2025-12-08T12:20:39Z</time></trkpt>
			<trkpt lat="54.895740" lon="19.940950"><ele>27.5</ele><time>2025-12-08T12:20:44Z</time></trkpt>
			<trkpt lat="54.895350" lon="19.939700"><ele>26.1</ele><time>2025-12-08T12:20:48Z</time></trkpt>
			<trkpt lat="54.895220" lon="19.939580"><ele>26.2</ele><time>2025-12-08T12:20:53Z</time></trkpt>
			<trkpt lat="54.895110" lon="19.939510"><ele>26.3</ele><time>2025-12-08T12:20:58Z</time></trkpt>
			<trkpt lat="54.894030" lon="19.939470"><ele>27.8</ele><time>2025-12-08T12:21:02Z</time></trkpt>
			<trkpt lat="54.892250" lon="19.939390"><ele>29.8</ele><time>2025-12-08T12:21:07Z</time></trkpt>
			<trkpt lat="54.889560" lon="19.939180"><ele>32.4</ele><time>2025-12-08T12:21:12Z</time></trkpt>
			<trkpt lat="54.889430" lon="19.939120"><ele>32.1</ele><time>2025-12-08T12:21:17Z</time></trkpt>
			<trkpt lat="54.888440" lon="19.937690"><ele>30.0</ele><time>2025-12-08T12:21:21Z</time></trkpt>
			<trkpt lat="54.888350" lon="19.937630"><ele>29.9</ele><time>2025-12-08T12:21:26Z</time></trkpt>
			<trkpt lat="54.884280" lon="19.936900"><ele>23.5</ele><time>2025-12-08T12:21:31Z</time></trkpt>
			<trkpt lat="54.884210" lon="19.936890"><ele>23.3</ele><time>2025-12-08T12:21:36Z</time></trkpt>
			<trkpt lat="54.883850" lon="19.936820"><ele>22.2</ele><time>2025-12-08T12:21:40Z</time></trkpt>
			<trkpt lat="54.883740" lon="19.936800"><ele>21.9</ele><time>2025-12-08T12:21:45Z</time></trkpt>
			<trkpt lat="54.883430" lon="19.936040"><ele>20.2</ele><time>2025-12-08T12:21:50Z</time></trkpt>
			<trkpt lat="54.883280" lon="19.935730"><ele>19.7</ele><time>2025-12-08T12:21:55Z</time></trkpt>
			<trkpt lat="54.883130" lon="19.935570"><ele>19.9</ele><time>2025-12-08T12:21:59Z</time></trkpt>
			<trkpt lat="54.883010" lon="19.935490"><ele>20.0</ele><time>2025-12-08T12:22:04Z</time></trkpt>
			<trkpt lat="54.882500" lon="19.935590"><ele>20.3</ele><time>2025-12-08T12:22:09Z</time></trkpt>
			<trkpt lat="54.882300" lon="19.935590"><ele>20.5</ele><time>2025-12-08T12:22:14Z</time></trkpt>
			<trkpt lat="54.881650" lon="19.935630"><ele>20.9</ele><time>2025-12-08T12:22:18Z</time></trkpt>
			<trkpt lat="54.879280" lon="19.935780"><ele>21.1</ele><time>2025-12-08T12:22:23Z</time></trkpt>
			<trkpt lat="54.879240" lon="19.935790"><ele>21.1</ele><time>2025-12-08T12:22:28Z</time></trkpt>
			<trkpt lat="54.879140" lon="19.935980"><ele>21.1</ele><time>2025-12-08T12:22:33Z</time></trkpt>
			<trkpt lat="54.879070" lon="19.936160"><ele>21.0</ele><time>2025-12-08T12:22:37Z</time></trkpt>
			<trkpt lat="54.878980" lon="19.936380"><ele>21.0</ele><time>2025-12-08T12:22:42Z</time></trkpt>
			<trkpt lat="54.878790" lon="19.936810"><ele>21.0</ele><time>2025-12-08T12:22:47Z</time></trkpt>
			<trkpt lat="54.878610" lon="19.937120"><ele>21.0</ele><time>2025-12-08T12:22:52Z</time></trkpt>
			<trkpt lat="54.878440" lon="19.937360"><ele>21.0</ele><time>2025-12-08T12:22:56Z</time></trkpt>
			<trkpt lat="54.878300" lon="19.937520"><ele>20.7</ele><time>2025-12-08T12:23:01Z</time></trkpt>
			<trkpt lat="54.878180" lon="19.937550"><ele>20.3</ele><time>2025-12-08T12:23:06Z</time></trkpt>
			<trkpt lat="54.878010" lon="19.937520"><ele>19.7</ele><time>2025-12-08T12:23:11Z</time></trkpt>
			<trkpt lat="54.877930" lon="19.937500"><ele>19.4</ele><time>2025-12-08T12:23:15Z</time></trkpt>
			<trkpt lat="54.877870" lon="19.937490"><ele>19.2</ele><time>2025-12-08T12:23:20Z</time></trkpt>
			<trkpt lat="54.877660" lon="19.937490"><ele>18.5</ele><time>2025-12-08T12:23:25Z</time></trkpt>
			<trkpt lat="54.877390" lon="19.937520"><ele>17.5</ele><time>2025-12-08T12:23:30Z</time></trkpt>
			<trkpt lat="54.877290" lon="19.937560"><ele>17.2</ele><time>2025-12-08T12:23:34Z</time></trkpt>
			<trkpt lat="54.876940" lon="19.937800"><ele>15.9</ele><time>2025-12-08T12:23:39Z</time></trkpt>
			<trkpt lat="54.876800" lon="19.937830"><ele>15.4</ele><time>2025-12-08T12:23:44Z</time></trkpt>
			<trkpt lat="54.876690" lon="19.937820"><ele>15.0</ele><time>2025-12-08T12:23:48Z</time></trkpt>
			<trkpt lat="54.876590" lon="19.937750"><ele>15.0</ele><time>2025-12-08T12:23:53Z</time></trkpt>
			<trkpt lat="54.876110" lon="19.937410"><ele>16.6</ele><time>2025-12-08T12:23:58Z</time></trkpt>
			<trkpt lat="54.875980" lon="19.937350"><ele>17.0</ele><time>2025-12-08T12:24:03Z</time></trkpt>
			<trkpt lat="54.875780" lon="19.937240"><ele>17.7</ele><time>2025-12-08T12:24:07Z</time></trkpt>
			<trkpt lat="54.875680" lon="19.937200"><ele>18.0</ele><time>2025-12-08T12:24:12Z</time></trkpt>
			<trkpt lat="54.875450" lon="19.937210"><ele>18.7</ele><time>2025-12-08T12:24:17Z</time></trkpt>
			<trkpt lat="54.875070" lon="19.937280"><ele>19.9</ele><time>2025-12-08T12:24:22Z</time></trkpt>
			<trkpt lat="54.874170" lon="19.937440"><ele>20.6</ele><time>2025-12-08T12:24:26Z</time></trkpt>
			<trkpt lat="54.873870" lon="19.937510"><ele>20.7</ele><time>2025-12-08T12:24:31Z</time></trkpt>
			<trkpt lat="54.873830" lon="19.937520"><ele>20.7</ele><time>2025-12-08T12:24:36Z</time></trkpt>
			<trkpt lat="54.873310" lon="19.937650"><ele>20.8</ele><time>2025-12-08T12:24:41Z</time></trkpt>
			<trkpt lat="54.872770" lon="19.937780"><ele>21.0</ele><time>2025-12-08T12:24:45Z</time></trkpt>
			<trkpt lat="54.872680" lon="19.937800"><ele>21.0</ele><time>2025-12-08T12:24:50Z</time></trkpt>
			<trkpt lat="54.871520" lon="19.938070"><ele>21.7</ele><time>2025-12-08T12:24:55Z</time></trkpt>
			<trkpt lat="54.871480" lon="19.938080"><ele>21.7</ele><time>2025-12-08T12:25:00Z</time></trkpt>
			<trkpt lat="54.869680" lon="19.938530"><ele>24.8</ele><time>2025-12-08T12:25:04Z</time></trkpt>
			<trkpt lat="54.869070" lon="19.938660"><ele>25.5</ele><time>2025-12-08T12:25:09Z</time></trkpt>
			<trkpt lat="54.869340" lon="19.939040"><ele>25.8</ele><time>2025-12-08T12:25:14Z</time></trkpt>
			<trkpt lat="54.869340" lon="19.939040"><ele>25.8</ele><time>2025-12-08T12:25:20Z</time></trkpt>
			<trkpt lat="54.869530" lon="19.939310"><ele>26.0</ele><time>2025-12-08T12:25:26Z</time></trkpt>
			<trkpt lat="54.870430" lon="19.940630"><ele>27.1</ele><time>2025-12-08T12:25:32Z</time></trkpt>
			<trkpt lat="54.870680" lon="19.940990"><ele>27.5</ele><time>2025-12-08T12:25:38Z</time></trkpt>
			<trkpt lat="54.871020" lon="19.941480"><ele>27.9</ele><time>2025-12-08T12:25:44Z</time></trkpt>
			<trkpt lat="54.871210" lon="19.941760"><ele>28.2</ele><time>2025-12-08T12:25:50Z</time></trkpt>
			<trkpt lat="54.871900" lon="19.942840"><ele>29.3</ele><time>2025-12-08T12:25:55Z</time></trkpt>
			<trkpt lat="54.874240" lon="19.946280"><ele>35.1</ele><time>2025-12-08T12:26:01Z</time></trkpt>
			<trkpt lat="54.874410" lon="19.946590"><ele>35.2</ele><time>2025-12-08T12:26:07Z</time></trkpt>
			<trkpt lat="54.874420" lon="19.946750"><ele>35.3</ele><time>2025-12-08T12:26:13Z</time></trkpt>
			<trkpt lat="54.874410" lon="19.946940"><ele>35.4</ele><time>2025-12-08T12:26:19Z</time></trkpt>
			<trkpt lat="54.874360" lon="19.947330"><ele>35.5</ele><time>2025-12-08T12:26:25Z</time></trkpt>
			<trkpt lat="54.874320" lon="19.947560"><ele>35.6</ele><time>2025-12-08T12:26:31Z</time></trkpt>
			<trkpt lat="54.874310" lon="19.947800"><ele>35.7</ele><time>2025-12-08T12:26:37Z</time></trkpt>
			<trkpt lat="54.874320" lon="19.948160"><ele>35.8</ele><time>2025-12-08T12:26:43Z</time></trkpt>
			<trkpt lat="54.874380" lon="19.948500"><ele>35.9</ele><time>2025-12-08T12:26:49Z</time></trkpt>
			<trkpt lat="54.875090" lon="19.950020"><ele>35.4</ele><time>2025-12-08T12:26:55Z</time></trkpt>
			<trkpt lat="54.875260" lon="19.950400"><ele>35.1</ele><time>2025-12-08T12:27:01Z</time></trkpt>
			<trkpt lat="54.875420" lon="19.950890"><ele>34.7</ele><time>2025-12-08T12:27:07Z</time></trkpt>
			<trkpt lat="54.875700" lon="19.952100"><ele>34.2</ele><time>2025-12-08T12:27:13Z</time></trkpt>
			<trkpt lat="54.875940" lon="19.953220"><ele>34.4</ele><time>2025-12-08T12:27:19Z</time></trkpt>
			<trkpt lat="54.876910" lon="19.957640"><ele>36.6</ele><time>2025-12-08T12:27:25Z</time></trkpt>
			<trkpt lat="54.878330" lon="19.964140"><ele>36.6</ele><time>2025-12-08T12:27:31Z</time></trkpt>
			<trkpt lat="54.879210" lon="19.968460"><ele>38.3</ele><time>2025-12-08T12:27:37Z</time></trkpt>
			<trkpt lat="54.879350" lon="19.969040"><ele>38.2</ele><time>2025-12-08T12:27:43Z</time></trkpt>
			<trkpt lat="54.879430" lon="19.969250"><ele>38.2</ele><time>2025-12-08T12:27:49Z</time></trkpt>
			<trkpt lat="54.879520" lon="19.969440"><ele>38.0</ele><time>2025-12-08T12:27:55Z</time></trkpt>
			<trkpt lat="54.879580" lon="19.969530"><ele>37.9</ele><time>2025-12-08T12:28:00Z</time></trkpt>
			<trkpt lat="54.879770" lon="19.969770"><ele>37.6</ele><time>2025-12-08T12:28:06Z</time></trkpt>
			<trkpt lat="54.880160" lon="19.970070"><ele>37.1</ele><time>2025-12-08T12:28:12Z</time></trkpt>
			<trkpt lat="54.881880" lon="19.971430"><ele>35.9</ele><time>2025-12-08T12:28:18Z</time></trkpt>
			<trkpt lat="54.883460" lon="19.972840"><ele>35.1</ele><time>2025-12-08T12:28:24Z</time></trkpt>
			<trkpt lat="54.883930" lon="19.973230"><ele>34.7</ele><time>2025-12-08T12:28:30Z</time></trkpt>
			<trkpt lat="54.884010" lon="19.973310"><ele>34.6</ele><time>2025-12-08T12:28:36Z</time></trkpt>
			<trkpt lat="54.884150" lon="19.973530"><ele>34.4</ele><time>2025-12-08T12:28:42Z</time></trkpt>
			<trkpt lat="54.884900" lon="19.975590"><ele>33.8</ele><time>2025-12-08T12:28:48Z</time></trkpt>
			<trkpt lat="54.886990" lon="19.981910"><ele>36.0</ele><time>2025-12-08T12:28:54Z</time></trkpt>
			<trkpt lat="54.887450" lon="19.983260"><ele>37.3</ele><time>2025-12-08T12:29:00Z</time></trkpt>
			<trkpt lat="54.887620" lon="19.984010"><ele>38.0</ele><time>2025-12-08T12:29:06Z</time></trkpt>
			<trkpt lat="54.888150" lon="19.988300"><ele>41.3</ele><time>2025-12-08T12:29:12Z</time></trkpt>
			<trkpt lat="54.888490" lon="19.991210"><ele>43.6</ele><time>2025-12-08T12:29:18Z</time></trkpt>
			<trkpt lat="54.888540" lon="19.991520"><ele>43.8</ele><time>2025-12-08T12:29:24Z</time></trkpt>
			<trkpt lat="54.888660" lon="19.992140"><ele>44.1</ele><time>2025-12-08T12:29:30Z</time></trkpt>
			<trkpt lat="54.888780" lon="19.992630"><ele>44.4</ele><time>2025-12-08T12:29:36Z</time></trkpt>
			<trkpt lat="54.888950" lon="19.993150"><ele>44.7</ele><time>2025-12-08T12:29:42Z</time></trkpt>
			<trkpt lat="54.889270" lon="19.993980"><ele>45.1</ele><time>2025-12-08T12:29:48Z</time></trkpt>
			<trkpt lat="54.889630" lon="19.994870"><ele>45.4</ele><time>2025-12-08T12:29:54Z</time></trkpt>
			<trkpt lat="54.890090" lon="19.995950"><ele>45.8</ele><time>2025-12-08T12:29:59Z</time></trkpt>
			<trkpt lat="54.890210" lon="19.996240"><ele>45.8</ele><time>2025-12-08T12:30:05Z</time></trkpt>
			<trkpt lat="54.891590" lon="19.999220"><ele>47.0</ele><time>2025-12-08T12:30:11Z</time></trkpt>
			<trkpt lat="54.892500" lon="20.001290"><ele>50.8</ele><time>2025-12-08T12:30:17Z</time></trkpt>
			<trkpt lat="54.892750" lon="20.001860"><ele>51.3</ele><time>2025-12-08T12:30:23Z</time></trkpt>
			<trkpt lat="54.893780" lon="20.004250"><ele>53.3</ele><time>2025-12-08T12:30:29Z</time></trkpt>
			<trkpt lat="54.894330" lon="20.005530"><ele>54.4</ele><time>2025-12-08T12:30:35Z</time></trkpt>
			<trkpt lat="54.894580" lon="20.006220"><ele>54.8</ele><time>2025-12-08T12:30:41Z</time></trkpt>
			<trkpt lat="54.894690" lon="20.006620"><ele>54.9</ele><time>2025-12-08T12:30:47Z</time></trkpt>
			<trkpt lat="54.894790" lon="20.007170"><ele>54.9</ele><time>2025-12-08T12:30:53Z</time></trkpt>
			<trkpt lat="54.895020" lon="20.009230"><ele>55.0</ele><time>2025-12-08T12:30:59Z</time></trkpt>
			<trkpt lat="54.895790" lon="20.015990"><ele>59.5</ele><time>2025-12-08T12:31:05Z</time></trkpt>
			<trkpt lat="54.895920" lon="20.017220"><ele>60.6</ele><time>2025-12-08T12:31:11Z</time></trkpt>
			<trkpt lat="54.896000" lon="20.017680"><ele>61.0</ele><time>2025-12-08T12:31:17Z</time></trkpt>
			<trkpt lat="54.896120" lon="20.018430"><ele>61.5</ele><time>2025-12-08T12:31:23Z</time></trkpt>
			<trkpt lat="54.896190" lon="20.018740"><ele>60.8</ele><time>2025-12-08T12:31:29Z</time></trkpt>
			<trkpt lat="54.896140" lon="20.018840"><ele>60.6</ele><time>2025-12-08T12:31:35Z</time></trkpt>
			<trkpt lat="54.895910" lon="20.019360"><ele>59.3</ele><time>2025-12-08T12:31:41Z</time></trkpt>
			<trkpt lat="54.895870" lon="20.019440"><ele>59.1</ele><time>2025-12-08T12:31:47Z</time></trkpt>
			<trkpt lat="54.895690" lon="20.019940"><ele>57.9</ele><time>2025-12-08T12:31:53Z</time></trkpt>
			<trkpt lat="54.895620" lon="20.020140"><ele>57.5</ele><time>2025-12-08T12:31:58Z</time></trkpt>
			<trkpt lat="54.895490" lon="20.020450"><ele>56.7</ele><time>2025-12-08T12:32:04Z</time></trkpt>
			<trkpt lat="54.895390" lon="20.020630"><ele>56.2</ele><time>2025-12-08T12:32:10Z</time></trkpt>
			<trkpt lat="54.894910" lon="20.021200"><ele>54.7</ele><time>2025-12-08T12:32:16Z</time></trkpt>
			<trkpt lat="54.894450" lon="20.021760"><ele>53.4</ele><time>2025-12-08T12:32:22Z</time></trkpt>
			<trkpt lat="54.894140" lon="20.021850"><ele>52.7</ele><time>2025-12-08T12:32:28Z</time></trkpt>
			<trkpt lat="54.893160" lon="20.021790"><ele>50.9</ele><time>2025-12-08T12:32:34Z</time></trkpt>
			<trkpt lat="54.892170" lon="20.021740"><ele>49.6</ele><time>2025-12-08T12:32:40Z</time></trkpt>
			<trkpt lat="54.891160" lon="20.021690"><ele>48.7</ele><time>2025-12-08T12:32:46Z</time></trkpt>
			<trkpt lat="54.889770" lon="20.021610"><ele>48.0</ele><time>2025-12-08T12:32:52Z</time></trkpt>
			<trkpt lat="54.887530" lon="20.021480"><ele>48.5</ele><time>2025-12-08T12:32:58Z</time></trkpt>
			<trkpt lat="54.885140" lon="20.021220"><ele>50.8</ele><time>2025-12-08T12:33:04Z</time></trkpt>
			<trkpt lat="54.884930" lon="20.021200"><ele>51.1</ele><time>2025-12-08T12:33:10Z</time></trkpt>
			<trkpt lat="54.884430" lon="20.021090"><ele>51.4</ele><time>2025-12-08T12:33:16Z</time></trkpt>
			<trkpt lat="54.882980" lon="20.020550"><ele>49.0</ele><time>2025-12-08T12:33:22Z</time></trkpt>
			<trkpt lat="54.882980" lon="20.020550"><ele>49.0</ele><time>2025-12-08T12:33:27Z</time></trkpt>
			<trkpt lat="54.878980" lon="20.019060"><ele>47.7</ele><time>2025-12-08T12:33:32Z</time></trkpt>
			<trkpt lat="54.876690" lon="20.018120"><ele>46.9</ele><time>2025-12-08T12:33:37Z</time></trkpt>
			<trkpt lat="54.875260" lon="20.017540"><ele>47.3</ele><time>2025-12-08T12:33:42Z</time></trkpt>
			<trkpt lat="54.874080" lon="20.017110"><ele>47.3</ele><time>2025-12-08T12:33:47Z</time></trkpt>
			<trkpt lat="54.873500" lon="20.016760"><ele>46.4</ele><time>2025-12-08T12:33:52Z</time></trkpt>
			<trkpt lat="54.871870" lon="20.015790"><ele>44.5</ele><time>2025-12-08T12:33:57Z</time></trkpt>
			<trkpt lat="54.871530" lon="20.015590"><ele>44.9</ele><time>2025-12-08T12:34:02Z</time></trkpt>
			<trkpt lat="54.866900" lon="20.012950"><ele>44.6</ele><time>2025-12-08T12:34:07Z</time></trkpt>
			<trkpt lat="54.864260" lon="20.011300"><ele>47.2</ele><time>2025-12-08T12:34:12Z</time></trkpt>
			<trkpt lat="54.860690" lon="20.009180"><ele>46.1</ele><time>2025-12-08T12:34:17Z</time></trkpt>
			<trkpt lat="54.859340" lon="20.008520"><ele>46.7</ele><time>2025-12-08T12:34:22Z</time></trkpt>
			<trkpt lat="54.858510" lon="20.008350"><ele>47.2</ele><time>2025-12-08T12:34:27Z</time></trkpt>
			<trkpt lat="54.858440" lon="20.008330"><ele>47.6</ele><time>2025-12-08T12:34:32Z</time></trkpt>
			<trkpt lat="54.857320" lon="20.008320"><ele>53.9</ele><time>2025-12-08T12:34:36Z</time></trkpt>
			<trkpt lat="54.855900" lon="20.008350"><ele>56.3</ele><time>2025-12-08T12:34:41Z</time></trkpt>
			<trkpt lat="54.854750" lon="20.008400"><ele>54.5</ele><time>2025-12-08T12:34:46Z</time></trkpt>
			<trkpt lat="54.853080" lon="20.008780"><ele>46.6</ele><time>2025-12-08T12:34:51Z</time></trkpt>
			<trkpt lat="54.852070" lon="20.008940"><ele>44.3</ele><time>2025-12-08T12:34:56Z</time></trkpt>
			<trkpt lat="54.851120" lon="20.009060"><ele>42.5</ele><time>2025-12-08T12:35:01Z</time></trkpt>
			<trkpt lat="54.851090" lon="20.009070"><ele>42.5</ele><time>2025-12-08T12:35:06Z</time></trkpt>
			<trkpt lat="54.849820" lon="20.009170"><ele>41.6</ele><time>2025-12-08T12:35:11Z</time></trkpt>
			<trkpt lat="54.848780" lon="20.009230"><ele>42.4</ele><time>2025-12-08T12:35:16Z</time></trkpt>
			<trkpt lat="54.848060" lon="20.009330"><ele>43.3</ele><time>2025-12-08T12:35:21Z</time></trkpt>
			<trkpt lat="54.847960" lon="20.009330"><ele>43.4</ele><time>2025-12-08T12:35:26Z</time></trkpt>
			<trkpt lat="54.847370" lon="20.009330"><ele>42.6</ele><time>2025-12-08T12:35:31Z</time></trkpt>
			<trkpt lat="54.847150" lon="20.009250"><ele>42.1</ele><time>2025-12-08T12:35:36Z</time></trkpt>
			<trkpt lat="54.846310" lon="20.008700"><ele>39.9</ele><time>2025-12-08T12:35:41Z</time></trkpt>
			<trkpt lat="54.846040" lon="20.008620"><ele>39.2</ele><time>2025-12-08T12:35:46Z</time></trkpt>
			<trkpt lat="54.845770" lon="20.008760"><ele>38.9</ele><time>2025-12-08T12:35:51Z</time></trkpt>
			<trkpt lat="54.845020" lon="20.009430"><ele>38.0</ele><time>2025-12-08T12:35:56Z</time></trkpt>
			<trkpt lat="54.844840" lon="20.009600"><ele>37.8</ele><time>2025-12-08T12:36:01Z</time></trkpt>
			<trkpt lat="54.844440" lon="20.010020"><ele>37.3</ele><time>2025-12-08T12:36:06Z</time></trkpt>
			<trkpt lat="54.844420" lon="20.010040"><ele>37.3</ele><time>2025-12-08T12:36:11Z</time></trkpt>
			<trkpt lat="54.844380" lon="20.010070"><ele>37.3</ele><time>2025-12-08T12:36:16Z</time></trkpt>
			<trkpt lat="54.843920" lon="20.010370"><ele>36.9</ele><time>2025-12-08T12:36:21Z</time></trkpt>
			<trkpt lat="54.842960" lon="20.010880"><ele>36.2</ele><time>2025-12-08T12:36:26Z</time></trkpt>
			<trkpt lat="54.842500" lon="20.011060"><ele>36.3</ele><time>2025-12-08T12:36:31Z</time></trkpt>
			<trkpt lat="54.842340" lon="20.011040"><ele>36.5</ele><time>2025-12-08T12:36:36Z</time></trkpt>
			<trkpt lat="54.842230" lon="20.010980"><ele>36.6</ele><time>2025-12-08T12:36:41Z</time></trkpt>
			<trkpt lat="54.842150" lon="20.010870"><ele>36.8</ele><time>2025-12-08T12:36:46Z</time></trkpt>
			<trkpt lat="54.842060" lon="20.010680"><ele>37.0</ele><time>2025-12-08T12:36:51Z</time></trkpt>
			<trkpt lat="54.842020" lon="20.011120"><ele>37.3</ele><time>2025-12-08T12:36:56Z</time></trkpt>
			<trkpt lat="54.841990" lon="20.011600"><ele>37.7</ele><time>2025-12-08T12:37:01Z</time></trkpt>
			<trkpt lat="54.841880" lon="20.012120"><ele>38.1</ele><time>2025-12-08T12:37:06Z</time></trkpt>
			<trkpt lat="54.841670" lon="20.012940"><ele>37.3</ele><time>2025-12-08T12:37:11Z</time></trkpt>
			<trkpt lat="54.841540" lon="20.013660"><ele>35.7</ele><time>2025-12-08T12:37:16Z</time></trkpt>
			<trkpt lat="54.841450" lon="20.014330"><ele>34.3</ele><time>2025-12-08T12:37:21Z</time></trkpt>
			<trkpt lat="54.840940" lon="20.015870"><ele>31.6</ele><time>2025-12-08T12:37:26Z</time></trkpt>
			<trkpt lat="54.840940" lon="20.015950"><ele>31.6</ele><time>2025-12-08T12:37:31Z</time></trkpt>
			<trkpt lat="54.840940" lon="20.015950"><ele>31.6</ele><time>2025-12-08T12:37:37Z</time></trkpt>
			<trkpt lat="54.840970" lon="20.016110"><ele>31.5</ele><time>2025-12-08T12:37:43Z</time></trkpt>
			<trkpt lat="54.841010" lon="20.016220"><ele>31.5</ele><time>2025-12-08T12:37:50Z</time></trkpt>
			<trkpt lat="54.841080" lon="20.016370"><ele>31.4</ele><time>2025-12-08T12:37:56Z</time></trkpt>
			<trkpt lat="54.841540" lon="20.017010"><ele>31.1</ele><time>2025-12-08T12:38:02Z</time></trkpt>
			<trkpt lat="54.841630" lon="20.017130"><ele>31.1</ele><time>2025-12-08T12:38:09Z</time></trkpt>
			<trkpt lat="54.842120" lon="20.017790"><ele>31.3</ele><time>2025-12-08T12:38:15Z</time></trkpt>
			<trkpt lat="54.842530" lon="20.018360"><ele>32.4</ele><time>2025-12-08T12:38:21Z</time></trkpt>
			<trkpt lat="54.842630" lon="20.018590"><ele>32.7</ele><time>2025-12-08T12:38:28Z</time></trkpt>
			<trkpt lat="54.842700" lon="20.018800"><ele>33.0</ele><time>2025-12-08T12:38:34Z</time></trkpt>
			<trkpt lat="54.842970" lon="20.019920"><ele>34.5</ele><time>2025-12-08T12:38:40Z</time></trkpt>
			<trkpt lat="54.842980" lon="20.019970"><ele>34.6</ele><time>2025-12-08T12:38:47Z</time></trkpt>
			<trkpt lat="54.845080" lon="20.028630"><ele>36.2</ele><time>2025-12-08T12:38:53Z</time></trkpt>
			<trkpt lat="54.847450" lon="20.038350"><ele>43.5</ele><time>2025-12-08T12:38:59Z</time></trkpt>
			<trkpt lat="54.847480" lon="20.038620"><ele>43.8</ele><time>2025-12-08T12:39:06Z</time></trkpt>
			<trkpt lat="54.847500" lon="20.038900"><ele>44.2</ele><time>2025-12-08T12:39:12Z</time></trkpt>
			<trkpt lat="54.847470" lon="20.039120"><ele>44.6</ele><time>2025-12-08T12:39:18Z</time></trkpt>
			<trkpt lat="54.847300" lon="20.039370"><ele>45.1</ele><time>2025-12-08T12:39:25Z</time></trkpt>
			<trkpt lat="54.847030" lon="20.039880"><ele>46.1</ele><time>2025-12-08T12:39:31Z</time></trkpt>
			<trkpt lat="54.846940" lon="20.040240"><ele>46.6</ele><time>2025-12-08T12:39:37Z</time></trkpt>
			<trkpt lat="54.846910" lon="20.040600"><ele>47.1</ele><time>2025-12-08T12:39:43Z</time></trkpt>
			<trkpt lat="54.847030" lon="20.041160"><ele>48.0</ele><time>2025-12-08T12:39:50Z</time></trkpt>
			<trkpt lat="54.847330" lon="20.041900"><ele>49.2</ele><time>2025-12-08T12:39:56Z</time></trkpt>
			<trkpt lat="54.847380" lon="20.043130"><ele>50.5</ele><time>2025-12-08T12:40:02Z</time></trkpt>
			<trkpt lat="54.847390" lon="20.043360"><ele>50.1</ele><time>2025-12-08T12:40:09Z</time></trkpt>
			<trkpt lat="54.847430" lon="20.043550"><ele>49.7</ele><time>2025-12-08T12:40:15Z</time></trkpt>
			<trkpt lat="54.847490" lon="20.043710"><ele>49.3</ele><time>2025-12-08T12:40:21Z</time></trkpt>
			<trkpt lat="54.847780" lon="20.044100"><ele>48.1</ele><time>2025-12-08T12:40:28Z</time></trkpt>
			<trkpt lat="54.848020" lon="20.044350"><ele>47.1</ele><time>2025-12-08T12:40:34Z</time></trkpt>
			<trkpt lat="54.848380" lon="20.044800"><ele>45.6</ele><time>2025-12-08T12:40:40Z</time></trkpt>
			<trkpt lat="54.848580" lon="20.045030"><ele>44.8</ele><time>2025-12-08T12:40:47Z</time></trkpt>
			<trkpt lat="54.848730" lon="20.045350"><ele>44.5</ele><time>2025-12-08T12:40:53Z</time></trkpt>
			<trkpt lat="54.848840" lon="20.045680"><ele>44.4</ele><time>2025-12-08T12:40:59Z</time></trkpt>
			<trkpt lat="54.849030" lon="20.046860"><ele>44.0</ele><time>2025-12-08T12:41:06Z</time></trkpt>
			<trkpt lat="54.850300" lon="20.054200"><ele>47.0</ele><time>2025-12-08T12:41:12Z</time></trkpt>
			<trkpt lat="54.850600" lon="20.055850"><ele>47.0</ele><time>2025-12-08T12:41:18Z</time></trkpt>
			<trkpt lat="54.850830" lon="20.056630"><ele>46.9</ele><time>2025-12-08T12:41:25Z</time></trkpt>
			<trkpt lat="54.852620" lon="20.062630"><ele>42.9</ele><time>2025-12-08T12:41:31Z</time></trkpt>
			<trkpt lat="54.854760" lon="20.069800"><ele>45.0</ele><time>2025-12-08T12:41:37Z</time></trkpt>
			<trkpt lat="54.855380" lon="20.071870"><ele>46.2</ele><time>2025-12-08T12:41:44Z</time></trkpt>
			<trkpt lat="54.855860" lon="20.073560"><ele>48.1</ele><time>2025-12-08T12:41:50Z</time></trkpt>
			<trkpt lat="54.855940" lon="20.073750"><ele>48.0</ele><time>2025-12-08T12:41:56Z</time></trkpt>
			<trkpt lat="54.856000" lon="20.073860"><ele>47.9</ele><time>2025-12-08T12:42:02Z</time></trkpt>
			<trkpt lat="54.857040" lon="20.075140"><ele>46.1</ele><time>2025-12-08T12:42:09Z</time></trkpt>
			<trkpt lat="54.857070" lon="20.075180"><ele>46.1</ele><time>2025-12-08T12:42:15Z</time></trkpt>
			<trkpt lat="54.860690" lon="20.079400"><ele>43.5</ele><time>2025-12-08T12:42:21Z</time></trkpt>
			<trkpt lat="54.862050" lon="20.080990"><ele>43.2</ele><time>2025-12-08T12:42:28Z</time></trkpt>
			<trkpt lat="54.862690" lon="20.081730"><ele>43.6</ele><time>2025-12-08T12:42:34Z</time></trkpt>
			<trkpt lat="54.862980" lon="20.082060"><ele>43.8</ele><time>2025-12-08T12:42:40Z</time></trkpt>
			<trkpt lat="54.863250" lon="20.082380"><ele>44.0</ele><time>2025-12-08T12:42:47Z</time></trkpt>
			<trkpt lat="54.863570" lon="20.082640"><ele>44.1</ele><time>2025-12-08T12:42:53Z</time></trkpt>
			<trkpt lat="54.864480" lon="20.083220"><ele>44.7</ele><time>2025-12-08T12:42:59Z</time></trkpt>
			<trkpt lat="54.864920" lon="20.083500"><ele>45.0</ele><time>2025-12-08T12:43:06Z</time></trkpt>
			<trkpt lat="54.865410" lon="20.083870"><ele>44.4</ele><time>2025-12-08T12:43:12Z</time></trkpt>
			<trkpt lat="54.865900" lon="20.084350"><ele>43.6</ele><time>2025-12-08T12:43:18Z</time></trkpt>
			<trkpt lat="54.871940" lon="20.093630"><ele>39.0</ele><time>2025-12-08T12:43:25Z</time></trkpt>
			<trkpt lat="54.872120" lon="20.094020"><ele>39.1</ele><time>2025-12-08T12:43:31Z</time></trkpt>
			<trkpt lat="54.872210" lon="20.094400"><ele>39.2</ele><time>2025-12-08T12:43:37Z</time></trkpt>
			<trkpt lat="54.872230" lon="20.094580"><ele>39.2</ele><time>2025-12-08T12:43:44Z</time></trkpt>
			<trkpt lat="54.872320" lon="20.095940"><ele>39.4</ele><time>2025-12-08T12:43:50Z</time></trkpt>
			<trkpt lat="54.872330" lon="20.096280"><ele>39.5</ele><time>2025-12-08T12:43:56Z</time></trkpt>
			<trkpt lat="54.872400" lon="20.097830"><ele>40.8</ele><time>2025-12-08T12:44:03Z</time></trkpt>
			<trkpt lat="54.872180" lon="20.097780"><ele>41.2</ele><time>2025-12-08T12:44:09Z</time></trkpt>
			<trkpt lat="54.871830" lon="20.097770"><ele>41.8</ele><time>2025-12-08T12:44:15Z</time></trkpt>
			<trkpt lat="54.871570" lon="20.097850"><ele>42.3</ele><time>2025-12-08T12:44:21Z</time></trkpt>
			<trkpt lat="54.870920" lon="20.098500"><ele>42.4</ele><time>2025-12-08T12:44:28Z</time></trkpt>
			<trkpt lat="54.867060" lon="20.102450"><ele>41.2</ele><time>2025-12-08T12:44:34Z</time></trkpt>
			<trkpt lat="54.867060" lon="20.102450"><ele>41.2</ele><time>2025-12-08T12:44:51Z</time></trkpt>
			<trkpt lat="54.859600" lon="20.110080"><ele>38.8</ele><time>2025-12-08T12:45:08Z</time></trkpt>
			<trkpt lat="54.853800" lon="20.115990"><ele>39.2</ele><time>2025-12-08T12:45:24Z</time></trkpt>
			<trkpt lat="54.847920" lon="20.121990"><ele>42.1</ele><time>2025-12-08T12:45:41Z</time></trkpt>
			<trkpt lat="54.840770" lon="20.129270"><ele>43.6</ele><time>2025-12-08T12:45:58Z</time></trkpt>
			<trkpt lat="54.838440" lon="20.131650"><ele>40.0</ele><time>2025-12-08T12:46:15Z</time></trkpt>
			<trkpt lat="54.837140" lon="20.132950"><ele>38.8</ele><time>2025-12-08T12:46:31Z</time></trkpt>
			<trkpt lat="54.836920" lon="20.133180"><ele>38.8</ele><time>2025-12-08T12:46:48Z</time></trkpt>
			<trkpt lat="54.836180" lon="20.133990"><ele>38.8</ele><time>2025-12-08T12:47:05Z</time></trkpt>
			<trkpt lat="54.833340" lon="20.138670"><ele>32.8</ele><time>2025-12-08T12:47:22Z</time></trkpt>
			<trkpt lat="54.831210" lon="20.142260"><ele>31.5</ele><time>2025-12-08T12:47:38Z</time></trkpt>
			<trkpt lat="54.830840" lon="20.142830"><ele>31.5</ele><time>2025-12-08T12:47:55Z</time></trkpt>
			<trkpt lat="54.830720" lon="20.142970"><ele>31.5</ele><time>2025-12-08T12:48:12Z</time></trkpt>
			<trkpt lat="54.830510" lon="20.143200"><ele>31.5</ele><time>2025-12-08T12:48:29Z</time></trkpt>
			<trkpt lat="54.826580" lon="20.146470"><ele>31.8</ele><time>2025-12-08T12:48:45Z</time></trkpt>
			<trkpt lat="54.824810" lon="20.147820"><ele>31.9</ele><time>2025-12-08T12:49:02Z</time></trkpt>
			<trkpt lat="54.823030" lon="20.149040"><ele>29.1</ele><time>2025-12-08T12:49:19Z</time></trkpt>
			<trkpt lat="54.822600" lon="20.149460"><ele>28.4</ele><time>2025-12-08T12:49:36Z</time></trkpt>
			<trkpt lat="54.819340" lon="20.153080"><ele>22.3</ele><time>2025-12-08T12:49:52Z</time></trkpt>
			<trkpt lat="54.819210" lon="20.153240"><ele>22.1</ele><time>2025-12-08T12:50:09Z</time></trkpt>
			<trkpt lat="54.818370" lon="20.154130"><ele>22.8</ele><time>2025-12-08T12:50:26Z</time></trkpt>
			<trkpt lat="54.815000" lon="20.156280"><ele>25.4</ele><time>2025-12-08T12:50:43Z</time></trkpt>
			<trkpt lat="54.814070" lon="20.156850"><ele>25.1</ele><time>2025-12-08T12:50:59Z</time></trkpt>
			<trkpt lat="54.814770" lon="20.164510"><ele>23.2</ele><time>2025-12-08T12:51:16Z</time></trkpt>
			<trkpt lat="54.814890" lon="20.165810"><ele>20.3</ele><time>2025-12-08T12:51:33Z</time></trkpt>
			<trkpt lat="54.814900" lon="20.166470"><ele>20.4</ele><time>2025-12-08T12:51:50Z</time></trkpt>
			<trkpt lat="54.814900" lon="20.166850"><ele>20.7</ele><time>2025-12-08T12:52:06Z</time></trkpt>
			<trkpt lat="54.814880" lon="20.170000"><ele>23.3</ele><time>2025-12-08T12:52:23Z</time></trkpt>
			<trkpt lat="54.814790" lon="20.174080"><ele>29.0</ele><time>2025-12-08T12:52:40Z</time></trkpt>
			<trkpt lat="54.814710" lon="20.178770"><ele>28.6</ele><time>2025-12-08T12:52:57Z</time></trkpt>
			<trkpt lat="54.814640" lon="20.178780"><ele>28.5</ele><time>2025-12-08T12:53:13Z</time></trkpt>
			<trkpt lat="54.814220" lon="20.179100"><ele>27.8</ele><time>2025-12-08T12:53:30Z</time></trkpt>
			<trkpt lat="54.812900" lon="20.180270"><ele>27.1</ele><time>2025-12-08T12:53:47Z</time></trkpt>
			<trkpt lat="54.812900" lon="20.180270"><ele>27.1</ele><time>2025-12-08T12:53:54Z</time></trkpt>
			<trkpt lat="54.811360" lon="20.181670"><ele>30.6</ele><time>2025-12-08T12:54:01Z</time></trkpt>
			<trkpt lat="54.811320" lon="20.181710"><ele>30.6</ele><time>2025-12-08T12:54:08Z</time></trkpt>
			<trkpt lat="54.809360" lon="20.183400"><ele>30.0</ele><time>2025-12-08T12:54:15Z</time></trkpt>
			<trkpt lat="54.808360" lon="20.184310"><ele>29.7</ele><time>2025-12-08T12:54:22Z</time></trkpt>
			<trkpt lat="54.806620" lon="20.185930"><ele>28.0</ele><time>2025-12-08T12:54:29Z</time></trkpt>
			<trkpt lat="54.806410" lon="20.186140"><ele>28.0</ele><time>2025-12-08T12:54:36Z</time></trkpt>
			<trkpt lat="54.805090" lon="20.187370"><ele>28.2</ele><time>2025-12-08T12:54:44Z</time></trkpt>
			<trkpt lat="54.800440" lon="20.191450"><ele>31.6</ele><time>2025-12-08T12:54:51Z</time></trkpt>
			<trkpt lat="54.799550" lon="20.192250"><ele>34.2</ele><time>2025-12-08T12:54:58Z</time></trkpt>
			<trkpt lat="54.798580" lon="20.193250"><ele>36.8</ele><time>2025-12-08T12:55:05Z</time></trkpt>
			<trkpt lat="54.798000" lon="20.193830"><ele>37.4</ele><time>2025-12-08T12:55:12Z</time></trkpt>
			<trkpt lat="54.796320" lon="20.195840"><ele>40.4</ele><time>2025-12-08T12:55:19Z</time></trkpt>
			<trkpt lat="54.795360" lon="20.196930"><ele>43.0</ele><time>2025-12-08T12:55:26Z</time></trkpt>
			<trkpt lat="54.794240" lon="20.198170"><ele>46.7</ele><time>2025-12-08T12:55:33Z</time></trkpt>
			<trkpt lat="54.793340" lon="20.198800"><ele>48.6</ele><time>2025-12-08T12:55:40Z</time></trkpt>
			<trkpt lat="54.791720" lon="20.199730"><ele>53.8</ele><time>2025-12-08T12:55:47Z</time></trkpt>
			<trkpt lat="54.791510" lon="20.200030"><ele>54.9</ele><time>2025-12-08T12:55:55Z</time></trkpt>
			<trkpt lat="54.791360" lon="20.200820"><ele>56.8</ele><time>2025-12-08T12:56:02Z</time></trkpt>
			<trkpt lat="54.791220" lon="20.201920"><ele>58.5</ele><time>2025-12-08T12:56:09Z</time></trkpt>
			<trkpt lat="54.791150" lon="20.202180"><ele>58.9</ele><time>2025-12-08T12:56:16Z</time></trkpt>
			<trkpt lat="54.790990" lon="20.202560"><ele>59.5</ele><time>2025-12-08T12:56:23Z</time></trkpt>
			<trkpt lat="54.790900" lon="20.202670"><ele>59.8</ele><time>2025-12-08T12:56:30Z</time></trkpt>
			<trkpt lat="54.790530" lon="20.203140"><ele>60.9</ele><time>2025-12-08T12:56:37Z</time></trkpt>
			<trkpt lat="54.789840" lon="20.203940"><ele>61.0</ele><time>2025-12-08T12:56:44Z</time></trkpt>
			<trkpt lat="54.788490" lon="20.205470"><ele>58.7</ele><time>2025-12-08T12:56:51Z</time></trkpt>
			<trkpt lat="54.786880" lon="20.207300"><ele>51.6</ele><time>2025-12-08T12:56:58Z</time></trkpt>
			<trkpt lat="54.785640" lon="20.208780"><ele>44.7</ele><time>2025-12-08T12:57:05Z</time></trkpt>
			<trkpt lat="54.783340" lon="20.211420"><ele>40.6</ele><time>2025-12-08T12:57:13Z</time></trkpt>
			<trkpt lat="54.782960" lon="20.211820"><ele>40.7</ele><time>2025-12-08T12:57:20Z</time></trkpt>
			<trkpt lat="54.781810" lon="20.213160"><ele>38.7</ele><time>2025-12-08T12:57:27Z</time></trkpt>
			<trkpt lat="54.781370" lon="20.213590"><ele>37.8</ele><time>2025-12-08T12:57:34Z</time></trkpt>
			<trkpt lat="54.781090" lon="20.213860"><ele>38.9</ele><time>2025-12-08T12:57:41Z</time></trkpt>
			<trkpt lat="54.780760" lon="20.214020"><ele>41.0</ele><time>2025-12-08T12:57:48Z</time></trkpt>
			<trkpt lat="54.780470" lon="20.214010"><ele>42.9</ele><time>2025-12-08T12:57:55Z</time></trkpt>
			<trkpt lat="54.778410" lon="20.213460"><ele>50.6</ele><time>2025-12-08T12:58:02Z</time></trkpt>
			<trkpt lat="54.777650" lon="20.213290"><ele>51.6</ele><time>2025-12-08T12:58:09Z</time></trkpt>
			<trkpt lat="54.776570" lon="20.213010"><ele>52.5</ele><time>2025-12-08T12:58:16Z</time></trkpt>
			<trkpt lat="54.776040" lon="20.212980"><ele>52.9</ele><time>2025-12-08T12:58:23Z</time></trkpt>
			<trkpt lat="54.774630" lon="20.213170"><ele>47.0</ele><time>2025-12-08T12:58:31Z</time></trkpt>
			<trkpt lat="54.773970" lon="20.213350"><ele>44.0</ele><time>2025-12-08T12:58:38Z</time></trkpt>
			<trkpt lat="54.773260" lon="20.213270"><ele>40.9</ele><time>2025-12-08T12:58:45Z</time></trkpt>
			<trkpt lat="54.771960" lon="20.213220"><ele>37.6</ele><time>2025-12-08T12:58:52Z</time></trkpt>
			<trkpt lat="54.768360" lon="20.213280"><ele>39.4</ele><time>2025-12-08T12:58:59Z</time></trkpt>
			<trkpt lat="54.767670" lon="20.213290"><ele>38.4</ele><time>2025-12-08T12:59:06Z</time></trkpt>
			<trkpt lat="54.767350" lon="20.213260"><ele>37.9</ele><time>2025-12-08T12:59:13Z</time></trkpt>
			<trkpt lat="54.767100" lon="20.213160"><ele>37.5</ele><time>2025-12-08T12:59:20Z</time></trkpt>
			<trkpt lat="54.766890" lon="20.212960"><ele>36.9</ele><time>2025-12-08T12:59:27Z</time></trkpt>
			<trkpt lat="54.766750" lon="20.212580"><ele>35.8</ele><time>2025-12-08T12:59:34Z</time></trkpt>
			<trkpt lat="54.766720" lon="20.212460"><ele>35.5</ele><time>2025-12-08T12:59:41Z</time></trkpt>
			<trkpt lat="54.766540" lon="20.211780"><ele>33.6</ele><time>2025-12-08T12:59:49Z</time></trkpt>
			<trkpt lat="54.766410" lon="20.211530"><ele>32.8</ele><time>2025-12-08T12:59:56Z</time></trkpt>
			<trkpt lat="54.766260" lon="20.211340"><ele>31.9</ele><time>2025-12-08T13:00:03Z</time></trkpt>
			<trkpt lat="54.766000" lon="20.211100"><ele>30.7</ele><time>2025-12-08T13:00:10Z</time></trkpt>
			<trkpt lat="54.765800" lon="20.210610"><ele>29.6</ele><time>2025-12-08T13:00:17Z</time></trkpt>
			<trkpt lat="54.765400" lon="20.209280"><ele>32.7</ele><time>2025-12-08T13:00:24Z</time></trkpt>
			<trkpt lat="54.765240" lon="20.208780"><ele>33.8</ele><time>2025-12-08T13:00:31Z</time></trkpt>
			<trkpt lat="54.765170" lon="20.208600"><ele>34.3</ele><time>2025-12-08T13:00:38Z</time></trkpt>
			<trkpt lat="54.764450" lon="20.208100"><ele>36.2</ele><time>2025-12-08T13:00:45Z</time></trkpt>
			<trkpt lat="54.764150" lon="20.207900"><ele>36.5</ele><time>2025-12-08T13:00:52Z</time></trkpt>
			<trkpt lat="54.764070" lon="20.207850"><ele>36.6</ele><time>2025-12-08T13:00:59Z</time></trkpt>
			<trkpt lat="54.763100" lon="20.206740"><ele>37.4</ele><time>2025-12-08T13:01:07Z</time></trkpt>
			<trkpt lat="54.761970" lon="20.205430"><ele>35.3</ele><time>2025-12-08T13:01:14Z</time></trkpt>
			<trkpt lat="54.760990" lon="20.204210"><ele>34.9</ele><time>2025-12-08T13:01:21Z</time></trkpt>
			<trkpt lat="54.760050" lon="20.203090"><ele>34.6</ele><time>2025-12-08T13:01:28Z</time></trkpt>
			<trkpt lat="54.754600" lon="20.196620"><ele>19.7</ele><time>2025-12-08T13:01:35Z</time></trkpt>
			<trkpt lat="54.754270" lon="20.196240"><ele>19.1</ele><time>2025-12-08T13:01:42Z</time></trkpt>
			<trkpt lat="54.753570" lon="20.195420"><ele>17.9</ele><time>2025-12-08T13:01:49Z</time></trkpt>
			<trkpt lat="54.752390" lon="20.194060"><ele>17.6</ele><time>2025-12-08T13:01:56Z</time></trkpt>
			<trkpt lat="54.750730" lon="20.192070"><ele>20.9</ele><time>2025-12-08T13:02:03Z</time></trkpt>
			<trkpt lat="54.750630" lon="20.191970"><ele>20.9</ele><time>2025-12-08T13:02:10Z</time></trkpt>
			<trkpt lat="54.750560" lon="20.191970"><ele>20.9</ele><time>2025-12-08T13:02:17Z</time></trkpt>
			<trkpt lat="54.750510" lon="20.192000"><ele>20.9</ele><time>2025-12-08T13:02:25Z</time></trkpt>
			<trkpt lat="54.750480" lon="20.192050"><ele>20.9</ele><time>2025-12-08T13:02:32Z</time></trkpt>
			<trkpt lat="54.750460" lon="20.192110"><ele>20.9</ele><time>2025-12-08T13:02:39Z</time></trkpt>
			<trkpt lat="54.750450" lon="20.192240"><ele>20.9</ele><time>2025-12-08T13:02:46Z</time></trkpt>
			<trkpt lat="54.750380" lon="20.194130"><ele>20.6</ele><time>2025-12-08T13:02:53Z</time></trkpt>
			<trkpt lat="54.750380" lon="20.194130"><ele>20.6</ele><time>2025-12-08T13:03:01Z</time></trkpt>
			<trkpt lat="54.750370" lon="20.194340"><ele>20.4</ele><time>2025-12-08T13:03:09Z</time></trkpt>
			<trkpt lat="54.750300" lon="20.196060"><ele>19.4</ele><time>2025-12-08T13:03:17Z</time></trkpt>
			<trkpt lat="54.750300" lon="20.196230"><ele>19.3</ele><time>2025-12-08T13:03:25Z</time></trkpt>
			<trkpt lat="54.750250" lon="20.197470"><ele>19.1</ele><time>2025-12-08T13:03:33Z</time></trkpt>
			<trkpt lat="54.749900" lon="20.205800"><ele>16.9</ele><time>2025-12-08T13:03:41Z</time></trkpt>
			<trkpt lat="54.749720" lon="20.209550"><ele>16.1</ele><time>2025-12-08T13:03:49Z</time></trkpt>
			<trkpt lat="54.749480" lon="20.215410"><ele>13.9</ele><time>2025-12-08T13:03:57Z</time></trkpt>
			<trkpt lat="54.749410" lon="20.216990"><ele>13.7</ele><time>2025-12-08T13:04:05Z</time></trkpt>
			<trkpt lat="54.749360" lon="20.218330"><ele>13.6</ele><time>2025-12-08T13:04:13Z</time></trkpt>
			<trkpt lat="54.749290" lon="20.219520"><ele>13.6</ele><time>2025-12-08T13:04:21Z</time></trkpt>
			<trkpt lat="54.749140" lon="20.221230"><ele>13.8</ele><time>2025-12-08T13:04:29Z</time></trkpt>
			<trkpt lat="54.748900" lon="20.223630"><ele>12.2</ele><time>2025-12-08T13:04:37Z</time></trkpt>
			<trkpt lat="54.748750" lon="20.225260"><ele>10.9</ele><time>2025-12-08T13:04:45Z</time></trkpt>
			<trkpt lat="54.748630" lon="20.226540"><ele>10.0</ele><time>2025-12-08T13:04:53Z</time></trkpt>
			<trkpt lat="54.748520" lon="20.227550"><ele>9.2</ele><time>2025-12-08T13:05:01Z</time></trkpt>
			<trkpt lat="54.748210" lon="20.230860"><ele>13.7</ele><time>2025-12-08T13:05:09Z</time></trkpt>
			<trkpt lat="54.747840" lon="20.234830"><ele>19.2</ele><time>2025-12-08T13:05:17Z</time></trkpt>
			<trkpt lat="54.747770" lon="20.235340"><ele>20.9</ele><time>2025-12-08T13:05:25Z</time></trkpt>
			<trkpt lat="54.747670" lon="20.235770"><ele>22.3</ele><time>2025-12-08T13:05:33Z</time></trkpt>
			<trkpt lat="54.747420" lon="20.236500"><ele>24.9</ele><time>2025-12-08T13:05:41Z</time></trkpt>
			<trkpt lat="54.747270" lon="20.237040"><ele>26.0</ele><time>2025-12-08T13:05:49Z</time></trkpt>
			<trkpt lat="54.746430" lon="20.239760"><ele>25.0</ele><time>2025-12-08T13:05:57Z</time></trkpt>
			<trkpt lat="54.744720" lon="20.245350"><ele>24.4</ele><time>2025-12-08T13:06:05Z</time></trkpt>
			<trkpt lat="54.744310" lon="20.246850"><ele>25.1</ele><time>2025-12-08T13:06:13Z</time></trkpt>
			<trkpt lat="54.744140" lon="20.247400"><ele>25.4</ele><time>2025-12-08T13:06:21Z</time></trkpt>
			<trkpt lat="54.743940" lon="20.248090"><ele>25.7</ele><time>2025-12-08T13:06:29Z</time></trkpt>
			<trkpt lat="54.743370" lon="20.249860"><ele>25.9</ele><time>2025-12-08T13:06:37Z</time></trkpt>
			<trkpt lat="54.742660" lon="20.252160"><ele>24.8</ele><time>2025-12-08T13:06:45Z</time></trkpt>
			<trkpt lat="54.742610" lon="20.252610"><ele>24.5</ele><time>2025-12-08T13:06:53Z</time></trkpt>
			<trkpt lat="54.742620" lon="20.253680"><ele>23.8</ele><time>2025-12-08T13:07:01Z</time></trkpt>
			<trkpt lat="54.742710" lon="20.256040"><ele>21.4</ele><time>2025-12-08T13:07:09Z</time></trkpt>
			<trkpt lat="54.742730" lon="20.256650"><ele>20.8</ele><time>2025-12-08T13:07:17Z</time></trkpt>
			<trkpt lat="54.742770" lon="20.257080"><ele>20.7</ele><time>2025-12-08T13:07:25Z</time></trkpt>
			<trkpt lat="54.742840" lon="20.257360"><ele>20.7</ele><time>2025-12-08T13:07:33Z</time></trkpt>
			<trkpt lat="54.742930" lon="20.257600"><ele>20.7</ele><time>2025-12-08T13:07:41Z</time></trkpt>
			<trkpt lat="54.743420" lon="20.258280"><ele>20.7</ele><time>2025-12-08T13:07:49Z</time></trkpt>
			<trkpt lat="54.743800" lon="20.258860"><ele>20.7</ele><time>2025-12-08T13:07:57Z</time></trkpt>
			<trkpt lat="54.743910" lon="20.259290"><ele>20.5</ele><time>2025-12-08T13:08:05Z</time></trkpt>
			<trkpt lat="54.743920" lon="20.259450"><ele>20.4</ele><time>2025-12-08T13:08:13Z</time></trkpt>
			<trkpt lat="54.743940" lon="20.259860"><ele>20.1</ele><time>2025-12-08T13:08:21Z</time></trkpt>
			<trkpt lat="54.744100" lon="20.261670"><ele>18.8</ele><time>2025-12-08T13:08:29Z</time></trkpt>
			<trkpt lat="54.744610" lon="20.266270"><ele>15.5</ele><time>2025-12-08T13:08:37Z</time></trkpt>
			<trkpt lat="54.744750" lon="20.267360"><ele>15.6</ele><time>2025-12-08T13:08:45Z</time></trkpt>
			<trkpt lat="54.745100" lon="20.270490"><ele>13.2</ele><time>2025-12-08T13:08:53Z</time></trkpt>
			<trkpt lat="54.745310" lon="20.272310"><ele>11.0</ele><time>2025-12-08T13:09:01Z</time></trkpt>
			<trkpt lat="54.745450" lon="20.273640"><ele>9.3</ele><time>2025-12-08T13:09:09Z</time></trkpt>
			<trkpt lat="54.745670" lon="20.275460"><ele>8.4</ele><time>2025-12-08T13:09:17Z</time></trkpt>
			<trkpt lat="54.745750" lon="20.275780"><ele>8.3</ele><time>2025-12-08T13:09:25Z</time></trkpt>
			<trkpt lat="54.745930" lon="20.276270"><ele>8.3</ele><time>2025-12-08T13:09:33Z</time></trkpt>
			<trkpt lat="54.746010" lon="20.276460"><ele>8.3</ele><time>2025-12-08T13:09:41Z</time></trkpt>
			<trkpt lat="54.746170" lon="20.276870"><ele>8.3</ele><time>2025-12-08T13:09:49Z</time></trkpt>
			<trkpt lat="54.746400" lon="20.277510"><ele>8.8</ele><time>2025-12-08T13:09:57Z</time></trkpt>
			<trkpt lat="54.746720" lon="20.278370"><ele>10.1</ele><time>2025-12-08T13:10:05Z</time></trkpt>
			<trkpt lat="54.747030" lon="20.279220"><ele>11.3</ele><time>2025-12-08T13:10:13Z</time></trkpt>
			<trkpt lat="54.747620" lon="20.280800"><ele>11.1</ele><time>2025-12-08T13:10:21Z</time></trkpt>
			<trkpt lat="54.747700" lon="20.280980"><ele>10.8</ele><time>2025-12-08T13:10:29Z</time></trkpt>
			<trkpt lat="54.747780" lon="20.281230"><ele>10.6</ele><time>2025-12-08T13:10:36Z</time></trkpt>
			<trkpt lat="54.747840" lon="20.281520"><ele>10.3</ele><time>2025-12-08T13:10:44Z</time></trkpt>
			<trkpt lat="54.747920" lon="20.282040"><ele>9.7</ele><time>2025-12-08T13:10:52Z</time></trkpt>
			<trkpt lat="54.748170" lon="20.284060"><ele>10.2</ele><time>2025-12-08T13:11:00Z</time></trkpt>
			<trkpt lat="54.748270" lon="20.284820"><ele>10.7</ele><time>2025-12-08T13:11:08Z</time></trkpt>
			<trkpt lat="54.748950" lon="20.290060"><ele>10.0</ele><time>2025-12-08T13:11:16Z</time></trkpt>
			<trkpt lat="54.749100" lon="20.291190"><ele>8.6</ele><time>2025-12-08T13:11:24Z</time></trkpt>
			<trkpt lat="54.749140" lon="20.291610"><ele>8.1</ele><time>2025-12-08T13:11:32Z</time></trkpt>
			<trkpt lat="54.749140" lon="20.292120"><ele>7.9</ele><time>2025-12-08T13:11:40Z</time></trkpt>
			<trkpt lat="54.749020" lon="20.293910"><ele>7.9</ele><time>2025-12-08T13:11:48Z</time></trkpt>
			<trkpt lat="54.749020" lon="20.294240"><ele>7.8</ele><time>2025-12-08T13:11:56Z</time></trkpt>
			<trkpt lat="54.749050" lon="20.294520"><ele>7.8</ele><time>2025-12-08T13:12:04Z</time></trkpt>
			<trkpt lat="54.749110" lon="20.294760"><ele>7.8</ele><time>2025-12-08T13:12:12Z</time></trkpt>
			<trkpt lat="54.749260" lon="20.295250"><ele>8.0</ele><time>2025-12-08T13:12:20Z</time></trkpt>
			<trkpt lat="54.749350" lon="20.295630"><ele>8.1</ele><time>2025-12-08T13:12:28Z</time></trkpt>
			<trkpt lat="54.749400" lon="20.295880"><ele>8.2</ele><time>2025-12-08T13:12:36Z</time></trkpt>
			<trkpt lat="54.749420" lon="20.296350"><ele>8.4</ele><time>2025-12-08T13:12:44Z</time></trkpt>
			<trkpt lat="54.749420" lon="20.296700"><ele>8.5</ele><time>2025-12-08T13:12:52Z</time></trkpt>
			<trkpt lat="54.749490" lon="20.298670"><ele>8.9</ele><time>2025-12-08T13:13:00Z</time></trkpt>
			<trkpt lat="54.749490" lon="20.299110"><ele>8.9</ele><time>2025-12-08T13:13:08Z</time></trkpt>
			<trkpt lat="54.749400" lon="20.299540"><ele>8.9</ele><time>2025-12-08T13:13:16Z</time></trkpt>
			<trkpt lat="54.749320" lon="20.299820"><ele>8.9</ele><time>2025-12-08T13:13:24Z</time></trkpt>
			<trkpt lat="54.749120" lon="20.300330"><ele>8.8</ele><time>2025-12-08T13:13:32Z</time></trkpt>
			<trkpt lat="54.749030" lon="20.300590"><ele>8.8</ele><time>2025-12-08T13:13:40Z</time></trkpt>
			<trkpt lat="54.748980" lon="20.300990"><ele>8.8</ele><time>2025-12-08T13:13:48Z</time></trkpt>
			<trkpt lat="54.748940" lon="20.302280"><ele>9.0</ele><time>2025-12-08T13:13:56Z</time></trkpt>
			<trkpt lat="54.749010" lon="20.302620"><ele>9.0</ele><time>2025-12-08T13:14:04Z</time></trkpt>
			<trkpt lat="54.749580" lon="20.303840"><ele>9.4</ele><time>2025-12-08T13:14:12Z</time></trkpt>
			<trkpt lat="54.757440" lon="20.320880"><ele>26.3</ele><time>2025-12-08T13:14:20Z</time></trkpt>
			<trkpt lat="54.761150" lon="20.328890"><ele>28.4</ele><time>2025-12-08T13:14:28Z</time></trkpt>
			<trkpt lat="54.760940" lon="20.329320"><ele>28.2</ele><time>2025-12-08T13:14:36Z</time></trkpt>
			<trkpt lat="54.759690" lon="20.331800"><ele>29.3</ele><time>2025-12-08T13:14:44Z</time></trkpt>
			<trkpt lat="54.758450" lon="20.334310"><ele>33.2</ele><time>2025-12-08T13:14:52Z</time></trkpt>
			<trkpt lat="54.757580" lon="20.336060"><ele>35.3</ele><time>2025-12-08T13:15:00Z</time></trkpt>
			<trkpt lat="54.756710" lon="20.337830"><ele>35.0</ele><time>2025-12-08T13:15:08Z</time></trkpt>
			<trkpt lat="54.756580" lon="20.338120"><ele>33.8</ele><time>2025-12-08T13:15:16Z</time></trkpt>
			<trkpt lat="54.756540" lon="20.338290"><ele>33.2</ele><time>2025-12-08T13:15:24Z</time></trkpt>
			<trkpt lat="54.756490" lon="20.338520"><ele>32.4</ele><time>2025-12-08T13:15:32Z</time></trkpt>
			<trkpt lat="54.756200" lon="20.340330"><ele>26.2</ele><time>2025-12-08T13:15:40Z</time></trkpt>
			<trkpt lat="54.756010" lon="20.341900"><ele>32.3</ele><time>2025-12-08T13:15:48Z</time></trkpt>
			<trkpt lat="54.755910" lon="20.342580"><ele>35.1</ele><time>2025-12-08T13:15:56Z</time></trkpt>
			<trkpt lat="54.755310" lon="20.345840"><ele>32.1</ele><time>2025-12-08T13:16:04Z</time></trkpt>
			<trkpt lat="54.755240" lon="20.346600"><ele>30.4</ele><time>2025-12-08T13:16:12Z</time></trkpt>
			<trkpt lat="54.755240" lon="20.347160"><ele>29.5</ele><time>2025-12-08T13:16:20Z</time></trkpt>
			<trkpt lat="54.755250" lon="20.347590"><ele>28.8</ele><time>2025-12-08T13:16:28Z</time></trkpt>
			<trkpt lat="54.755450" lon="20.353030"><ele>26.5</ele><time>2025-12-08T13:16:36Z</time></trkpt>
			<trkpt lat="54.755590" lon="20.358430"><ele>25.3</ele><time>2025-12-08T13:16:44Z</time></trkpt>
			<trkpt lat="54.755730" lon="20.362550"><ele>27.8</ele><time>2025-12-08T13:16:52Z</time></trkpt>
			<trkpt lat="54.755740" lon="20.363120"><ele>28.1</ele><time>2025-12-08T13:17:00Z</time></trkpt>
			<trkpt lat="54.755930" lon="20.368140"><ele>27.9</ele><time>2025-12-08T13:17:08Z</time></trkpt>
			<trkpt lat="54.756230" lon="20.377300"><ele>28.9</ele><time>2025-12-08T13:17:16Z</time></trkpt>
			<trkpt lat="54.756250" lon="20.377710"><ele>28.2</ele><time>2025-12-08T13:17:24Z</time></trkpt>
			<trkpt lat="54.756290" lon="20.378030"><ele>28.0</ele><time>2025-12-08T13:17:32Z</time></trkpt>
			<trkpt lat="54.756490" lon="20.379150"><ele>27.4</ele><time>2025-12-08T13:17:40Z</time></trkpt>
			<trkpt lat="54.756730" lon="20.380310"><ele>26.7</ele><time>2025-12-08T13:17:48Z</time></trkpt>
			<trkpt lat="54.757410" lon="20.383640"><ele>28.4</ele><time>2025-12-08T13:17:56Z</time></trkpt>
			<trkpt lat="54.759300" lon="20.393040"><ele>26.1</ele><time>2025-12-08T13:18:04Z</time></trkpt>
			<trkpt lat="54.759510" lon="20.393970"><ele>26.2</ele><time>2025-12-08T13:18:12Z</time></trkpt>
			<trkpt lat="54.759610" lon="20.394510"><ele>26.3</ele><time>2025-12-08T13:18:20Z</time></trkpt>
			<trkpt lat="54.759710" lon="20.395240"><ele>26.4</ele><time>2025-12-08T13:18:28Z</time></trkpt>
			<trkpt lat="54.759760" lon="20.395760"><ele>26.7</ele><time>2025-12-08T13:18:36Z</time></trkpt>
			<trkpt lat="54.759780" lon="20.396020"><ele>26.9</ele><time>2025-12-08T13:18:44Z</time></trkpt>
			<trkpt lat="54.759790" lon="20.396820"><ele>27.5</ele><time>2025-12-08T13:18:52Z</time></trkpt>
			<trkpt lat="54.759760" lon="20.398550"><ele>28.8</ele><time>2025-12-08T13:19:00Z</time></trkpt>
			<trkpt lat="54.759590" lon="20.404320"><ele>30.5</ele><time>2025-12-08T13:19:08Z</time></trkpt>
			<trkpt lat="54.759480" lon="20.407870"><ele>30.3</ele><time>2025-12-08T13:19:16Z</time></trkpt>
			<trkpt lat="54.759390" lon="20.410590"><ele>28.3</ele><time>2025-12-08T13:19:24Z</time></trkpt>
			<trkpt lat="54.759370" lon="20.411040"><ele>28.0</ele><time>2025-12-08T13:19:32Z</time></trkpt>
			<trkpt lat="54.759350" lon="20.411600"><ele>28.0</ele><time>2025-12-08T13:19:40Z</time></trkpt>
			<trkpt lat="54.759370" lon="20.412330"><ele>28.0</ele><time>2025-12-08T13:19:48Z</time></trkpt>
			<trkpt lat="54.759450" lon="20.413020"><ele>28.1</ele><time>2025-12-08T13:19:56Z</time></trkpt>
			<trkpt lat="54.759640" lon="20.414210"><ele>28.1</ele><time>2025-12-08T13:20:04Z</time></trkpt>
			<trkpt lat="54.759900" lon="20.415230"><ele>27.8</ele><time>2025-12-08T13:20:12Z</time></trkpt>
			<trkpt lat="54.760690" lon="20.418090"><ele>28.1</ele><time>2025-12-08T13:20:20Z</time></trkpt>
			<trkpt lat="54.762120" lon="20.425030"><ele>28.3</ele><time>2025-12-08T13:20:28Z</time></trkpt>
			<trkpt lat="54.763220" lon="20.430750"><ele>27.6</ele><time>2025-12-08T13:20:36Z</time></trkpt>
			<trkpt lat="54.763220" lon="20.430750"><ele>27.6</ele><time>2025-12-08T13:20:40Z</time></trkpt>
			<trkpt lat="54.763330" lon="20.431340"><ele>27.9</ele><time>2025-12-08T13:20:44Z</time></trkpt>
			<trkpt lat="54.763420" lon="20.431840"><ele>28.0</ele><time>2025-12-08T13:20:49Z</time></trkpt>
			<trkpt lat="54.763430" lon="20.432000"><ele>28.0</ele><time>2025-12-08T13:20:53Z</time></trkpt>
			<trkpt lat="54.763430" lon="20.432160"><ele>28.0</ele><time>2025-12-08T13:20:57Z</time></trkpt>
			<trkpt lat="54.763350" lon="20.432410"><ele>28.0</ele><time>2025-12-08T13:21:01Z</time></trkpt>
			<trkpt lat="54.762950" lon="20.433060"><ele>27.9</ele><time>2025-12-08T13:21:05Z</time></trkpt>
			<trkpt lat="54.762650" lon="20.433540"><ele>27.8</ele><time>2025-12-08T13:21:10Z</time></trkpt>
			<trkpt lat="54.762610" lon="20.433610"><ele>27.8</ele><time>2025-12-08T13:21:14Z</time></trkpt>
			<trkpt lat="54.762560" lon="20.433690"><ele>27.8</ele><time>2025-12-08T13:21:18Z</time></trkpt>
			<trkpt lat="54.762290" lon="20.434110"><ele>27.8</ele><time>2025-12-08T13:21:22Z</time></trkpt>
			<trkpt lat="54.761340" lon="20.435580"><ele>28.0</ele><time>2025-12-08T13:21:27Z</time></trkpt>
			<trkpt lat="54.761220" lon="20.435760"><ele>28.0</ele><time>2025-12-08T13:21:31Z</time></trkpt>
			<trkpt lat="54.760760" lon="20.436570"><ele>28.7</ele><time>2025-12-08T13:21:35Z</time></trkpt>
			<trkpt lat="54.760740" lon="20.436610"><ele>28.8</ele><time>2025-12-08T13:21:39Z</time></trkpt>
			<trkpt lat="54.760160" lon="20.437560"><ele>30.1</ele><time>2025-12-08T13:21:43Z</time></trkpt>
			<trkpt lat="54.759320" lon="20.439090"><ele>30.5</ele><time>2025-12-08T13:21:48Z</time></trkpt>
			<trkpt lat="54.759190" lon="20.439340"><ele>30.4</ele><time>2025-12-08T13:21:52Z</time></trkpt>
			<trkpt lat="54.759040" lon="20.439630"><ele>30.2</ele><time>2025-12-08T13:21:56Z</time></trkpt>
			<trkpt lat="54.759030" lon="20.439800"><ele>30.1</ele><time>2025-12-08T13:22:00Z</time></trkpt>
			<trkpt lat="54.759050" lon="20.439890"><ele>30.1</ele><time>2025-12-08T13:22:04Z</time></trkpt>
			<trkpt lat="54.759320" lon="20.440330"><ele>29.8</ele><time>2025-12-08T13:22:09Z</time></trkpt>
			<trkpt lat="54.759550" lon="20.440660"><ele>29.7</ele><time>2025-12-08T13:22:13Z</time></trkpt>
			<trkpt lat="54.759800" lon="20.441040"><ele>29.7</ele><time>2025-12-08T13:22:17Z</time></trkpt>
			<trkpt lat="54.760140" lon="20.441510"><ele>29.8</ele><time>2025-12-08T13:22:21Z</time></trkpt>
			<trkpt lat="54.760230" lon="20.441570"><ele>29.8</ele><time>2025-12-08T13:22:26Z</time></trkpt>
			<trkpt lat="54.760480" lon="20.441640"><ele>29.9</ele><time>2025-12-08T13:22:30Z</time></trkpt>
			<trkpt lat="54.760580" lon="20.441710"><ele>29.9</ele><time>2025-12-08T13:22:34Z</time></trkpt>
			<trkpt lat="54.760670" lon="20.441810"><ele>29.9</ele><time>2025-12-08T13:22:38Z</time></trkpt>
			<trkpt lat="54.760840" lon="20.442250"><ele>30.0</ele><time>2025-12-08T13:22:42Z</time></trkpt>
			<trkpt lat="54.761000" lon="20.442670"><ele>30.2</ele><time>2025-12-08T13:22:47Z</time></trkpt>
			<trkpt lat="54.761190" lon="20.443190"><ele>30.6</ele><time>2025-12-08T13:22:51Z</time></trkpt>
			<trkpt lat="54.761210" lon="20.443340"><ele>30.7</ele><time>2025-12-08T13:22:55Z</time></trkpt>
			<trkpt lat="54.761210" lon="20.443470"><ele>30.8</ele><time>2025-12-08T13:22:59Z</time></trkpt>
			<trkpt lat="54.761200" lon="20.443620"><ele>30.8</ele><time>2025-12-08T13:23:04Z</time></trkpt>
			<trkpt lat="54.761160" lon="20.443750"><ele>30.9</ele><time>2025-12-08T13:23:08Z</time></trkpt>
			<trkpt lat="54.761130" lon="20.443890"><ele>31.0</ele><time>2025-12-08T13:23:12Z</time></trkpt>
			<trkpt lat="54.761130" lon="20.444040"><ele>31.1</ele><time>2025-12-08T13:23:16Z</time></trkpt>
			<trkpt lat="54.761150" lon="20.444180"><ele>31.2</ele><time>2025-12-08T13:23:20Z</time></trkpt>
			<trkpt lat="54.761200" lon="20.444310"><ele>31.3</ele><time>2025-12-08T13:23:25Z</time></trkpt>
			<trkpt lat="54.761220" lon="20.444370"><ele>31.4</ele><time>2025-12-08T13:23:29Z</time></trkpt>
			<trkpt lat="54.761290" lon="20.444470"><ele>31.4</ele><time>2025-12-08T13:23:33Z</time></trkpt>
			<trkpt lat="54.761330" lon="20.444510"><ele>31.5</ele><time>2025-12-08T13:23:37Z</time></trkpt>
			<trkpt lat="54.761410" lon="20.444550"><ele>31.6</ele><time>2025-12-08T13:23:41Z</time></trkpt>
			<trkpt lat="54.761450" lon="20.444560"><ele>31.6</ele><time>2025-12-08T13:23:46Z</time></trkpt>
			<trkpt lat="54.761550" lon="20.444550"><ele>31.7</ele><time>2025-12-08T13:23:50Z</time></trkpt>
			<trkpt lat="54.761620" lon="20.444510"><ele>31.8</ele><time>2025-12-08T13:23:54Z</time></trkpt>
			<trkpt lat="54.761690" lon="20.444440"><ele>31.9</ele><time>2025-12-08T13:23:58Z</time></trkpt>
			<trkpt lat="54.761750" lon="20.444330"><ele>31.8</ele><time>2025-12-08T13:24:03Z</time></trkpt>
			<trkpt lat="54.761780" lon="20.444250"><ele>31.8</ele><time>2025-12-08T13:24:07Z</time></trkpt>
			<trkpt lat="54.761810" lon="20.444160"><ele>31.7</ele><time>2025-12-08T13:24:11Z</time></trkpt>
			<trkpt lat="54.761840" lon="20.444060"><ele>31.6</ele><time>2025-12-08T13:24:15Z</time></trkpt>
			<trkpt lat="54.761890" lon="20.443980"><ele>31.6</ele><time>2025-12-08T13:24:19Z</time></trkpt>
			<trkpt lat="54.761970" lon="20.443890"><ele>31.5</ele><time>2025-12-08T13:24:24Z</time></trkpt>
			<trkpt lat="54.762060" lon="20.443820"><ele>31.4</ele><time>2025-12-08T13:24:28Z</time></trkpt>
			<trkpt lat="54.762160" lon="20.443790"><ele>31.3</ele><time>2025-12-08T13:24:32Z</time></trkpt>
			<trkpt lat="54.762340" lon="20.443760"><ele>31.1</ele><time>2025-12-08T13:24:36Z</time></trkpt>
			<trkpt lat="54.762670" lon="20.443730"><ele>30.7</ele><time>2025-12-08T13:24:41Z</time></trkpt>
			<trkpt lat="54.763030" lon="20.443740"><ele>30.3</ele><time>2025-12-08T13:24:45Z</time></trkpt>
			<trkpt lat="54.763800" lon="20.443770"><ele>30.0</ele><time>2025-12-08T13:24:49Z</time></trkpt>
			<trkpt lat="54.764210" lon="20.443760"><ele>30.0</ele><time>2025-12-08T13:24:53Z</time></trkpt>
			<trkpt lat="54.764410" lon="20.443780"><ele>30.0</ele><time>2025-12-08T13:24:57Z</time></trkpt>
			<trkpt lat="54.764490" lon="20.443810"><ele>30.0</ele><time>2025-12-08T13:25:02Z</time></trkpt>
			<trkpt lat="54.764700" lon="20.444020"><ele>30.0</ele><time>2025-12-08T13:25:06Z</time></trkpt>
			<trkpt lat="54.765040" lon="20.444400"><ele>30.0</ele><time>2025-12-08T13:25:10Z</time></trkpt>
			<trkpt lat="54.764820" lon="20.445920"><ele>29.8</ele><time>2025-12-08T13:25:14Z</time></trkpt>
			<trkpt lat="54.764620" lon="20.447420"><ele>29.5</ele><time>2025-12-08T13:25:18Z</time></trkpt>
			<trkpt lat="54.764040" lon="20.451450"><ele>28.8</ele><time>2025-12-08T13:25:23Z</time></trkpt>
			<trkpt lat="54.764070" lon="20.451600"><ele>28.8</ele><time>2025-12-08T13:25:27Z</time></trkpt>
			<trkpt lat="54.764150" lon="20.451640"><ele>28.8</ele><time>2025-12-08T13:25:31Z</time></trkpt>
			<trkpt lat="54.764150" lon="20.451640"><ele>28.8</ele><time>2025-12-08T13:25:37Z</time></trkpt>
			<trkpt lat="54.764550" lon="20.451810"><ele>28.7</ele><time>2025-12-08T13:25:43Z</time></trkpt>
			<trkpt lat="54.767470" lon="20.453010"><ele>32.2</ele><time>2025-12-08T13:25:49Z</time></trkpt>
			<trkpt lat="54.767970" lon="20.453290"><ele>32.4</ele><time>2025-12-08T13:25:55Z</time></trkpt>
			<trkpt lat="54.768300" lon="20.453450"><ele>32.5</ele><time>2025-12-08T13:26:01Z</time></trkpt>
			<trkpt lat="54.768500" lon="20.453530"><ele>32.6</ele><time>2025-12-08T13:26:07Z</time></trkpt>
			<trkpt lat="54.768520" lon="20.453540"><ele>32.6</ele><time>2025-12-08T13:26:13Z</time></trkpt>
			<trkpt lat="54.768650" lon="20.453600"><ele>32.7</ele><time>2025-12-08T13:26:19Z</time></trkpt>
			<trkpt lat="54.768980" lon="20.453700"><ele>32.7</ele><time>2025-12-08T13:26:25Z</time></trkpt>
			<trkpt lat="54.769130" lon="20.453730"><ele>32.7</ele><time>2025-12-08T13:26:30Z</time></trkpt>
			<trkpt lat="54.769150" lon="20.453730"><ele>32.7</ele><time>2025-12-08T13:26:36Z</time></trkpt>
			<trkpt lat="54.769500" lon="20.453800"><ele>32.7</ele><time>2025-12-08T13:26:42Z</time></trkpt>
			<trkpt lat="54.769880" lon="20.453840"><ele>32.7</ele><time>2025-12-08T13:26:48Z</time></trkpt>
			<trkpt lat="54.770100" lon="20.453830"><ele>32.7</ele><time>2025-12-08T13:26:54Z</time></trkpt>
			<trkpt lat="54.770310" lon="20.453810"><ele>32.7</ele><time>2025-12-08T13:27:00Z</time></trkpt>
			<trkpt lat="54.770670" lon="20.453760"><ele>32.6</ele><time>2025-12-08T13:27:06Z</time></trkpt>
			<trkpt lat="54.770770" lon="20.453730"><ele>32.6</ele><time>2025-12-08T13:27:12Z</time></trkpt>
			<trkpt lat="54.770780" lon="20.455070"><ele>32.2</ele><time>2025-12-08T13:27:18Z</time></trkpt>
			<trkpt lat="54.770770" lon="20.456290"><ele>31.9</ele><time>2025-12-08T13:27:24Z</time></trkpt>
			<trkpt lat="54.770770" lon="20.456410"><ele>32.0</ele><time>2025-12-08T13:27:30Z</time></trkpt>
			<trkpt lat="54.770770" lon="20.456500"><ele>32.0</ele><time>2025-12-08T13:27:36Z</time></trkpt>
			<trkpt lat="54.770750" lon="20.459570"><ele>33.8</ele><time>2025-12-08T13:27:42Z</time></trkpt>
			<trkpt lat="54.770730" lon="20.462270"><ele>36.4</ele><time>2025-12-08T13:27:48Z</time></trkpt>
			<trkpt lat="54.770720" lon="20.463690"><ele>37.4</ele><time>2025-12-08T13:27:54Z</time></trkpt>
			<trkpt lat="54.770700" lon="20.464270"><ele>37.7</ele><time>2025-12-08T13:27:59Z</time></trkpt>
			<trkpt lat="54.770660" lon="20.464790"><ele>38.0</ele><time>2025-12-08T13:28:05Z</time></trkpt>
			<trkpt lat="54.770610" lon="20.465340"><ele>38.3</ele><time>2025-12-08T13:28:11Z</time></trkpt>
			<trkpt lat="54.770530" lon="20.465860"><ele>38.5</ele><time>2025-12-08T13:28:17Z</time></trkpt>
			<trkpt lat="54.770440" lon="20.466380"><ele>38.3</ele><time>2025-12-08T13:28:23Z</time></trkpt>
			<trkpt lat="54.770250" lon="20.467120"><ele>38.2</ele><time>2025-12-08T13:28:29Z</time></trkpt>
			<trkpt lat="54.770100" lon="20.467600"><ele>38.1</ele><time>2025-12-08T13:28:35Z</time></trkpt>
			<trkpt lat="54.770100" lon="20.467600"><ele>38.1</ele><time>2025-12-08T13:28:37Z</time></trkpt>
			<trkpt lat="54.770000" lon="20.467920"><ele>38.0</ele><time>2025-12-08T13:28:40Z</time></trkpt>
			<trkpt lat="54.769760" lon="20.468500"><ele>37.8</ele><time>2025-12-08T13:28:42Z</time></trkpt>
			<trkpt lat="54.769630" lon="20.468780"><ele>37.3</ele><time>2025-12-08T13:28:45Z</time></trkpt>
			<trkpt lat="54.769480" lon="20.469050"><ele>36.7</ele><time>2025-12-08T13:28:47Z</time></trkpt>
			<trkpt lat="54.769170" lon="20.469570"><ele>35.6</ele><time>2025-12-08T13:28:49Z</time></trkpt>
			<trkpt lat="54.768980" lon="20.469840"><ele>35.0</ele><time>2025-12-08T13:28:52Z</time></trkpt>
			<trkpt lat="54.768650" lon="20.470260"><ele>33.9</ele><time>2025-12-08T13:28:54Z</time></trkpt>
			<trkpt lat="54.768270" lon="20.470660"><ele>33.5</ele><time>2025-12-08T13:28:56Z</time></trkpt>
			<trkpt lat="54.768120" lon="20.470790"><ele>33.9</ele><time>2025-12-08T13:28:59Z</time></trkpt>
			<trkpt lat="54.767940" lon="20.470920"><ele>34.3</ele><time>2025-12-08T13:29:01Z</time></trkpt>
			<trkpt lat="54.767650" lon="20.471090"><ele>34.9</ele><time>2025-12-08T13:29:03Z</time></trkpt>
			<trkpt lat="54.767360" lon="20.471230"><ele>35.5</ele><time>2025-12-08T13:29:06Z</time></trkpt>
			<trkpt lat="54.767060" lon="20.471330"><ele>36.1</ele><time>2025-12-08T13:29:08Z</time></trkpt>
			<trkpt lat="54.766870" lon="20.471380"><ele>36.5</ele><time>2025-12-08T13:29:10Z</time></trkpt>
			<trkpt lat="54.766660" lon="20.471430"><ele>36.8</ele><time>2025-12-08T13:29:13Z</time></trkpt>
			<trkpt lat="54.766430" lon="20.471460"><ele>36.5</ele><time>2025-12-08T13:29:15Z</time></trkpt>
			<trkpt lat="54.766330" lon="20.471430"><ele>36.3</ele><time>2025-12-08T13:29:18Z</time></trkpt>
			<trkpt lat="54.766230" lon="20.471360"><ele>36.1</ele><time>2025-12-08T13:29:20Z</time></trkpt>
			<trkpt lat="54.766140" lon="20.471270"><ele>36.0</ele><time>2025-12-08T13:29:22Z</time></trkpt>
			<trkpt lat="54.765990" lon="20.471070"><ele>35.7</ele><time>2025-12-08T13:29:25Z</time></trkpt>
			<trkpt lat="54.765930" lon="20.470980"><ele>35.5</ele><time>2025-12-08T13:29:27Z</time></trkpt>
			<trkpt lat="54.765850" lon="20.470930"><ele>35.4</ele><time>2025-12-08T13:29:29Z</time></trkpt>
			<trkpt lat="54.765800" lon="20.470910"><ele>35.3</ele><time>2025-12-08T13:29:32Z</time></trkpt>
			<trkpt lat="54.765760" lon="20.470910"><ele>35.3</ele><time>2025-12-08T13:29:34Z</time></trkpt>
			<trkpt lat="54.765680" lon="20.470930"><ele>35.1</ele><time>2025-12-08T13:29:36Z</time></trkpt>
			<trkpt lat="54.765600" lon="20.470990"><ele>35.0</ele><time>2025-12-08T13:29:39Z</time></trkpt>
			<trkpt lat="54.765560" lon="20.471040"><ele>34.9</ele><time>2025-12-08T13:29:41Z</time></trkpt>
			<trkpt lat="54.765420" lon="20.471150"><ele>34.7</ele><time>2025-12-08T13:29:43Z</time></trkpt>
			<trkpt lat="54.765300" lon="20.471200"><ele>34.5</ele><time>2025-12-08T13:29:46Z</time></trkpt>
			<trkpt lat="54.765190" lon="20.471200"><ele>34.3</ele><time>2025-12-08T13:29:48Z</time></trkpt>
			<trkpt lat="54.764550" lon="20.471050"><ele>33.0</ele><time>2025-12-08T13:29:51Z</time></trkpt>
			<trkpt lat="54.764310" lon="20.471000"><ele>32.5</ele><time>2025-12-08T13:29:53Z</time></trkpt>
			<trkpt lat="54.763930" lon="20.470910"><ele>31.7</ele><time>2025-12-08T13:29:55Z</time></trkpt>
			<trkpt lat="54.763430" lon="20.470790"><ele>30.6</ele><time>2025-12-08T13:29:58Z</time></trkpt>
			<trkpt lat="54.762540" lon="20.470640"><ele>31.0</ele><time>2025-12-08T13:30:00Z</time></trkpt>
			<trkpt lat="54.761890" lon="20.470500"><ele>31.7</ele><time>2025-12-08T13:30:02Z</time></trkpt>
			<trkpt lat="54.761510" lon="20.470420"><ele>32.2</ele><time>2025-12-08T13:30:05Z</time></trkpt>
			<trkpt lat="54.761190" lon="20.470390"><ele>31.8</ele><time>2025-12-08T13:30:07Z</time></trkpt>
			<trkpt lat="54.760620" lon="20.470370"><ele>30.6</ele><time>2025-12-08T13:30:09Z</time></trkpt>
			<trkpt lat="54.760330" lon="20.470370"><ele>30.0</ele><time>2025-12-08T13:30:12Z</time></trkpt>
			<trkpt lat="54.759730" lon="20.470430"><ele>28.8</ele><time>2025-12-08T13:30:14Z</time></trkpt>
			<trkpt lat="54.759530" lon="20.470470"><ele>28.7</ele><time>2025-12-08T13:30:17Z</time></trkpt>
			<trkpt lat="54.758900" lon="20.470660"><ele>29.3</ele><time>2025-12-08T13:30:19Z</time></trkpt>
			<trkpt lat="54.758290" lon="20.470920"><ele>29.8</ele><time>2025-12-08T13:30:21Z</time></trkpt>
			<trkpt lat="54.757680" lon="20.471250"><ele>31.0</ele><time>2025-12-08T13:30:24Z</time></trkpt>
			<trkpt lat="54.757200" lon="20.471590"><ele>32.7</ele><time>2025-12-08T13:30:26Z</time></trkpt>
			<trkpt lat="54.756730" lon="20.471960"><ele>34.5</ele><time>2025-12-08T13:30:28Z</time></trkpt>
			<trkpt lat="54.755820" lon="20.472750"><ele>34.4</ele><time>2025-12-08T13:30:31Z</time></trkpt>
			<trkpt lat="54.755410" lon="20.473090"><ele>32.3</ele><time>2025-12-08T13:30:33Z</time></trkpt>
			<trkpt lat="54.748670" lon="20.478780"><ele>24.1</ele><time>2025-12-08T13:30:35Z</time></trkpt>
			<trkpt lat="54.747230" lon="20.480000"><ele>23.3</ele><time>2025-12-08T13:30:38Z</time></trkpt>
			<trkpt lat="54.747170" lon="20.480030"><ele>23.3</ele><time>2025-12-08T13:30:40Z</time></trkpt>
			<trkpt lat="54.746990" lon="20.480020"><ele>23.3</ele><time>2025-12-08T13:30:42Z</time></trkpt>
			<trkpt lat="54.746910" lon="20.480000"><ele>23.2</ele><time>2025-12-08T13:30:45Z</time></trkpt>
			<trkpt lat="54.746860" lon="20.480000"><ele>23.2</ele><time>2025-12-08T13:30:47Z</time></trkpt>
			<trkpt lat="54.746770" lon="20.480050"><ele>23.2</ele><time>2025-12-08T13:30:50Z</time></trkpt>
			<trkpt lat="54.746730" lon="20.480100"><ele>23.2</ele><time>2025-12-08T13:30:52Z</time></trkpt>
			<trkpt lat="54.746700" lon="20.480140"><ele>23.2</ele><time>2025-12-08T13:30:54Z</time></trkpt>
			<trkpt lat="54.746650" lon="20.480260"><ele>23.1</ele><time>2025-12-08T13:30:57Z</time></trkpt>
			<trkpt lat="54.746630" lon="20.480350"><ele>23.1</ele><time>2025-12-08T13:30:59Z</time></trkpt>
			<trkpt lat="54.746620" lon="20.480450"><ele>23.1</ele><time>2025-12-08T13:31:01Z</time></trkpt>
			<trkpt lat="54.746630" lon="20.480580"><ele>23.1</ele><time>2025-12-08T13:31:04Z</time></trkpt>
			<trkpt lat="54.746650" lon="20.480710"><ele>23.1</ele><time>2025-12-08T13:31:06Z</time></trkpt>
			<trkpt lat="54.746710" lon="20.480830"><ele>23.2</ele><time>2025-12-08T13:31:08Z</time></trkpt>
			<trkpt lat="54.746770" lon="20.480900"><ele>23.2</ele><time>2025-12-08T13:31:11Z</time></trkpt>
			<trkpt lat="54.746840" lon="20.480950"><ele>23.2</ele><time>2025-12-08T13:31:13Z</time></trkpt>
			<trkpt lat="54.747050" lon="20.481190"><ele>23.3</ele><time>2025-12-08T13:31:15Z</time></trkpt>
			<trkpt lat="54.747170" lon="20.481440"><ele>23.4</ele><time>2025-12-08T13:31:18Z</time></trkpt>
			<trkpt lat="54.747280" lon="20.481970"><ele>23.6</ele><time>2025-12-08T13:31:20Z</time></trkpt>
			<trkpt lat="54.747350" lon="20.482420"><ele>23.7</ele><time>2025-12-08T13:31:23Z</time></trkpt>
			<trkpt lat="54.747390" lon="20.482760"><ele>23.8</ele><time>2025-12-08T13:31:25Z</time></trkpt>
			<trkpt lat="54.747440" lon="20.483360"><ele>24.0</ele><time>2025-12-08T13:31:27Z</time></trkpt>
			<trkpt lat="54.747450" lon="20.483660"><ele>24.2</ele><time>2025-12-08T13:31:30Z</time></trkpt>
			<trkpt lat="54.747450" lon="20.483950"><ele>24.3</ele><time>2025-12-08T13:31:32Z</time></trkpt>
			<trkpt lat="54.747440" lon="20.484360"><ele>24.6</ele><time>2025-12-08T13:31:34Z</time></trkpt>
			<trkpt lat="54.747420" lon="20.484600"><ele>24.7</ele><time>2025-12-08T13:31:37Z</time></trkpt>
			<trkpt lat="54.747390" lon="20.484940"><ele>24.9</ele><time>2025-12-08T13:31:39Z</time></trkpt>
			<trkpt lat="54.747300" lon="20.485630"><ele>25.3</ele><time>2025-12-08T13:31:41Z</time></trkpt>
			<trkpt lat="54.747300" lon="20.485630"><ele>25.3</ele><time>2025-12-08T13:31:47Z</time></trkpt>
			<trkpt lat="54.747270" lon="20.485830"><ele>25.4</ele><time>2025-12-08T13:31:53Z</time></trkpt>
			<trkpt lat="54.747170" lon="20.486630"><ele>25.4</ele><time>2025-12-08T13:31:59Z</time></trkpt>
			<trkpt lat="54.747120" lon="20.486890"><ele>25.3</ele><time>2025-12-08T13:32:05Z</time></trkpt>
			<trkpt lat="54.747050" lon="20.487440"><ele>24.9</ele><time>2025-12-08T13:32:11Z</time></trkpt>
			<trkpt lat="54.747260" lon="20.487570"><ele>24.7</ele><time>2025-12-08T13:32:16Z</time></trkpt>
			<trkpt lat="54.747250" lon="20.487690"><ele>24.6</ele><time>2025-12-08T13:32:22Z</time></trkpt>
			<trkpt lat="54.747380" lon="20.487920"><ele>24.4</ele><time>2025-12-08T13:32:28Z</time></trkpt>
			<trkpt lat="54.747360" lon="20.488010"><ele>24.4</ele><time>2025-12-08T13:32:34Z</time></trkpt>
			<trkpt lat="54.747340" lon="20.488120"><ele>24.3</ele><time>2025-12-08T13:32:40Z</time></trkpt>
			<trkpt lat="54.747520" lon="20.488740"><ele>23.9</ele><time>2025-12-08T13:32:45Z</time></trkpt>
			<trkpt lat="54.748110" lon="20.488230"><ele>24.1</ele><time>2025-12-08T13:32:51Z</time></trkpt>
			<trkpt lat="54.748410" lon="20.487980"><ele>24.3</ele><time>2025-12-08T13:32:57Z</time></trkpt>
			<trkpt lat="54.748470" lon="20.488170"><ele>24.4</ele><time>2025-12-08T13:33:03Z</time></trkpt>
			<trkpt lat="54.748750" lon="20.489130"><ele>24.8</ele><time>2025-12-08T13:33:09Z</time></trkpt>
			<trkpt lat="54.748870" lon="20.489020"><ele>24.9</ele><time>2025-12-08T13:33:14Z</time></trkpt>
			<trkpt lat="54.748900" lon="20.488990"><ele>24.9</ele><time>2025-12-08T13:33:20Z</time></trkpt>
		</trkseg>
	</trk>
</gpx>